[[{"header":{"parameterUnit":"m.s-1","parameterCategory":1,"la1":30.6,"la2":29.2853,"lo1":-89.7004,"lo2":-87.6739,"dy":0.0162,"dx":0.0183,"nx":112,"ny":82,"refTime":"2023-09-18T12:00:00:Z","depth":0,"parameterNumber":2,"parameterNumberName":"U-component_of_WINDS"},"data":[0.0,0.0,0.0,0.0,0.0,0.0,0.0,0.0,0.0,0.0,0.0,0.0,0.0,0.0,0.0,0.0,0.0,0.0,0.0,0.0,0.0,0.0,0.0,0.0,0.0,0.0,0.0,0.0,0.0,0.0,0.0,0.0,0.0,0.0,0.0,0.0,0.0,0.0,0.0,0.0,0.0,0.0,0.0,0.0,0.0,0.0,0.0,0.0,0.0,0.0,0.0,0.0,0.0,0.0,0.0,0.0,0.0,0.0,0.0,0.0,0.0,0.0,0.0,0.0,0.0,0.0,0.0,0.0,0.0,0.0,0.0,0.0,0.0,0.0,0.0,0.0,0.0,0.0,0.0,0.0,0.0,0.0,0.0,0.0,0.0,0.0,0.0,0.0,0.0,0.0,-0.1538,-0.2981,-0.4318,-0.5315,-0.5803,-0.4415,-0.335,-0.295,0.0,0.0,0.0,0.0,0.0,0.0,0.0,0.0,0.0,0.0,0.0,0.0,0.0,0.0,0.0,0.0,0.0,0.0,0.0,0.0,0.0,0.0,0.0,0.0,0.0,0.0,0.0,0.0,0.0,0.0,0.0,0.0,0.0,0.0,0.0,0.0,0.0,0.0,0.0,0.0,0.0,0.0,0.0,0.0,0.0,0.0,0.0,0.0,0.0,0.0,0.0,0.0,0.0,0.0,0.0,0.0,0.0,0.0,0.0,0.0,0.0,0.0,0.0,0.0,0.0,0.0,0.0,0.0,0.0,0.0,0.0,0.0,0.0,0.0,0.0,0.0,0.0,0.0,0.0,0.0,0.0,0.0,0.0,0.0,0.0,0.0,0.0,0.0,0.0,0.0,0.0,0.0,0.0,0.0,0.0,0.0,0.0,0.0,0.0,0.0,0.0,0.0,0.0,0.0,-0.3499,-0.5288,-0.5599,-0.5764,-0.5942,-0.4191,-0.3088,-0.3083,0.0,0.0,0.0,0.0,0.0,0.0,0.0,0.0,0.0,0.0,0.0,0.0,0.0,0.0,0.0,0.0,0.0,0.0,0.0,0.0,0.0,0.0,0.0,0.0,0.0,0.0,0.0,0.0,0.0,0.0,0.0,0.0,0.0,0.0,0.0,0.0,0.0,0.0,0.0,0.0,0.0,0.0,0.0,0.0,0.0,0.0,0.0,0.0,0.0,0.0,0.0,0.0,0.0,0.0,0.0,0.0,0.0,0.0,0.0,0.0,0.0,0.0,0.0,0.0,0.0,0.0,0.0,0.0,0.0,0.0,0.0,0.0,0.0,0.0,0.0,0.0,0.0,0.0,0.0,0.0,0.0,0.0,0.0,0.0,0.0,0.0,0.0,0.0,0.0,0.0,0.0,0.0,0.0,0.0,0.0,0.0,0.0,0.0,0.0,0.0,0.0,0.0,0.0,-0.3601,-0.4968,-0.6204,-0.6086,-0.5977,-0.6149,-0.4317,-0.3151,-0.3103,-0.1031,0.0,0.0,0.0,0.0,0.0,0.0,0.0,0.0,0.0,0.0,0.0,0.0,0.0,0.0,0.0,0.0,0.0,0.0,0.0,0.0,0.0,0.0,0.0,0.0,0.0,0.0,0.0,0.0,0.0,0.0,0.0,0.0,0.0,0.0,0.0,0.0,0.0,0.0,0.0,0.0,0.0,0.0,0.0,0.0,0.0,0.0,0.0,0.0,0.0,0.0,0.0,0.0,0.0,0.0,0.0,0.0,0.0,0.0,0.0,0.0,0.0,0.0,0.0,0.0,0.0,0.0,0.0,0.0,0.0,0.0,0.0,0.0,0.0,0.0,0.0,0.0,0.0,0.0,0.0,0.0,0.0,0.0,0.0,0.0,0.0,0.0,0.0,0.0,0.0,0.0,0.0,0.0,0.0,0.0,0.0,0.0,0.0,0.0,0.0,0.0,0.0,0.0,-0.5303,-0.6017,-0.6538,-0.6378,-0.6167,-0.6026,-0.4318,-0.3184,-0.305,-0.0807,0.0,0.0,0.0,0.0,0.0,0.0,0.0,0.0,0.0,0.0,0.0,0.0,0.0,0.0,0.0,0.0,0.0,0.0,0.0,0.0,0.0,0.0,0.0,0.0,0.0,0.0,0.0,0.0,0.0,0.0,0.0,0.0,0.0,0.0,0.0,0.0,0.0,0.0,0.0,0.0,0.0,0.0,0.0,0.0,0.0,0.0,0.0,0.0,0.0,0.0,0.0,0.0,0.0,0.0,0.0,0.0,0.0,0.0,0.0,0.0,0.0,0.0,0.0,0.0,0.0,0.0,0.0,0.0,0.0,0.0,0.0,0.0,0.0,0.0,0.0,0.0,0.0,0.0,0.0,0.0,0.0,0.0,0.0,0.0,0.0,0.0,0.0,0.0,0.0,0.0,0.0,0.0,0.0,0.0,0.0,0.0,0.0,0.0,0.0,0.0,0.0,0.0,-0.638,-0.6486,-0.6592,-0.6734,-0.6391,-0.5278,-0.3861,-0.2998,-0.2922,-0.0544,0.0,0.0,0.0,0.0,0.0,0.0,0.0,0.0,0.0,0.0,0.0,0.0,0.0,0.0,0.0,0.0,0.0,0.0,0.0,0.0,0.0,0.0,0.0,0.0,0.0,0.0,0.0,0.0,0.0,0.0,0.0,0.0,0.0,0.0,0.0,0.0,0.0,0.0,0.0,0.0,0.0,0.0,0.0,0.0,0.0,0.0,0.0,0.0,0.0,0.0,0.0,0.0,0.0,0.0,0.0,0.0,0.0,0.0,0.0,0.0,0.0,0.0,0.0,0.0,0.0,0.0,0.0,0.0,0.0,0.0,0.0,0.0,0.0,0.0,0.0,0.0,0.0,0.0,0.0,0.0,0.0,0.0,0.0,0.0,0.0,0.0,0.0,0.0,0.0,0.0,0.0,0.0,0.0,0.0,0.0,0.0,0.0,0.0,0.0,0.0,0.0,0.0,-0.6832,-0.7177,-0.6822,-0.6853,-0.634,-0.4976,-0.3721,-0.2912,-0.2678,0.0,0.0,0.0,0.0,0.0,0.0,0.0,0.0,0.0,0.0,0.0,0.0,0.0,0.0,0.0,0.0,0.0,0.0,0.0,0.0,0.0,0.0,0.0,0.0,0.0,0.0,0.0,0.0,0.0,0.0,0.0,0.0,0.0,0.0,0.0,0.0,0.0,0.0,0.0,0.0,0.0,0.0,0.0,0.0,0.0,0.0,0.0,0.0,0.0,0.0,0.0,0.0,0.0,0.0,0.0,0.0,0.0,0.0,0.0,0.0,0.0,0.0,0.0,0.0,0.0,0.0,0.0,0.0,0.0,0.0,0.0,0.0,0.0,0.0,0.0,0.0,0.0,0.0,0.0,0.0,0.0,0.0,0.0,0.0,0.0,0.0,0.0,0.0,0.0,0.0,0.0,0.0,0.0,0.0,0.0,0.0,0.0,0.0,0.0,0.0,0.0,0.0,-0.6215,-0.7192,-0.7556,-0.6956,-0.6907,-0.6306,-0.4883,-0.364,-0.2833,-0.2572,0.0,0.0,0.0,0.0,0.0,0.0,0.0,0.0,0.0,0.0,0.0,0.0,0.0,0.0,0.0,0.0,0.0,0.0,0.0,0.0,0.0,0.0,0.0,0.0,0.0,0.0,0.0,0.0,0.0,0.0,0.0,0.0,0.0,0.0,0.0,0.0,0.0,0.0,0.0,0.0,0.0,0.0,0.0,0.0,0.0,0.0,0.0,0.0,0.0,0.0,0.0,0.0,0.0,0.0,0.0,0.0,0.0,0.0,0.0,0.0,0.0,0.0,0.0,0.0,0.0,0.0,0.0,0.0,0.0,0.0,0.0,0.0,0.0,0.0,0.0,0.0,0.0,0.0,0.0,0.0,0.0,0.0,0.0,0.0,0.0,0.0,0.0,0.0,0.0,0.0,0.0,0.0,0.0,0.0,0.0,0.0,0.0,0.0,0.0,0.0,0.0,0.0,-0.6913,-0.7447,-0.7487,-0.6967,-0.6907,-0.636,-0.5006,-0.3609,-0.278,0.0,0.0,0.0,0.0,0.0,0.0,0.0,0.0,0.0,0.0,0.0,0.0,0.0,0.0,0.0,0.0,0.0,0.0,0.0,0.0,0.0,0.0,0.0,0.0,0.0,0.0,0.0,0.0,0.0,0.0,0.0,0.0,0.0,0.0,0.0,0.0,0.0,0.0,0.0,0.0,0.0,0.0,0.0,0.0,0.0,0.0,0.0,0.0,0.0,0.0,0.0,0.0,0.0,0.0,0.0,0.0,0.0,0.0,0.0,0.0,0.0,0.0,0.0,0.0,0.0,0.0,0.0,0.0,0.0,0.0,0.0,0.0,0.0,0.0,0.0,0.0,0.0,0.0,0.0,0.0,0.0,0.0,0.0,0.0,0.0,0.0,0.0,0.0,0.0,0.0,0.0,0.0,0.0,0.0,0.0,0.0,0.0,0.0,0.0,0.0,0.0,0.0,0.0,-0.6469,-0.7234,-0.7542,-0.7079,-0.6966,-0.6274,-0.4737,-0.3811,-0.3026,-0.2401,0.0,0.0,0.0,0.0,0.0,0.0,0.0,0.0,0.0,0.0,0.0,0.0,0.0,0.0,0.0,0.0,0.0,0.0,0.0,0.0,0.0,0.0,0.0,0.0,0.0,0.0,0.0,0.0,0.0,0.0,0.0,0.0,0.0,0.0,0.0,0.0,0.0,0.0,0.0,0.0,0.0,0.0,0.0,0.0,0.0,0.0,0.0,0.0,0.0,0.0,0.0,0.0,0.0,0.0,0.0,0.0,0.0,0.0,0.0,0.0,0.0,0.0,0.0,0.0,0.0,0.0,0.0,0.0,0.0,0.0,0.0,0.0,0.0,0.0,0.0,0.0,0.0,0.0,0.0,0.0,0.0,0.0,0.0,0.0,0.0,0.0,0.0,0.0,0.0,0.0,0.0,0.0,0.0,0.0,0.0,0.0,0.0,0.0,0.0,0.0,0.0,0.0,-0.6705,-0.7385,-0.7696,-0.7452,-0.6988,-0.6183,-0.4931,-0.3906,-0.302,-0.2238,0.0,0.0,0.0,0.0,0.0,0.0,0.0,0.0,0.0,0.0,0.0,0.0,0.0,0.0,0.0,0.0,0.0,0.0,0.0,0.0,0.0,0.0,0.0,0.0,0.0,0.0,0.0,0.0,0.0,0.0,0.0,0.0,0.0,0.0,0.0,0.0,0.0,0.0,0.0,0.0,0.0,0.0,0.0,0.0,0.0,0.0,0.0,0.0,0.0,0.0,0.0,0.0,0.0,0.0,0.0,0.0,0.0,0.0,0.0,0.0,0.0,0.0,0.0,0.0,0.0,0.0,0.0,0.0,0.0,0.0,0.0,0.0,0.0,0.0,0.0,0.0,0.0,0.0,0.0,0.0,0.0,0.0,0.0,0.0,0.0,0.0,0.0,0.0,0.0,0.0,0.0,0.0,0.0,0.0,0.0,0.0,0.0,0.0,0.0,0.0,0.0,0.0,-0.7323,-0.7772,-0.7906,-0.7823,-0.6979,-0.6085,-0.5269,-0.3959,-0.2931,-0.2304,0.0,0.0,0.0,0.0,0.0,0.0,0.0,0.0,0.0,0.0,0.0,0.0,0.0,0.0,0.0,0.0,0.0,0.0,0.0,0.0,0.0,0.0,0.0,0.0,0.0,0.0,0.0,0.0,0.0,0.0,0.0,0.0,0.0,0.0,0.0,0.0,0.0,0.0,0.0,0.0,0.0,0.0,0.0,0.0,0.0,0.0,0.0,0.0,0.0,0.0,0.0,0.0,0.0,0.0,0.0,0.0,0.0,0.0,0.0,0.0,-0.191,-0.1338,0.0,0.0,0.0,0.0,0.0,0.0,0.0,0.0,0.0,0.0,0.0,0.0,0.0,0.0,0.0,0.0,0.0,0.0,0.0,0.0,0.0,0.0,0.0,0.0,0.0,0.0,0.0,0.0,0.0,0.0,0.0,0.0,0.0,0.0,0.0,0.0,0.0,0.0,0.0,0.0,-0.7372,-0.7967,-0.7999,-0.7197,-0.6785,-0.5991,-0.4542,-0.4041,-0.3505,-0.2803,-0.2273,0.0,0.0,0.0,0.0,0.0,0.0,0.0,0.0,0.0,0.0,0.0,0.0,0.0,0.0,0.0,0.0,0.0,0.0,0.0,0.0,0.0,0.0,0.0,0.0,0.0,0.0,0.0,0.0,0.0,0.0,0.0,0.0,0.0,0.0,0.0,0.0,0.0,0.0,0.0,0.0,0.0,0.0,0.0,0.0,0.0,0.0,0.0,0.0,0.0,0.0,0.0,0.0,0.0,0.0,0.0,0.0,0.0,0.0,0.0,-0.3429,-0.251,0.0,0.0,0.0,0.0,0.0,0.0,0.0,0.0,0.0,0.0,0.0,0.0,0.0,0.0,0.0,0.0,0.0,0.0,0.0,0.0,0.0,0.0,0.0,0.0,0.0,0.0,0.0,0.0,0.0,0.0,0.0,0.0,0.0,0.0,0.0,0.0,0.0,0.0,0.0,0.0,-0.7862,-0.8255,-0.8216,-0.7768,-0.7236,-0.6427,-0.5179,-0.4685,-0.399,-0.2957,-0.2773,0.0,0.0,0.0,0.0,0.0,0.0,0.0,0.0,0.0,0.0,0.0,0.0,0.0,0.0,0.0,0.0,0.0,0.0,0.0,0.0,0.0,0.0,0.0,0.0,0.0,0.0,0.0,0.0,0.0,0.0,0.0,0.0,0.0,0.0,0.0,0.0,0.0,0.0,0.0,0.0,0.0,0.0,0.0,0.0,0.0,0.0,0.0,0.0,0.0,0.0,0.0,0.0,0.0,-0.8412,-0.8181,-0.8301,-0.7696,-0.7169,-0.6695,-0.5349,-0.4139,-0.3128,-0.3155,0.0,0.0,0.0,0.0,0.0,0.0,0.0,0.0,0.0,0.0,0.0,0.0,0.0,0.0,0.0,0.0,0.0,0.0,0.0,0.0,0.0,0.0,-0.4072,-0.4019,-0.4235,-0.4244,-0.3447,0.0,0.0,0.0,0.0,0.0,0.0,0.0,0.0,0.0,0.0,0.0,-0.8409,-0.8513,-0.846,-0.8442,-0.7686,-0.6819,-0.5957,-0.5195,-0.4258,-0.3125,-0.3005,-0.251,0.0,0.0,0.0,0.0,0.0,0.0,0.0,0.0,0.0,0.0,0.0,0.0,0.0,0.0,0.0,0.0,0.0,0.0,0.0,0.0,0.0,0.0,0.0,0.0,0.0,0.0,0.0,0.0,0.0,0.0,0.0,0.0,-0.582,-0.6275,0.0,0.0,0.0,0.0,0.0,0.0,0.0,0.0,0.0,0.0,0.0,0.0,0.0,-0.8328,-0.8884,-1.0395,-1.1171,-1.1182,-1.0758,-1.0478,-1.0274,-0.9409,-0.9011,-0.9026,-0.8138,0.0,-0.4833,-0.4389,0.0,0.0,0.0,0.0,0.0,0.0,0.0,0.0,0.0,0.0,0.0,0.0,0.0,0.0,0.0,0.0,0.0,0.0,0.0,0.0,0.0,0.0,-0.4216,-0.5052,-0.473,-0.4495,-0.5377,-0.4731,-0.4004,-0.4076,-0.4339,-0.4546,0.0,0.0,0.0,0.0,0.0,0.0,-0.8435,-0.8685,-0.8521,-0.7877,-0.7154,-0.6347,-0.5461,-0.462,-0.3993,-0.3701,-0.3475,-0.3084,-0.2508,-0.2019,0.0,0.0,0.0,0.0,0.0,0.0,0.0,0.0,0.0,0.0,0.0,0.0,0.0,0.0,0.0,0.0,0.0,0.0,0.0,0.0,0.0,0.0,0.0,0.0,0.0,0.0,0.0,0.0,0.0,-0.7016,-0.7215,-0.7226,-0.732,-0.7375,0.0,0.0,0.0,0.0,0.0,0.0,0.0,0.0,0.0,-0.9155,-1.0191,-1.1026,-1.1566,-1.255,-1.3182,-1.3471,-1.2907,-1.2661,-1.269,-1.1999,-1.1444,-1.1029,-1.0622,-0.9857,-0.8754,-0.6708,-0.5552,-0.5073,0.0,0.0,0.0,0.0,-0.4417,-0.4552,-0.4568,-0.4469,-0.4415,-0.4991,0.0,0.0,0.0,0.0,0.0,0.0,0.0,-0.4903,-0.6058,-0.6511,-0.6929,-0.8099,-0.7575,-0.7144,-0.8229,-0.7353,-0.6077,-0.5241,-0.5186,-0.5292,-0.5417,-0.5075,0.0,0.0,0.0,-0.7337,-0.8553,-0.8474,-0.815,-0.775,-0.7047,-0.6257,-0.5371,-0.4961,-0.4499,-0.3959,-0.3868,-0.3572,-0.2939,-0.267,-0.2247,0.0,0.0,0.0,0.0,0.0,0.0,0.0,0.0,0.0,0.0,0.0,0.0,0.0,0.0,0.0,0.0,0.0,0.0,0.0,0.0,0.0,0.0,0.0,0.0,0.0,0.0,0.0,0.0,-0.8329,-0.8435,-0.8018,-0.8595,-0.8978,0.0,0.0,0.0,0.0,0.0,0.0,-1.1465,-1.1985,-1.2203,-1.1978,-1.2928,-1.367,-1.418,-1.4897,-1.5464,-1.5839,-1.5034,-1.4782,-1.4937,-1.4214,-1.359,-1.3006,-1.2777,-1.2596,-1.2189,-0.9252,-0.7594,-0.6988,-0.6993,-0.6816,-0.6483,-0.604,-0.6208,-0.6585,-0.6359,-0.6182,-0.618,-0.6572,-0.6386,-0.5944,-0.5592,0.0,0.0,0.0,0.0,-0.7099,-0.847,-0.9072,-0.959,-1.0589,-1.011,-0.9649,-1.0402,-0.9493,-0.8167,-0.6839,-0.6455,-0.6392,-0.6581,-0.607,0.0,-0.7747,-0.7555,-0.7609,-0.8618,-0.8278,-0.786,-0.7633,-0.6947,-0.6231,-0.5496,-0.5218,-0.4786,-0.409,-0.4122,-0.3907,-0.3346,-0.3229,-0.2812,-0.2068,0.0,0.0,0.0,0.0,0.0,0.0,0.0,0.0,0.0,0.0,0.0,0.0,0.0,0.0,0.0,0.0,0.0,0.0,0.0,0.0,0.0,0.0,0.0,0.0,0.0,0.0,0.0,0.0,0.0,-0.8699,-0.9835,0.0,0.0,0.0,0.0,-1.281,-1.3476,-1.368,-1.3291,-1.3698,-1.3812,-1.3482,-1.488,-1.583,-1.6265,-1.7686,-1.8388,-1.8419,-1.7287,-1.6774,-1.6741,-1.5568,-1.5003,-1.4949,-1.4399,-1.419,-1.3981,-1.1743,-1.0767,-1.0697,-1.0403,-1.0315,-1.0242,-0.8832,-0.9205,-1.0234,-0.8834,-0.8651,-0.9221,-0.9982,-0.9943,-0.9456,-0.8906,-0.9028,0.0,0.0,-1.0384,-1.0625,-1.0748,-1.0904,-1.1155,-1.1385,-1.1167,-1.091,-1.096,-1.0665,-1.007,-0.9117,-0.8468,-0.8113,-0.8265,0.0,-0.7819,-0.8621,-0.8451,-0.8311,-0.8568,-0.8311,-0.7899,-0.7367,-0.6724,-0.6168,-0.5805,-0.5018,-0.443,-0.4213,-0.4082,-0.4004,-0.3944,-0.3594,-0.3585,-0.4036,-0.2831,0.0,0.0,0.0,0.0,0.0,0.0,0.0,0.0,0.0,0.0,0.0,0.0,0.0,0.0,0.0,0.0,0.0,0.0,0.0,0.0,0.0,0.0,0.0,0.0,0.0,0.0,0.0,0.0,-1.1177,-1.2432,0.0,-1.288,-1.4205,-1.4986,-1.4674,-1.6492,-1.7128,-1.5951,-1.6941,-1.7414,-1.7138,-1.7667,-1.8181,-1.8663,-1.8976,-1.9107,-1.9099,-1.8419,-1.8118,-1.8118,-1.7692,-1.7217,-1.6749,-1.6217,-1.5981,-1.5893,-1.4819,-1.3536,-1.2262,-1.2006,-1.187,-1.1741,-1.1339,-1.1606,-1.2116,-1.1592,-1.1131,-1.0809,-1.0507,-1.0673,-1.0898,-1.0611,-1.065,-1.083,-1.1306,-1.1426,-1.1564,-1.2314,-1.2675,-1.2981,-1.3673,-1.3039,-1.2413,-1.2941,-1.2101,-1.1316,-1.1498,-1.0345,-0.9456,-0.9709,-0.9035,-0.8818,-0.9857,-0.9162,-0.8645,-0.9061,-0.8233,-0.7459,-0.7133,-0.6263,-0.5624,-0.5384,-0.4907,-0.4606,-0.4524,-0.4388,-0.4331,-0.4331,-0.4193,-0.4002,-0.3812,-0.3611,-0.3269,0.0,0.0,0.0,0.0,0.0,0.0,0.0,0.0,0.0,0.0,0.0,0.0,0.0,0.0,0.0,0.0,0.0,0.0,0.0,0.0,0.0,0.0,0.0,0.0,0.0,-1.3245,-1.4248,-1.4324,-1.5512,-1.6109,-1.5509,-1.7055,-1.7762,-1.6936,-1.9067,-1.9965,-1.8957,-1.9549,-1.994,-1.9988,-1.949,-1.9494,-2.0035,-1.9758,-1.962,-1.9612,-1.9219,-1.9058,-1.905,-1.8874,-1.8542,-1.8025,-1.7552,-1.7318,-1.7271,-1.6756,-1.5711,-1.4408,-1.4037,-1.381,-1.3635,-1.336,-1.358,-1.4065,-1.3789,-1.3268,-1.2615,-1.1912,-1.2011,-1.2389,-1.2383,-1.2415,-1.2505,-1.3006,-1.3069,-1.3118,-1.3869,-1.4174,-1.444,-1.5041,-1.4346,-1.3653,-1.4184,-1.3265,-1.2452,-1.301,-1.1862,-1.0943,-1.1201,-1.0419,-1.0108,-1.1083,-1.0091,-0.9362,-0.9736,-0.859,-0.7623,-0.7184,-0.6556,-0.5902,-0.5265,-0.5514,-0.5438,-0.4802,-0.4925,-0.4873,-0.4577,-0.4567,-0.4347,-0.3904,-0.4107,-0.3855,-0.3128,0.0,0.0,0.0,0.0,0.0,0.0,0.0,0.0,0.0,0.0,0.0,0.0,0.0,0.0,0.0,0.0,0.0,0.0,0.0,0.0,0.0,0.0,0.0,-1.4364,-1.5888,-1.7335,-1.7945,-1.8991,-1.9294,-1.8292,-1.9741,-2.0397,-1.9478,-2.105,-2.1993,-2.197,-2.1259,-2.114,-2.165,-2.0272,-1.9807,-2.0342,-2.0191,-2.0069,-2.006,-1.979,-1.9662,-1.9617,-1.9104,-1.8827,-1.8827,-1.8365,-1.8133,-1.8133,-1.7567,-1.7326,-1.7279,-1.652,-1.6237,-1.6089,-1.4848,-1.5175,-1.6129,-1.5365,-1.4948,-1.4673,-1.4333,-1.411,-1.4022,-1.436,-1.4482,-1.4608,-1.5257,-1.5431,-1.5431,-1.5431,-1.5431,-1.5431,-1.5389,-1.4948,-1.4518,-1.4511,-1.3967,-1.3506,-1.3492,-1.2992,-1.2565,-1.2699,-1.2069,-1.1699,-1.2253,-1.1295,0.0,-1.0502,-0.9441,-0.8388,-0.756,-0.7612,-0.7111,-0.5599,-0.6856,-0.6929,-0.5085,-0.5631,-0.5652,-0.4778,-0.4748,-0.4698,-0.4522,-0.4328,-0.4138,-0.4024,0.0,0.0,0.0,0.0,0.0,0.0,0.0,0.0,0.0,0.0,0.0,0.0,0.0,0.0,0.0,0.0,0.0,0.0,0.0,0.0,0.0,-1.8267,-1.9216,-1.7812,-1.8956,-2.0019,-2.0155,-2.1132,-2.1321,-1.9954,-2.1172,-2.1453,-2.0099,-2.1463,-2.1868,-2.0741,-2.0848,-2.1063,-2.149,-2.0854,-2.0977,-2.198,-2.1615,-2.1436,-2.1419,-2.0831,-2.0526,-2.0517,-2.01,-1.9882,-1.9874,-1.9371,-1.918,-1.9142,-1.8589,-1.8404,-1.8311,-1.7372,-1.6998,-1.6951,-1.6608,-1.6567,-1.6578,-1.5622,-1.5583,-1.5782,-1.4679,-1.5041,-1.584,-1.5678,-1.5824,-1.6113,-1.6278,-1.6327,-1.6286,-1.5963,-1.5922,-1.5797,-1.5472,-1.5075,-1.475,-1.4562,-1.4181,-1.3777,-1.3543,-1.3346,-1.3252,-1.3288,-1.268,-1.2362,-1.2757,-1.1598,-1.0814,-1.1047,-0.9675,-0.8741,-0.8833,-0.8318,-0.7793,-0.7318,-0.753,-0.7305,-0.6418,-0.6393,-0.6288,-0.5959,-0.6014,-0.5798,-0.5246,-0.4704,-0.4408,0.0,0.0,0.0,0.0,0.0,0.0,0.0,0.0,0.0,0.0,0.0,0.0,0.0,0.0,0.0,0.0,0.0,0.0,0.0,0.0,0.0,0.0,-2.0566,-2.1995,-2.2216,-2.2344,-2.2726,-2.3525,-2.3688,-2.3514,-2.2847,-2.3785,-2.3616,-2.1733,-2.2891,-2.3048,-2.1641,-2.1506,-2.1682,-2.2327,-2.1637,-2.1683,-2.2594,-2.2184,-2.1919,-2.1747,-2.1311,-2.1105,-2.1088,-2.0711,-2.054,-2.0531,-1.9895,-1.9592,-1.9546,-1.9004,-1.8781,-1.8735,0.0,0.0,0.0,0.0,-1.7726,-1.7301,-1.6744,-1.6777,-1.6959,-1.6038,-1.6445,-1.7246,-1.6947,-1.6904,-1.6945,-1.6945,-1.6725,-1.6409,-1.617,-1.5963,-1.5722,-1.5472,-1.5141,-1.4849,-1.4706,-1.4311,-1.3967,-1.3916,-1.3682,0.0,-1.3675,-1.3155,-1.2729,-1.2835,-1.1776,-1.1036,-1.1102,-0.9852,-0.9,-0.909,-0.8613,-0.8106,-0.7738,-0.805,0.0,0.0,0.0,-0.7082,-0.6631,-0.6606,0.0,0.0,0.0,-0.5042,-0.4883,-0.5322,0.0,0.0,-0.5247,-0.5439,0.0,0.0,0.0,0.0,0.0,0.0,0.0,0.0,0.0,0.0,0.0,0.0,0.0,0.0,0.0,0.0,-2.2874,-2.4392,-2.6521,-2.5433,-2.5109,-2.6931,-2.6186,-2.5509,-2.5557,-2.6191,-2.5717,-2.3521,-2.4184,-2.4333,-2.3378,-2.2623,0.0,0.0,0.0,-2.2088,-2.2663,-2.2287,-2.1927,-2.1533,-2.1499,-2.1482,-2.1465,-2.1105,-2.0917,-2.0857,-2.0084,-1.9725,-1.9637,-1.9188,-1.8966,-1.8966,-1.8827,-1.8781,-1.8781,-1.8742,-1.8488,-1.8118,-1.808,0.0,0.0,-1.7666,-1.7864,-1.8209,-1.7945,-1.7616,-1.7393,-1.7393,-1.6844,-1.6211,-1.617,-1.5846,-1.5472,-1.5431,-1.5163,-1.4944,-1.4907,-1.4494,-1.4157,-1.4408,-1.3975,-1.3689,-1.3976,-1.344,-1.2899,-1.2631,-1.1875,-1.1202,-1.0917,-0.9961,-0.9183,-0.891,-0.8722,0.0,-0.7602,-0.8459,-0.8302,-0.6533,-0.755,-0.7892,-0.7115,-0.6903,-0.6703,-0.646,-0.6274,-0.5923,-0.5404,-0.6278,-0.6416,-0.5849,-0.593,-0.6187,0.0,0.0,0.0,0.0,0.0,0.0,0.0,0.0,0.0,0.0,0.0,0.0,0.0,0.0,0.0,-2.3095,-2.5035,-2.66,-2.738,-2.6458,-2.5846,-2.6118,-2.6783,-2.6104,-2.331,-2.3783,-2.355,-2.18,-2.183,-2.2025,-2.2321,-2.2141,-2.2444,-2.3336,-2.2938,-2.2783,-2.3006,-2.2937,-2.2706,-2.2371,-2.2021,0.0,-2.1867,-2.1482,-2.1148,-2.0874,-2.0704,-2.0445,-2.0155,-2.0056,-2.0019,-1.9928,-1.9104,-1.8781,-1.8796,-1.851,-1.8353,-1.8224,-1.794,-1.7845,-1.7782,-1.747,-1.7624,-1.7916,-1.7589,-1.7672,0.0,-1.7858,-1.7523,-1.7066,-1.6697,-1.6294,-1.588,-1.5472,-1.5338,-1.5221,-1.4958,-1.4805,-1.4586,-1.4165,-1.4225,-1.4254,-1.4056,-1.344,-1.2899,-1.2631,-1.1875,-1.1202,-1.0917,-0.9961,-0.9447,-0.9865,-0.9552,-0.9226,-0.9075,-0.8906,-0.8486,-0.7764,-0.8137,-0.8335,-0.8271,-0.8143,-0.7839,-0.7364,-0.7264,-0.6611,-0.5404,-0.6267,-0.6699,-0.6664,-0.6967,-0.7075,0.0,0.0,0.0,0.0,0.0,0.0,0.0,0.0,0.0,0.0,0.0,-1.9478,-2.0721,0.0,-2.4139,-2.5257,-2.6958,-2.8038,-2.7771,-2.727,-2.6941,-2.6842,-2.6502,-2.5802,-2.4588,-2.4849,-2.4436,-2.2815,-2.2845,-2.2774,-2.2289,-2.2512,-2.2925,-2.3568,-2.3549,-2.3595,-2.3621,-2.3674,-2.3391,-2.2835,-2.2843,-2.2646,-2.227,-2.2064,-2.167,-2.1131,-2.096,-2.0651,-2.0292,-2.0292,-2.0292,-2.0246,-1.9745,-1.9563,-1.9538,-1.9356,-1.9146,-1.8941,-1.8755,-1.8698,-1.8633,-1.8284,-1.8438,-1.8725,-1.8389,-1.8303,-1.8314,-1.8314,-1.7859,-1.7351,-1.7106,-1.6574,-1.6053,-1.5805,-1.5555,-1.5345,-1.5185,-1.5017,-1.4856,-1.4735,-1.4582,-1.4504,-1.4465,-1.4062,-1.3605,-1.3189,-1.2451,-1.185,-1.1423,-1.0392,-0.9789,-0.9962,-0.9321,-0.8937,-0.9046,-0.8563,-0.831,-0.8392,-0.8056,-0.8204,-0.8968,-0.8675,-0.8409,-0.8204,-0.8114,-0.7532,-0.6463,-0.7483,-0.7856,-0.7571,-0.8407,-0.8715,0.0,0.0,0.0,0.0,0.0,0.0,0.0,-1.728,-1.8172,-1.9322,-2.0607,-2.1917,-2.3164,-2.4976,-2.6507,-2.7266,-2.8446,-2.8959,-2.8023,-2.7739,-2.7514,-2.7353,-2.6045,-2.5305,-2.5719,-2.5982,-2.5522,-2.395,-2.4276,-2.3966,-2.2759,-2.3239,-2.3764,-2.4072,-2.423,-2.4253,-2.4176,-2.4176,-2.3809,-2.3117,-2.3443,-2.3186,-2.2491,-2.2491,-2.207,-2.1285,-2.0917,-2.0626,-2.0403,-2.0317,-2.0292,-2.0292,-2.0292,-2.0337,-2.0374,-2.0215,-1.9997,-1.972,-1.9654,-1.9629,-1.9587,-1.9251,-1.9339,-1.9529,-1.9264,-1.8956,-1.8699,-1.8699,-1.8195,-1.7606,-1.7606,-1.7028,-1.6453,-1.6453,-1.6023,-1.5644,-1.5644,-1.5303,-1.5053,-1.525,-1.497,-1.4674,-1.4702,-1.458,-1.4288,-1.3687,-1.3072,-1.2523,-1.1982,-1.0963,-1.0179,-0.9996,-0.9141,-0.8591,-0.8592,-0.8199,-0.8179,-0.8658,-0.8138,-0.834,-0.9462,-0.9241,-0.9071,-0.9044,-0.9055,-0.8654,-0.7809,-0.8909,-0.9195,-0.8712,-0.9631,-0.9997,-1.3707,-1.4333,-1.5407,-1.6811,-1.6963,-1.7514,0.0,-2.1148,-2.1546,-2.2355,-2.3588,-2.4688,-2.5334,-2.6613,-2.7772,-2.8233,-2.8981,-2.9196,-2.8345,-2.7406,-2.6536,-2.5819,-2.6163,-2.5465,-2.3104,-2.3829,-2.3976,-2.2686,-2.3165,-2.3541,-2.3727,-2.4309,-2.4659,-2.471,-2.4723,-2.4581,-2.4185,-2.4176,-2.3809,-2.3117,-2.316,-2.2783,-2.2055,-2.2055,-2.1645,-2.0917,-2.0523,-2.0531,-2.0788,-2.0437,-2.0292,-2.0292,-2.0292,-2.0428,-2.0565,-1.9968,-1.9964,-2.015,-1.9826,-1.9671,-1.9662,-1.962,-1.9469,-1.923,-1.923,-1.9187,-1.911,-1.911,-1.8777,-1.8392,-1.8392,-1.8056,-1.7719,-1.7719,-1.7079,-1.6464,-1.6464,-1.5886,-1.5258,-1.5009,-1.5133,-1.5027,-1.4151,-1.4221,-1.4241,-1.367,-1.3072,-1.2597,-1.2292,-1.1448,-1.0805,-1.0533,-1.0,-0.9319,-0.8587,-0.8554,-0.8622,-0.8699,-0.9314,-0.9769,-0.9926,-1.0504,-1.0524,-0.9876,-1.0494,-1.0154,-0.8833,-0.957,-1.0116,-1.0482,-0.9886,-0.9571,-1.6207,-1.6536,-1.6973,-1.8243,-1.9084,-2.0006,-2.1563,-2.2749,-2.3654,-2.4086,-2.5222,-2.6265,-2.6655,-2.7469,-2.8186,-2.8344,-2.8713,-2.8517,-2.7191,-2.6619,-2.5891,-2.4588,-2.4738,-2.4444,-2.3261,-2.3372,-2.3498,-2.3389,-2.367,-2.4027,-2.4579,-2.4849,-2.5017,-2.5017,-2.5017,-2.4893,-2.4573,-2.4573,-2.4187,-2.3443,-2.3657,-2.3143,-2.2004,-2.2218,-2.1879,-2.1072,-2.0811,-2.0872,-2.1072,-2.0683,-2.0566,-2.0609,-2.0377,-2.0382,-2.0456,-2.0345,-2.0388,-2.0492,-2.0337,-2.0195,-2.0026,-1.9768,-1.9589,-1.9461,-1.9239,-1.9213,-1.9213,-1.9213,-1.9041,-1.8912,-1.8912,-1.8559,-1.8265,-1.8265,-1.7797,-1.7255,-1.6944,-1.6622,-1.6279,-1.5839,-1.6091,-1.6169,-1.559,-1.5388,-1.5148,-1.4575,-1.354,-1.2923,-1.32,-1.2284,-1.1479,-1.1103,-1.0729,-1.0365,-1.0003,-1.001,-1.0055,-1.0038,-1.0209,-1.0517,-1.1022,-1.1049,-1.0936,-1.0769,-1.114,-1.0837,-0.9866,-1.0666,-1.1156,-1.137,-1.0942,-1.0659,-1.7705,-1.8214,-1.8695,-1.9828,-2.1162,-2.241,-2.3009,-2.4386,-2.5564,-2.563,-2.6408,-2.72,-2.7571,-2.7665,-2.781,-2.8139,-2.8153,-2.766,-2.629,-2.5872,-2.5179,-2.3692,-2.3246,-2.3083,-2.3246,-2.3203,-2.3479,-2.4062,-2.4189,-2.4548,-2.5208,-2.53,-2.5284,-2.5221,-2.5221,-2.5072,-2.4821,-2.4821,-2.4376,-2.352,-2.3896,-2.3288,-2.1841,-2.2062,-2.1902,-2.1517,-2.1158,-2.1136,-2.1375,-2.1032,-2.0896,-2.0848,-2.0566,-2.0432,-2.0428,-2.0609,-2.0654,-2.0609,-2.0609,-2.0473,-2.0249,-1.9984,-1.9667,-1.9474,-1.9476,-1.9304,-1.9164,-1.9435,-1.9478,-1.9478,-1.9478,-1.926,-1.8989,-1.8989,-1.8617,-1.8105,-1.7746,-1.7492,-1.7159,-1.65,-1.6676,-1.6777,-1.632,-1.572,-1.5201,-1.4829,-1.3662,-1.3127,-1.3912,-1.3214,-1.2453,-1.1959,-1.1482,-1.1246,-1.1335,-1.1257,-1.1279,-1.1416,-1.1176,-1.132,-1.1983,-1.1628,-1.1485,-1.1621,-1.1736,-1.1526,-1.1056,-1.1695,-1.2025,-1.2109,-1.1806,-1.1628,-1.7107,-1.8442,-2.0269,-2.1758,-2.3055,-2.4333,-2.562,-2.68,-2.7532,-2.7347,-2.7314,-2.7458,-2.8056,-2.7012,-2.6488,-2.7776,-2.7371,-2.6671,-2.6145,-2.5348,-2.4401,-2.3271,-2.2158,-2.1627,-2.2013,-2.29,-2.3678,-2.4053,-2.436,-2.4863,-2.5626,-2.5679,-2.5514,-2.5221,-2.5221,-2.5072,-2.4821,-2.4821,-2.4247,-2.3134,-2.3502,-2.2886,-2.1413,-2.1079,-2.1453,-2.231,-2.1324,-2.1333,-2.1927,-2.1542,-2.1182,-2.0883,-2.0912,-2.081,-2.0699,-2.0699,-2.0518,-2.0292,-2.0292,-2.0292,-2.0292,-2.0275,-1.9621,-1.901,-1.9977,-1.9604,-1.9039,-1.9977,-2.0257,-2.0257,-2.0257,-2.0257,-2.0257,-2.0257,-1.9634,-1.9062,-1.9018,-1.843,-1.7561,-1.6588,-1.6411,-1.6183,-1.5475,-1.4379,-1.367,-1.3898,-1.3224,-1.3101,-1.4243,-1.4118,-1.3727,-1.3186,-1.234,-1.1872,-1.2133,-1.1916,-1.1983,-1.2417,-1.2451,-1.2451,-1.2485,-1.2451,-1.2451,-1.247,-1.2485,-1.2451,-1.2436,-1.2485,-1.2653,-1.2952,-1.2157,-1.193,-2.0197,-2.1431,-2.2611,-2.4258,-2.5509,-2.6554,-2.7224,-2.8011,-2.8421,-2.7643,-2.6854,-2.6291,-2.6109,-2.4804,-2.4049,-2.5064,-2.5154,-2.4994,-2.4863,-2.4815,-2.4393,-2.3254,-2.2775,-2.2398,-2.203,-2.2233,-2.2854,-2.3971,-2.4158,-2.4739,-2.5864,-2.6006,-2.5945,-2.5523,-2.5807,-2.5555,-2.4821,-2.4821,-2.4367,-2.3468,-2.3056,-2.2594,-2.2073,-2.1835,-2.1847,-2.1979,-2.1782,-2.1909,-2.2149,-2.1808,-2.1634,-2.1567,-2.1071,-2.089,-2.079,-2.0523,-2.0382,-2.0337,-2.0518,-2.0428,-2.0292,-2.0292,-1.9629,-1.898,-2.0011,-1.9583,-1.9026,-2.0011,-2.0292,-2.0292,-2.0292,-2.0292,-2.0292,-2.0292,-2.0107,-1.9653,-1.8629,-1.8215,-1.7637,-1.6267,-1.6274,-1.6388,-1.5843,-1.508,-1.4284,-1.3734,-1.3482,-1.354,-1.3993,-1.4382,-1.4452,-1.4108,-1.3771,-1.3549,-1.3423,-1.3301,-1.3215,-1.3184,-1.317,-1.317,-1.317,-1.317,-1.3067,-1.2848,-1.306,-1.306,-1.2848,-1.306,-1.3221,-1.3331,-1.2634,-1.2465,-2.2215,-2.3384,-2.4421,-2.6179,-2.7212,-2.7891,-2.8114,-2.8458,-2.8451,-2.7183,-2.5894,-2.4842,-2.4555,-2.2556,-2.1498,-2.3127,-2.3184,-2.3271,-2.3939,-2.4136,-2.399,-2.3383,-2.2954,-2.2689,-2.2612,-2.2501,-2.288,-2.3928,-2.4403,-2.5058,-2.619,-2.6353,-2.6285,-2.5947,-2.6054,-2.5658,-2.4821,-2.4821,-2.4436,-2.3665,-2.2967,-2.2589,-2.2621,-2.2382,-2.2268,-2.2245,-2.2219,-2.2329,-2.2504,-2.231,-2.2177,-2.2091,-2.1513,-2.1199,-2.1037,-2.078,-2.0686,-2.0698,-2.0614,-2.0428,-2.0292,-2.0292,-1.9629,-1.898,-2.0011,-1.9583,-1.8934,-1.9583,-1.9774,-1.9683,-1.9309,-1.9209,-1.9209,-1.9209,-1.9209,-1.898,-1.7994,-1.7816,-1.7397,-1.6048,-1.6103,-1.6223,-1.5977,-1.579,-1.545,-1.4663,-1.4655,-1.4629,-1.4452,-1.4935,-1.517,-1.5006,-1.4779,-1.4553,-1.434,-1.3923,-1.3586,-1.3379,-1.322,-1.32,-1.32,-1.3382,-1.3448,-1.336,-1.3302,-1.323,-1.3136,-1.3004,-1.301,-1.3046,-1.2599,-1.2533,-2.3202,-2.4405,-2.5765,-2.7562,-2.8299,-2.847,-2.8289,-2.8136,-2.7674,-2.614,-2.4326,-2.3095,-2.3331,-2.0444,-1.8986,-2.1967,-2.1632,-2.165,-2.3486,-2.3425,-2.3365,-2.3761,-2.2818,-2.2586,-2.3657,-2.3652,-2.3739,-2.4149,-2.4996,-2.5856,-2.6659,-2.6664,-2.6527,-2.6302,-2.5956,-2.543,-2.4821,-2.4804,-2.4436,-2.3725,-2.3271,-2.3049,-2.3014,-2.2606,-2.2632,-2.2979,-2.2571,-2.2615,-2.2996,-2.2996,-2.2737,-2.2316,-2.2004,-2.1667,-2.1335,-2.127,-2.1309,-2.1207,-2.0453,-2.0244,-2.0226,-2.0207,-1.9479,-1.8842,-1.9936,-1.9554,-1.8742,-1.8796,-1.8788,-1.8557,-1.7576,-1.7296,-1.7296,-1.7296,-1.7296,-1.7296,-1.7296,-1.725,-1.6915,-1.5988,-1.5751,-1.5751,-1.5751,-1.6391,-1.6807,-1.6581,-1.6538,-1.6287,-1.5566,-1.5712,-1.5913,-1.5913,-1.5309,-1.4922,-1.49,-1.3864,-1.3175,-1.3154,-1.2828,-1.2627,-1.2627,-1.3127,-1.3564,-1.3908,-1.3239,-1.3047,-1.3341,-1.2438,-1.2114,-1.2305,-1.2114,-1.2114,-2.5636,-2.6738,-2.7565,-2.9065,-2.9271,-2.8983,-2.8571,-2.7441,-2.6121,-2.506,-2.2673,-2.0572,-2.013,-1.9172,-1.8817,-1.9913,-2.1268,-2.2628,-2.3905,-2.4496,-2.483,-2.4924,-2.4739,-2.4513,-2.4538,-2.4748,-2.506,-2.5386,-2.5542,-2.597,-2.6677,-2.6968,-2.6864,-2.632,-2.6214,-2.5702,-2.4821,-2.4475,-2.4344,-2.4362,-2.3974,-2.3652,-2.3373,-2.3277,-2.3028,-2.2695,-2.26,-2.2608,-2.2695,-2.2695,-2.2123,-2.1241,-2.088,-2.0768,-2.0753,-1.9638,-1.9788,-2.0353,-1.9341,-1.9265,-1.9523,-1.8872,-1.7691,-1.6911,-1.8902,-1.866,-1.7855,-1.8603,-1.8788,-1.8557,-1.7576,-1.7296,-1.7296,-1.7296,-1.7296,-1.7296,-1.7296,-1.6687,-1.6123,-1.5846,-1.5188,-1.486,-1.5412,-1.6177,-1.6821,-1.7301,-1.7201,-1.6866,-1.6218,-1.6017,-1.5913,-1.5913,-1.5506,-1.5163,-1.4922,-1.4627,-1.4352,-1.4161,-1.3418,-1.3054,-1.3205,-1.2685,-1.2486,-1.2716,-1.2566,-1.2493,-1.2567,-1.2338,-1.2268,-1.2305,-1.2268,-1.2268,-2.6781,-2.7728,-2.8411,-2.9197,-2.8993,-2.8167,-2.6826,-2.5329,-2.3795,-2.2151,-2.0159,-1.8517,-1.7995,-1.7445,-1.7449,-1.8502,-2.0163,-2.1824,-2.3288,-2.429,-2.4992,-2.5383,-2.5426,-2.542,-2.554,-2.5592,-2.5869,-2.6545,-2.6228,-2.6305,-2.7038,-2.6957,-2.6697,-2.6342,-2.6007,-2.5512,-2.4821,-2.4598,-2.4456,-2.4447,-2.4338,-2.4034,-2.3609,-2.3548,-2.3254,-2.2834,-2.2772,-2.2795,-2.2745,-2.2224,-2.165,-2.1014,-2.0163,-1.9933,-1.9953,-1.9106,-1.919,-1.9591,-1.8492,-1.8232,-1.8415,-1.8163,-1.7491,-1.7008,-1.8188,-1.8028,-1.7472,-1.7473,-1.7483,-1.725,-1.6264,-1.5988,-1.5988,-1.5988,-1.5988,-1.5988,-1.5988,-1.5561,-1.514,-1.514,-1.4675,-1.4573,-1.5412,-1.594,-1.6615,-1.7731,-1.7365,-1.6922,-1.679,-1.5997,-1.5544,-1.5762,-1.5354,-1.5094,-1.5133,-1.4736,-1.4434,-1.4348,-1.3715,-1.3254,-1.3053,-1.2792,-1.261,-1.2529,-1.2179,-1.2105,-1.2267,-1.1973,-1.1796,-1.1787,-1.1802,-1.1796,-2.7462,-2.8296,-2.8751,-2.865,-2.8106,-2.6871,-2.4306,-2.2742,-2.118,-1.8858,-1.7511,-1.6725,-1.6506,-1.5841,-1.5934,-1.7641,-1.8965,-2.0489,-2.2474,-2.358,-2.4556,-2.542,-2.558,-2.5797,-2.6499,-2.6277,-2.6471,-2.7409,-2.6852,-2.6801,-2.7546,-2.6831,-2.6434,-2.6301,-2.5548,-2.5017,-2.4821,-2.4821,-2.4595,-2.4253,-2.4525,-2.4326,-2.3778,-2.367,-2.3341,-2.2901,-2.2886,-2.2731,-2.252,-2.1477,-2.0992,-2.0735,-1.9494,-1.9056,-1.9027,-1.8914,-1.8952,-1.8864,-1.7786,-1.7252,-1.7083,-1.7637,-1.7747,-1.7683,-1.7629,-1.7577,-1.7339,-1.6177,-1.5858,-1.5614,-1.4592,-1.4298,-1.4298,-1.4298,-1.4298,-1.4346,-1.4484,-1.4484,-1.4436,-1.4346,-1.4298,-1.4627,-1.5609,-1.5798,-1.6311,-1.777,-1.7131,-1.6622,-1.7044,-1.5807,-1.5084,-1.5651,-1.5098,-1.4908,-1.5465,-1.475,-1.4296,-1.437,-1.4048,-1.3504,-1.2803,-1.3111,-1.3079,-1.2565,-1.1946,-1.1752,-1.2037,-1.1467,-1.1162,-1.1117,-1.1168,-1.1156,-2.9773,-3.0038,-2.9653,-2.9023,-2.799,-2.6503,-2.3913,-2.1244,-1.9124,-1.8402,-1.6583,-1.5132,-1.5219,-1.5745,-1.6501,-1.7415,-1.905,-2.0968,-2.3212,-2.3905,-2.4744,-2.6131,-2.6294,-2.6473,-2.6927,-2.6919,-2.7039,-2.7452,-2.7177,-2.7253,-2.7853,-2.7497,-2.6809,-2.5935,-2.5212,-2.4868,-2.4821,-2.4821,-2.4787,-2.4718,-2.4718,-2.4513,-2.4136,-2.4068,-2.3319,-2.1999,-2.1988,-2.1415,-2.0473,-2.0044,-1.9358,-1.8573,-1.8305,-1.8208,-1.8122,-1.7421,-1.7569,-1.8035,-1.6895,-1.634,-1.6125,-1.6234,-1.5969,-1.5783,-1.6813,-1.6951,-1.6702,-1.6259,-1.6131,-1.5835,-1.4641,-1.4298,-1.4298,-1.4298,-1.4298,-1.4532,-1.5378,-1.5561,-1.5283,-1.4436,-1.4298,-1.4627,-1.5609,-1.5798,-1.617,-1.7296,-1.6593,-1.5988,-1.6035,-1.5396,-1.5212,-1.6094,-1.5269,-1.5033,-1.5922,-1.5827,-1.5726,-1.5748,-1.5025,-1.4342,-1.3719,-1.2777,-1.1985,-1.1403,-1.1285,-1.1241,-1.129,-1.1184,-1.1122,-1.1111,-1.1122,-1.1122,-2.9391,-2.9337,-2.8788,-2.8026,-2.6428,-2.4437,-2.172,-1.9317,-1.7233,-1.6012,-1.4959,-1.4204,-1.418,-1.5054,-1.6047,-1.6802,-1.8143,-1.9906,-2.2175,-2.2989,-2.399,-2.5703,-2.6251,-2.6645,-2.7039,-2.7073,-2.7185,-2.7461,-2.7246,-2.7306,-2.7711,-2.6431,-2.5336,-2.4621,-2.3497,-2.3287,-2.4128,-2.3939,-2.4275,-2.5104,-2.4907,-2.4727,-2.4475,-2.3645,-2.2846,-2.2071,-2.1232,-2.0552,-1.9946,-1.9259,-1.8666,-1.8134,-1.7537,-1.7344,-1.7277,-1.6678,-1.6748,-1.7028,-1.6314,-1.5998,-1.5891,-1.5891,-1.5626,-1.5409,-1.5851,-1.5809,-1.558,-1.5295,-1.5213,-1.5084,-1.4472,-1.4298,-1.4298,-1.4298,-1.4298,-1.4436,-1.4908,-1.4997,-1.486,-1.4388,-1.4298,-1.4436,-1.4956,-1.4997,-1.5378,-1.6358,-1.5656,-1.5188,-1.5751,-1.4968,-1.4566,-1.5167,-1.4495,-1.4314,-1.4992,-1.5068,-1.5087,-1.5126,-1.4732,-1.4202,-1.3528,-1.2899,-1.219,-1.1335,-1.1291,-1.1291,-1.1291,-1.1467,-1.1423,-1.1297,-1.1435,-1.1423,-2.9109,-2.9041,-2.847,-2.7342,-2.5294,-2.2834,-1.9779,-1.7684,-1.5913,-1.4021,-1.3701,-1.37,-1.3541,-1.4316,-1.5249,-1.6132,-1.7115,-1.8546,-2.0848,-2.1942,-2.3152,-2.4915,-2.5866,-2.6516,-2.691,-2.703,-2.7185,-2.7409,-2.7246,-2.7185,-2.7401,-2.561,-2.4327,-2.3626,-2.2348,-2.2092,-2.2978,-2.2783,-2.3302,-2.4479,-2.4149,-2.4008,-2.3944,-2.268,-2.1984,-2.1698,-2.0383,-1.9722,-1.9382,-1.8508,-1.8099,-1.8043,-1.711,-1.6712,-1.6592,-1.6447,-1.6308,-1.6169,-1.5964,-1.5891,-1.5891,-1.5891,-1.5753,-1.5535,-1.527,-1.5046,-1.4817,-1.4479,-1.4389,-1.437,-1.4412,-1.4346,-1.4298,-1.4298,-1.434,-1.437,-1.431,-1.4346,-1.437,-1.431,-1.4298,-1.4298,-1.4298,-1.4298,-1.458,-1.5378,-1.4813,-1.458,-1.5378,-1.4528,-1.396,-1.4112,-1.3767,-1.3687,-1.4276,-1.4264,-1.4247,-1.4302,-1.43,-1.3992,-1.3273,-1.316,-1.2635,-1.1618,-1.1579,-1.1579,-1.1579,-1.1724,-1.1724,-1.1579,-1.173,-1.1718,-3.112,-3.1412,-3.0691,-2.8399,-2.6194,-2.3612,-1.9583,-1.7196,-1.554,-1.429,-1.3759,-1.3511,-1.3511,-1.3887,-1.4564,-1.5668,-1.6516,-1.7817,-2.0078,-2.1353,-2.2621,-2.4153,-2.5261,-2.6131,-2.6508,-2.6867,-2.7133,-2.7133,-2.7133,-2.7133,-2.7133,-2.6602,-2.5595,-2.4101,-2.3759,-2.2921,-2.1353,-2.151,-2.1568,-2.1517,-2.1487,-2.1415,-2.1415,-2.1272,-2.0637,-1.9567,-1.9425,-1.8725,-1.7674,-1.7377,-1.7222,-1.7222,-1.7114,-1.6754,-1.635,-1.6579,-1.635,-1.5922,-1.5897,-1.5891,-1.5891,-1.5891,-1.5873,-1.5807,-1.5541,-1.5445,-1.5324,-1.4817,-1.4678,-1.4667,-1.466,-1.449,-1.4298,-1.4298,-1.4491,-1.4606,-1.4352,-1.4497,-1.4606,-1.4346,-1.4298,-1.4298,-1.4298,-1.4298,-1.4346,-1.4436,-1.4346,-1.4346,-1.4436,-1.411,-1.3894,-1.3916,-1.3835,-1.4115,-1.4931,-1.4768,-1.4636,-1.4657,-1.4698,-1.4405,-1.3662,-1.3273,-1.2725,-1.1884,-1.1844,-1.1844,-1.1844,-1.1633,-1.1639,-1.1838,-1.1627,-1.1639,-2.8764,-2.858,-2.739,-2.601,-2.4172,-2.1861,-1.8655,-1.6824,-1.5411,-1.4024,-1.3613,-1.3511,-1.3511,-1.3827,-1.4393,-1.53,0.0,0.0,-1.8614,-1.9333,-2.0514,-2.2929,-2.4222,-2.5326,-2.6379,-2.6842,-2.7073,-2.7073,-2.7073,-2.7073,-2.7073,-2.6029,-2.4695,-2.3085,-2.2039,-2.1158,-2.0385,-2.0213,-2.0626,-2.1488,-2.1225,-2.1123,-2.1073,-2.0336,-1.9774,-1.9267,-1.8519,-1.7941,-1.7473,-1.737,-1.7328,-1.7328,-1.7328,-1.7098,-1.6761,-1.6718,-1.6465,-1.6121,-1.5946,-1.5891,-1.5891,-1.5891,-1.5783,-1.5608,-1.5342,-1.5264,-1.5185,-1.4823,-1.4714,-1.469,-1.468,-1.4522,-1.4377,-1.4702,-1.4624,-1.4479,-1.4533,-1.4636,-1.4684,-1.457,-1.4678,-1.4781,-1.4781,-1.4654,-1.4552,-1.4552,-1.4407,-1.4298,-1.4298,-1.4208,-1.4372,-1.498,-1.4214,-1.3685,-1.3868,-1.3796,-1.3655,-1.3519,-1.3523,-1.3416,-1.3088,-1.2939,-1.2643,-1.2161,-1.2155,-1.2155,-1.2155,-1.2012,-1.2059,-1.2155,-1.2047,-1.2059,-2.6115,-2.6224,-2.5452,-2.4524,-2.2718,-2.0518,-1.8072,-1.6345,-1.4958,-1.3759,-1.3425,-1.3382,-1.3485,-1.3733,-1.417,0.0,0.0,-1.5548,-1.7586,-1.816,-1.9247,-2.165,-2.2972,-2.4282,-2.5686,-2.6585,-2.7073,-2.7073,-2.7073,-2.6952,-2.651,-2.5359,-2.3977,-2.2379,-2.083,-1.974,-1.9214,-1.8985,-1.9395,-2.0433,-2.0153,-2.0049,-1.9991,-1.9145,-1.8752,-1.8693,-1.7889,-1.7436,-1.737,-1.7449,-1.7436,-1.737,-1.737,-1.7207,-1.6948,-1.6676,-1.641,-1.6157,-1.5958,-1.5891,-1.5879,-1.5801,-1.565,-1.5439,-1.5095,-1.4992,-1.4938,-1.4666,-1.4697,-1.4789,-1.4612,-1.4552,-1.4607,-1.4902,-1.4763,-1.4594,-1.4787,-1.4896,-1.4926,-1.4847,-1.498,-1.5107,-1.5107,-1.4956,-1.4805,-1.4733,-1.4552,-1.4389,-1.4304,-1.4298,-1.458,-1.5283,-1.4381,-1.3732,-1.3772,-1.3648,-1.3373,-1.2952,-1.2789,-1.2741,-1.2825,-1.2747,-1.2614,-1.2433,-1.2427,-1.2427,-1.2427,-1.2355,-1.2355,-1.2427,-1.2349,-1.2355,-2.3949,-2.5447,-2.6308,-2.4842,-2.2617,-2.02,-1.8,-1.5763,-1.3999,-1.3596,-1.3228,-1.312,-1.3442,-1.3511,-1.3776,-1.4564,-1.4983,0.0,-1.7299,-1.8492,-1.9453,-2.0223,-2.1693,-2.3057,-2.4145,-2.5968,-2.7073,-2.7073,-2.7073,-2.651,-2.5194,-2.4867,-2.3977,-2.2379,-2.0986,-1.9388,-1.755,-1.7804,-1.7798,-1.7543,-1.7543,-1.7537,-1.7537,-1.7537,-1.7537,-1.7537,-1.7485,-1.7334,-1.7117,-1.7376,-1.7328,-1.7092,-1.7092,-1.6936,-1.667,-1.6386,-1.6115,-1.5891,-1.5891,-1.5891,-1.5849,-1.559,-1.5499,-1.5403,-1.4877,-1.4721,-1.466,-1.4383,-1.4686,-1.498,-1.4419,-1.4692,-1.5041,-1.477,-1.4914,-1.5101,-1.5107,-1.5306,-1.5415,-1.5155,-1.5107,-1.5107,-1.5107,-1.5107,-1.5016,-1.4757,-1.4714,-1.4612,-1.4334,-1.4298,-1.4298,-1.4292,-1.4292,-1.4605,-1.5285,-1.4874,-1.4272,-1.3535,-1.3,-1.2831,-1.3065,-1.285,-1.2705,-1.2699,-1.2699,-1.2699,-1.2699,-1.2439,-1.2445,-1.2693,-1.2433,-1.2451,-1.9919,-2.0508,-2.0445,-1.9494,-1.8445,-1.7222,-1.5558,-1.4401,-1.3511,-1.2877,-1.2869,-1.3043,-1.3125,-1.3348,-1.393,-1.524,-1.554,-1.6139,-1.7646,-1.8622,-1.9641,-2.09,-2.3314,-2.5206,-2.6088,-2.6722,-2.7073,-2.7073,-2.6258,-2.557,-2.5133,-2.2937,-2.1452,-2.0932,-2.0359,-1.918,-1.7543,-1.7744,-1.7829,-1.775,-1.775,-1.775,-1.7744,-1.7563,-1.7485,-1.7485,-1.7485,-1.7334,-1.7111,-1.7376,-1.7328,-1.7092,-1.7092,-1.693,-1.6664,-1.6386,-1.6115,-1.5891,-1.5891,-1.5771,-1.5608,-1.5523,-1.5258,-1.4932,-1.4769,-1.4841,-1.4932,-1.466,-1.4824,-1.5056,-1.4871,-1.4964,-1.5172,-1.5433,-1.5306,-1.5155,-1.5336,-1.5439,-1.5475,-1.539,-1.5517,-1.5644,-1.5644,-1.5493,-1.5288,-1.5022,-1.4829,-1.4618,-1.4334,-1.4298,-1.458,-1.5235,-1.533,-1.5072,-1.4431,-1.4203,-1.3929,-1.3519,-1.335,-1.3218,-1.3083,-1.3043,-1.2904,-1.2705,-1.2705,-1.2705,-1.2705,-1.262,-1.262,-1.2699,-1.262,-1.2626,-1.6576,-1.7215,-1.7234,-1.6668,-1.6026,-1.53,-1.4319,-1.3468,-1.2754,-1.2458,-1.2586,-1.2829,-1.2975,-1.3271,-1.3922,-1.5172,-1.5497,-1.5961,-1.7081,-1.8388,-1.9882,-2.1627,-2.4016,-2.5754,-2.6371,-2.6824,-2.6882,-2.6388,-2.5509,-2.4507,-2.3518,-2.132,-1.992,-1.9385,-1.916,-1.8515,-1.7485,-1.7648,-1.7726,-1.7726,-1.7726,-1.7726,-1.772,-1.7557,-1.7485,-1.7485,-1.7485,-1.7334,0.0,-1.7376,-1.7328,-1.7092,-1.7092,-1.693,-1.6664,-1.6386,-1.6115,-1.5891,-1.5891,-1.5783,-1.5614,-1.5415,-1.4992,-1.4576,-1.4684,-1.4757,-1.4787,-1.4733,-1.4908,-1.5107,-1.5107,-1.5185,-1.5342,-1.5662,-1.5493,-1.5324,-1.559,-1.5644,-1.5644,-1.5644,-1.5777,-1.5891,-1.5891,-1.5753,-1.5559,-1.5294,-1.5034,-1.4805,-1.4624,-1.4425,-1.4575,-1.53,-1.53,-1.4927,-1.411,-1.4334,-1.4288,-1.3815,-1.3628,-1.3483,-1.3423,-1.3276,-1.3188,-1.3012,-1.3006,-1.2958,-1.2862,-1.2753,-1.2705,-1.2705,-1.2813,-1.2862,0.0,-1.5272,-1.6118,-1.5842,-1.4994,-1.4206,-1.3958,-1.278,0.0,-1.2244,-1.2302,-1.2427,-1.2871,-1.3161,-1.3639,-1.4528,-1.4968,-1.5375,-1.5937,-1.7969,-2.0212,-2.25,-2.3971,-2.4901,-2.5298,-2.6228,-2.6286,-2.5032,-2.4593,-2.3301,-2.0793,-2.0067,-1.9166,-1.7931,-1.7618,-1.7485,-1.7485,-1.7503,-1.7509,-1.7509,-1.7509,-1.7509,-1.7509,-1.7491,-1.7485,-1.7485,-1.7485,-1.7334,-1.7111,-1.7376,-1.7328,-1.7086,-1.7074,-1.6917,-1.6664,-1.6362,-1.6097,-1.5891,-1.5891,-1.5879,-1.5777,-1.5252,-1.4727,-1.4346,-1.463,-1.4533,-1.4383,-1.4666,-1.4932,-1.5131,-1.5113,-1.5318,-1.5517,-1.5481,-1.5499,-1.559,-1.5813,-1.5879,-1.5891,-1.5891,-1.5891,-1.5891,-1.5891,-1.5891,-1.5801,-1.5535,-1.5288,-1.5125,-1.5113,-1.4648,-1.4425,-1.469,-1.4467,-1.4298,-1.4298,-1.495,-1.5052,-1.4328,-1.3839,-1.367,-1.3894,-1.367,-1.3538,-1.3513,-1.3513,-1.3393,-1.3151,-1.2886,-1.2765,-1.2771,-1.3031,-1.3107,-1.1362,0.0,-1.3026,-1.2545,-1.2241,-1.2042,0.0,-1.1687,-1.143,-1.1542,-1.1439,-1.1554,-1.2258,-1.2158,-1.2504,-1.4183,-1.4698,-1.5247,-1.6239,-1.9067,-2.1814,-2.4011,-2.4473,-2.462,-2.4701,-2.4094,-2.3574,-2.3261,-2.2054,-2.1036,-2.0436,-1.9127,-1.8224,-1.7937,-1.7618,-1.7485,-1.7485,-1.7678,-1.7781,-1.7781,-1.7781,-1.7781,-1.7774,-1.7575,-1.7485,-1.7485,-1.7485,-1.7334,-1.7111,-1.7376,-1.7328,-1.7074,-1.6869,-1.6754,-1.664,-1.6157,-1.594,-1.5891,-1.5891,-1.5759,-1.5505,-1.498,-1.4576,-1.4346,-1.463,-1.4672,-1.4672,-1.4944,-1.5203,-1.536,-1.5161,-1.5451,-1.5698,-1.5294,-1.5505,-1.5759,-1.562,-1.5753,-1.5891,-1.5891,-1.5891,-1.5891,-1.5891,-1.5891,-1.5801,-1.5535,-1.5445,-1.5336,-1.5137,-1.4823,-1.4642,-1.4708,-1.4467,-1.4298,-1.4298,-1.4476,-1.4464,-1.4292,-1.4183,-1.4051,-1.3912,-1.3845,-1.3719,-1.3519,-1.3513,-1.3483,-1.3423,-1.3357,-1.3326,-1.3326,-1.3393,-1.3423,-1.047,-1.1267,-1.1974,-1.1682,-1.1702,-1.1737,-1.1499,-1.1369,-1.1268,-1.1172,-1.1169,-1.1415,-1.2156,-1.1969,-1.2218,-1.3818,-1.4355,-1.5202,-1.7081,-1.8825,-2.0757,-2.3118,-2.3446,-2.3518,-2.3672,-2.3081,-2.242,-2.1668,-2.071,-1.982,-1.9232,-1.8253,-1.7696,-1.7696,-1.7557,-1.7485,-1.7485,-1.7624,-1.7696,-1.7696,-1.7696,-1.7696,-1.769,-1.7545,-1.7485,-1.7473,-1.7358,-1.7219,-1.7092,-1.7117,-1.7038,-1.6899,-1.6754,-1.6622,-1.6471,-1.6181,-1.5994,-1.5891,-1.5891,-1.5638,-1.5276,-1.4986,-1.4624,-1.437,-1.4775,-1.4896,-1.495,-1.5215,-1.539,-1.5493,-1.5475,-1.559,-1.5668,-1.5505,-1.559,-1.5704,-1.568,-1.5789,-1.5891,-1.5891,-1.5891,-1.5891,-1.5891,-1.5891,-1.5843,-1.5698,-1.5578,-1.5493,-1.5469,-1.5028,-1.4763,-1.4883,-1.4533,-1.4298,-1.4298,-1.4298,-1.4298,-1.4298,-1.4298,-1.4232,-1.4093,-1.4087,-1.402,-1.3876,-1.3755,-1.3694,-1.3694,-1.3574,-1.3513,-1.3519,-1.364,-1.3694,-1.0493,-1.1374,-1.2132,-1.1939,-1.2203,-1.2343,-1.1752,0.0,0.0,-1.1075,-1.1151,-1.1452,-1.2165,-1.1989,-1.2164,-1.3285,-1.394,-1.5227,-1.7965,-1.823,-1.8994,-2.1328,-2.1876,-2.2084,-2.2251,-2.209,-2.1376,-2.004,-1.9681,-1.9023,-1.7816,-1.7545,-1.7424,-1.7424,-1.7424,-1.7443,-1.7485,-1.7485,-1.7485,-1.7485,-1.7485,-1.7485,-1.7485,-1.7443,-1.7443,-1.7473,-1.7207,-1.7092,-1.7074,-1.6851,-1.6736,-1.67,-1.6652,-1.6489,-1.6278,-1.6235,-1.6085,-1.5891,-1.5891,-1.5572,-1.5161,-1.5119,-1.4799,-1.4509,-1.4968,-1.5137,-1.5221,-1.5487,-1.5559,-1.5602,-1.5783,-1.5692,-1.5584,-1.5686,-1.5602,-1.5535,-1.568,-1.5771,-1.5831,-1.5831,-1.5861,-1.5891,-1.5891,-1.5891,-1.5891,-1.5891,-1.5698,-1.5638,-1.5861,-1.5276,-1.492,-1.5143,-1.4684,-1.4358,-1.4358,-1.4322,-1.4298,-1.4298,-1.4298,-1.4298,-1.4298,-1.4298,-1.4298,-1.4298,-1.4081,-1.3966,-1.3966,-1.3743,-1.3634,-1.364,-1.3863,-1.3966,-1.0891,-1.1998,-1.2696,-1.1729,-1.222,-1.2712,-1.1948,-1.1744,-1.1614,0.0,-1.0832,-1.0782,-1.1572,-1.1468,-1.1502,-1.237,-1.3516,-1.5286,-1.8057,-1.8894,-1.9754,-2.106,-2.104,-2.0761,-2.0232,-1.9236,-1.851,-1.8298,-1.804,-1.7677,-1.7225,-1.7171,-1.7153,-1.7153,-1.7153,-1.7255,-1.7479,-1.7485,-1.7485,-1.7485,-1.7485,-1.7485,-1.7473,-1.7249,-1.7274,-1.7473,-1.7207,-1.7092,-1.7086,-1.705,-1.6899,-1.6676,-1.6441,-1.632,-1.6254,-1.6036,-1.5928,-1.5891,-1.5891,-1.5692,-1.5403,-1.5179,-1.5052,-1.4998,-1.5083,-1.5264,-1.5493,-1.5759,-1.5831,-1.5789,-1.5608,-1.5692,-1.5674,-1.5046,-1.5203,-1.539,-1.4986,-1.5246,-1.5559,-1.5559,-1.5734,-1.5891,-1.5891,-1.5891,-1.5891,-1.5891,-1.5855,-1.5843,-1.5885,-1.559,-1.5396,-1.5433,-1.4968,-1.4654,-1.4654,-1.4431,-1.4298,-1.4298,-1.4298,-1.4298,-1.4298,-1.4298,-1.4298,-1.4298,-1.4256,-1.4238,-1.4238,-1.4195,-1.4177,-1.4177,-1.422,-1.4238,-1.0673,-1.1797,-1.2688,-1.219,-1.2665,-1.3158,-1.2716,-1.2028,-1.1558,-1.1851,-1.1435,-1.127,-1.1955,-1.1903,-1.2119,-1.3206,-1.4262,-1.5499,-1.7072,-1.7556,-1.8107,-1.9021,-1.9036,-1.8936,-1.8769,-1.8224,-1.7817,-1.7672,-1.7418,-1.7219,-1.7098,-1.696,-1.6881,-1.6881,-1.6881,-1.7008,-1.7267,-1.7267,-1.734,-1.7479,-1.734,-1.7267,-1.7261,-1.7002,-1.6948,-1.7044,-1.6773,-1.6652,-1.6646,-1.6501,-1.6368,-1.6247,-1.6121,-1.6066,-1.6054,-1.5934,-1.5891,-1.5891,-1.5891,-1.5716,-1.5481,-1.536,-1.5221,-1.5137,-1.5276,-1.5403,-1.5553,-1.5813,-1.5891,-1.5831,-1.5565,-1.559,-1.559,-1.5228,-1.5324,-1.5475,-1.5372,-1.5541,-1.571,-1.571,-1.5807,-1.5891,-1.5891,-1.5891,-1.5891,-1.5891,-1.5891,-1.5891,-1.5891,-1.5662,-1.5499,-1.5499,-1.5155,-1.4932,-1.4932,-1.4811,-1.4606,-1.4316,-1.4298,-1.4298,-1.4298,-1.4298,-1.4298,-1.4298,-1.4298,-1.4298,-1.4298,-1.4298,-1.4298,-1.4298,-1.4298,-1.4004,-1.0478,-1.1443,-1.2383,-1.2376,-1.29,-1.3391,-1.3388,-1.241,-1.1706,-1.2416,-1.2234,-1.2075,-1.2472,-1.2612,-1.3121,-1.4455,-1.524,-1.5891,-1.6477,-1.6616,-1.6857,-1.7418,-1.7539,-1.763,-1.7768,-1.7726,-1.7605,-1.7406,-1.7147,-1.6972,-1.6905,-1.6718,-1.661,-1.6604,-1.6604,-1.673,-1.6996,-1.6762,-1.6893,-1.7388,-1.7189,-1.7062,-1.699,-1.6724,-1.664,-1.6688,-1.6404,-1.6278,-1.6266,-1.6066,-1.5946,-1.5891,-1.5891,-1.5891,-1.5891,-1.5891,-1.5891,-1.5891,-1.5891,-1.5759,-1.5578,-1.5517,-1.5403,-1.5318,-1.5457,-1.5541,-1.5632,-1.5831,-1.5731,-1.5524,-1.5591,-1.559,-1.5572,-1.5511,-1.5499,-1.5535,-1.568,-1.5759,-1.5801,-1.5801,-1.5849,-1.5891,-1.5891,-1.5891,-1.5891,-1.5891,-1.5891,-1.5891,-1.5891,-1.5716,-1.559,-1.559,-1.5354,-1.5173,-1.5113,-1.5052,-1.4835,-1.4425,-1.4334,-1.4298,-1.4298,-1.4298,-1.4298,-1.4298,-1.4298,-1.4298,-1.4298,-1.4052,-1.395,-1.3908,-1.3661,-1.327,-1.0632,-1.1227,-1.169,-1.1744,-1.2452,-1.322,-1.3609,-1.3006,-1.2447,-1.2657,-1.2839,-1.2923,-1.2699,-1.3304,-1.4226,-1.5559,-1.6042,-1.6519,-1.7286,-1.7605,-1.769,-1.7503,-1.7696,-1.7756,-1.7533,-1.7292,-1.7141,-1.7123,-1.6875,-1.6616,-1.635,-1.6338,-1.6332,-1.6314,-1.6308,-1.6447,-1.6724,-1.5693,-1.5818,-1.7123,-1.7098,-1.6966,-1.6718,-1.6441,-1.6453,-1.6688,-1.6404,-1.6278,-1.6278,-1.626,-1.6109,-1.5891,-1.5891,-1.5891,-1.5891,-1.5891,-1.5891,-1.5891,-1.5891,-1.5879,-1.5819,-1.5578,-1.565,-1.5795,-1.5565,-1.5668,-1.5867,-1.5885,-1.5137,-1.4541,-1.5595,-1.5861,-1.5801,-1.5559,-1.5499,-1.5439,-1.5215,-1.5354,-1.5529,-1.5529,-1.5722,-1.5891,-1.5891,-1.5891,-1.5891,-1.5891,-1.5891,-1.5891,-1.5891,-1.5873,-1.5861,-1.5861,-1.5626,-1.5372,-1.5125,-1.4883,-1.4727,-1.469,-1.4443,-1.4298,-1.4298,-1.4298,-1.4298,-1.4298,-1.4298,-1.4298,-1.4298,-1.3318,-1.2829,-1.278,-1.1853,-1.1901,-1.0754,-1.1404,-1.2004,-1.2097,-1.2325,-1.2643,-1.3316,-1.3026,-1.2891,-1.376,-1.4004,-1.4081,-1.3978,-1.4063,-1.4479,-1.5481,-1.6012,-1.6513,-1.7153,-1.7467,-1.7593,-1.7497,-1.7424,-1.7346,-1.7249,-1.7002,-1.6845,-1.6845,-1.6592,-1.6392,-1.629,-1.6133,-1.6042,-1.6036,-1.6036,-1.6169,-1.6435,-1.5322,-1.5032,-1.5518,-1.4778,-1.4388,-1.4293,-1.4007,-1.4336,-1.5151,-1.505,-1.5389,-1.6036,-1.6036,-1.5976,-1.5891,-1.5891,-1.5891,-1.5891,-1.5891,-1.5891,-1.5891,-1.5891,-1.5891,-1.5873,-1.5777,-1.5807,-1.5867,-1.5771,-1.5329,-1.4869,-1.4869,-1.3997,-1.3308,-1.4342,-1.4147,-1.3874,-1.4331,-1.4556,-1.4904,-1.566,-1.5916,-1.5982,-1.5982,-1.6066,-1.6085,-1.5922,-1.5891,-1.5891,-1.5891,-1.5891,-1.5891,-1.5891,-1.5891,-1.5891,-1.5891,-1.5801,-1.5698,-1.5602,-1.5354,-1.5203,-1.5203,-1.4636,-1.4298,-1.4298,-1.4298,-1.4298,-1.4298,-1.4298,-1.4298,-1.4298,-1.3902,-1.3366,-1.2678,-1.229,-1.1658,-1.0582,-1.1055,-1.1533,-1.1608,-1.1716,-1.2013,-1.2912,-1.3048,-1.329,-1.4547,-1.4836,-1.4841,-1.4841,-1.4684,-1.4787,-1.5505,-1.5994,-1.6471,-1.7014,-1.7177,-1.7237,-1.7237,-1.708,-1.6966,-1.6966,-1.6724,-1.6567,-1.6567,-1.6314,-1.6157,-1.6157,-1.5988,-1.5891,-1.5891,-1.5891,-1.5815,-1.5662,-1.451,-1.3737,-1.3347,-1.2132,-1.1966,-1.2671,-1.2467,-1.2803,-1.3564,-1.3944,-1.4531,-1.5282,-1.5606,-1.5765,-1.5777,-1.5855,-1.5891,-1.5891,-1.5891,-1.5891,-1.5891,-1.5891,-1.5891,-1.5891,-1.5891,-1.5672,-1.5405,-1.5779,-1.5083,-1.4277,-1.4654,-1.3889,-1.3141,-1.3742,-1.3441,-1.3141,-1.3789,-1.4366,-1.5044,-1.606,-1.6278,-1.6308,-1.6398,-1.641,-1.6326,-1.606,-1.6012,-1.5982,-1.5903,-1.5891,-1.5891,-1.5891,-1.5891,-1.5891,-1.5891,-1.5891,-1.5891,-1.5891,-1.565,-1.5499,-1.5499,-1.4902,-1.4515,-1.4431,-1.4346,-1.4298,-1.4298,-1.4298,-1.4298,-1.4298,-1.3956,-1.3264,-1.2242,-1.1901,-1.0974,-1.0105,-1.0,-1.0024,-1.004,-1.0581,-1.1401,-1.2469,-1.3133,-1.3833,-1.4902,-1.5119,-1.5113,-1.5113,-1.5113,-1.5282,-1.5807,-1.6109,-1.6465,-1.7008,-1.6863,-1.67,-1.67,-1.67,-1.67,-1.67,-1.6441,-1.6278,-1.6278,-1.6036,-1.5891,-1.5891,-1.5885,-1.5885,-1.5885,-1.5885,-1.5345,-1.4218,-1.3014,-1.1814,-1.0722,-0.9478,-1.0131,-1.2354,-1.2249,-1.2149,-1.2255,-1.3372,-1.3903,-1.3955,-1.5018,-1.5499,-1.5523,-1.5783,-1.5885,-1.5891,-1.5891,-1.5891,-1.5891,-1.5891,-1.5891,-1.5891,-1.5891,-1.5137,-1.4385,-1.5565,-1.5083,-1.4439,-1.5565,-1.5083,-1.4164,-1.4164,-1.4169,-1.4223,-1.4223,-1.5089,-1.5964,-1.6229,-1.629,-1.6374,-1.6652,-1.6706,-1.6616,-1.6332,-1.6284,-1.6193,-1.5934,-1.5897,-1.5891,-1.5891,-1.5885,-1.5891,-1.5891,-1.5891,-1.5891,-1.5891,-1.565,-1.5499,-1.5499,-1.5258,-1.4992,-1.4733,-1.4455,-1.4304,-1.4298,-1.4304,-1.4304,-1.4298,-1.3221,-1.2198,-1.1175,-1.0149,-0.9612,-1.094,-1.1035,-1.1324,-1.2251,-1.3093,-1.3783,-1.4082,-1.4238,-1.4714,-1.597,-1.5928,-1.5656,-1.5656,-1.5354,-1.5282,-1.5807,-1.5958,-1.6193,-1.6742,-1.6748,-1.67,-1.67,-1.6525,-1.6404,-1.6404,-1.6163,-1.6006,-1.6006,-1.5934,-1.5891,-1.5891,-1.5716,-1.5614,-1.5614,-1.5439,-1.5182,-1.482,-1.3029,-1.1912,-1.1453,-0.9631,-0.9099,-0.9792,-0.9743,-1.013,-1.0845,-1.1935,-1.2464,-1.2625,-1.3659,-1.4648,-1.5505,-1.5584,-1.5728,-1.5891,-1.5891,-1.5891,-1.5891,-1.5891,-1.5405,-1.4869,-1.5624,-1.5137,-1.4385,-1.5565,-1.5083,-1.4277,-1.46,-1.3835,-1.2906,-1.2906,-1.3679,-1.4467,-1.4467,-1.474,-1.5352,-1.658,-1.6851,-1.6875,-1.696,-1.6827,-1.6676,-1.6592,-1.641,-1.632,-1.6441,-1.5632,-1.4898,-1.4724,-1.4708,-1.503,-1.5838,-1.5891,-1.5891,-1.5891,-1.5819,-1.5771,-1.5771,-1.5529,-1.5264,-1.5004,-1.4914,-1.4781,-1.46,-1.4775,-1.4678,-1.4298,-1.415,-1.3588,-1.2524,-1.2227,-1.1312,-1.1475,-1.1752,-1.2234,-1.3447,-1.4418,-1.5146,-1.5475,-1.5436,-1.5565,-1.6368,-1.6278,-1.6024,-1.591,-1.5547,-1.5403,-1.5819,-1.5891,-1.6036,-1.6477,-1.6447,-1.638,-1.638,-1.6229,-1.6127,-1.6127,-1.5982,-1.5849,-1.5741,-1.5734,-1.5686,-1.5584,-1.5433,-1.5342,-1.5342,-1.5191,-1.4898,-1.4434,-1.2759,-1.1656,-1.1122,-0.9414,-0.8591,-0.8537,-0.8537,-0.8849,-0.953,-1.0596,-1.162,-1.2496,-1.3206,-1.4213,-1.5354,-1.5457,-1.5656,-1.5891,-1.5891,-1.5825,-1.5753,-1.5855,-1.5394,-1.4845,-1.5642,-1.5137,-1.4385,-1.5565,-1.5083,-1.4277,-1.4761,-1.4374,-1.3792,-1.3935,-1.4549,-1.5003,-1.4658,-1.5033,-1.5725,-1.6882,-1.7092,-1.7092,-1.7092,-1.6966,-1.6827,-1.6718,-1.6561,-1.6299,-1.5914,-1.4635,-1.3829,-1.4186,-1.4223,-1.4654,-1.5785,-1.5891,-1.5891,-1.5891,-1.5891,-1.5891,-1.5891,-1.5741,-1.5374,-1.4746,-1.496,-1.5034,-1.4877,-1.5028,-1.4944,-1.4618,-1.4787,-1.4304,-1.3278,-1.3278,-1.244,-1.1667,-1.2069,-1.2711,-1.3918,-1.4965,-1.5886,-1.6606,-1.652,-1.6254,-1.6272,-1.6296,-1.6229,-1.5976,-1.571,-1.562,-1.5885,-1.5885,-1.5958,-1.6241,-1.6036,-1.5855,-1.5855,-1.5855,-1.5843,-1.5819,-1.5819,-1.5722,-1.5481,-1.5463,-1.536,-1.5119,-1.5083,-1.5071,-1.5071,-1.5046,-1.4517,-1.348,-1.2423,-1.1344,-1.019,-0.9127,-0.8491,-0.8248,-0.8316,-0.8364,-0.8452,-0.9497,-1.1148,-1.306,-1.3342,-1.4067,-1.5101,-1.536,-1.5626,-1.5855,-1.5879,-1.5722,-1.5535,-1.5801,-1.5664,-1.5437,-1.5807,-1.5137,-1.4385,-1.5565,-1.519,-1.4546,-1.5624,-1.5891,-1.5946,-1.6072,-1.5922,-1.5552,-1.474,-1.5639,-1.6686,-1.6912,-1.7011,-1.7056,-1.7056,-1.6999,-1.6927,-1.6716,-1.6662,-1.6151,-1.4662,-1.3282,-1.2822,-1.384,-1.411,-1.46,-1.5672,-1.5838,-1.5838,-1.5838,-1.5891,-1.5891,-1.5891,-1.5785,-1.5298,-1.4223,-1.4804,-1.5116,-1.499,-1.5116,-1.5155,-1.5107,-1.5029,-1.452,-1.3691,-1.3588,-1.3029,-1.1448,-1.1639,-1.2344,-1.4556,-1.6095,-1.72,-1.7822,-1.693,-1.6036,-1.6241,-1.6284,-1.6266,-1.6205,-1.5982,-1.5891,-1.6151,-1.5849,-1.5747,-1.6217,-1.5879,-1.5584,-1.5584,-1.5584,-1.5499,-1.5294,-1.5276,-1.5252,-1.5197,-1.5191,-1.5167,-1.5113,-1.4914,-1.4805,-1.4805,-1.4588,-1.437,-1.4121,-1.3176,-1.2124,-1.096,-0.9969,-0.899,-0.8092,-0.8214,-0.8653,-0.9321,-0.9565,-1.0892,-1.2807,-1.2861,-1.3649,-1.4829,-1.5089,-1.5354,-1.5608,-1.5813,-1.5722,-1.5535,-1.5801,-1.5123,-1.4367,-1.5529,-1.5137,-1.4385,-1.5565,-1.5725,-1.5565,-1.5838,-1.5891,-1.569,-1.4877,-1.4778,-1.4784,-1.4332,-1.5325,-1.6224,-1.5708,-1.6234,-1.6728,-1.6497,-1.6434,-1.6482,-1.6687,-1.6488,-1.558,-1.3482,-1.2909,-1.2652,-1.2491,-1.3236,-1.4164,-1.5089,-1.5422,-1.5589,-1.5589,-1.5791,-1.5891,-1.5891,-1.5083,-1.4433,-1.4223,-1.5193,-1.5194,-1.4093,-1.5188,-1.5517,-1.5107,-1.4418,-1.4406,-1.5046,-1.414,-1.372,-1.1612,-1.2295,-1.3484,-1.5797,-1.6512,-1.6773,-1.719,-1.6379,-1.5553,-1.5692,-1.5922,-1.6054,-1.5928,-1.5897,-1.5891,-1.5903,-1.568,-1.5553,-1.5698,-1.5481,-1.5312,-1.5312,-1.5312,-1.5258,-1.5119,-1.5107,-1.5059,-1.4932,-1.492,-1.4859,-1.4727,-1.4594,-1.4515,-1.4515,-1.4377,-1.4298,-1.4298,-1.335,-1.2562,-1.1901,-1.0393,-0.9107,-0.7992,-0.8123,-0.866,-0.9608,-0.9608,-1.0779,-1.2678,-1.2678,-1.3475,-1.4733,-1.4865,-1.5083,-1.5273,-1.4879,-1.4608,-1.439,-1.4815,-1.4277,-1.3718,-1.5199,-1.5329,-1.4906,-1.5546,-1.5789,-1.5891,-1.5891,-1.5399,-1.4719,-1.4244,-1.4063,-1.3847,-1.3333,-1.4424,-1.5626,-1.5488,-1.5972,-1.6357,-1.5937,-1.5922,-1.6009,-1.6082,-1.4997,-1.3745,-1.2567,-1.1804,-1.1436,-1.1719,-1.2797,-1.3889,-1.4874,-1.5315,-1.5482,-1.5482,-1.5737,-1.5891,-1.5891,-1.5351,-1.4487,-1.3398,-1.4482,-1.4475,-1.3166,-1.4415,-1.4957,-1.4641,-1.4761,-1.4824,-1.4836,-1.4294,-1.3768,-1.1572,-1.2981,-1.4782,-1.6533,-1.6455,-1.5988,-1.6112,-1.558,-1.5028,-1.498,-1.539,-1.5686,-1.5475,-1.5608,-1.5686,-1.5469,-1.5396,-1.5306,-1.5131,-1.5071,-1.504,-1.504,-1.504,-1.5022,-1.4974,-1.4968,-1.4877,-1.466,-1.4648,-1.4539,-1.431,-1.4298,-1.4298,-1.4298,-1.4298,-1.4298,-1.4298,-1.3414,-1.2877,-1.2684,-1.0779,-0.941,-0.8528,-0.8478,-0.8874,-0.9608,-0.9998,-1.1121,-1.2732,-1.2877,-1.3642,-1.4648,-1.4696,-1.4698,-1.463,-1.3795,-1.3241,-1.2891,-1.3376,-1.3243,-1.3052,-1.443,-1.5035,-1.5233,-1.5233,-1.5522,-1.5891,-1.5891,-1.5013,-1.4024,-1.4007,-1.3645,-1.3108,-1.2463,-1.3499,-1.4766,-1.5305,-1.5739,-1.5852,-1.5374,-1.5488,-1.5591,-1.5391,-1.3618,-1.2093,-1.189,-1.1037,-1.0672,-1.1433,-1.2743,-1.3948,-1.4874,-1.5315,-1.5482,-1.5482,-1.5577,-1.5672,-1.5891,-1.5512,-1.4422,-1.2472,-1.3181,-1.3019,-1.1819,-1.3181,-1.3894,-1.3894,-1.4643,-1.4643,-1.3894,-1.3678,-1.3181,-1.0298,-1.2211,-1.4374,-1.5065,-1.5878,-1.637,-1.5934,-1.5282,-1.4702,-1.4455,-1.4835,-1.5203,-1.5167,-1.5191,-1.5203,-1.5167,-1.4974,-1.489,-1.5083,-1.4914,-1.4769,-1.4769,-1.4769,-1.4672,-1.4431,-1.4407,-1.4389,-1.4358,-1.4352,-1.4334,-1.4298,-1.4298,-1.4298,-1.4298,-1.4298,-1.4298,-1.4298,-1.4154,-1.3613,-1.2678,-1.156,-1.0925,-1.0779,-1.0538,-1.0096,-0.9702,-1.1512,-1.2436,-1.2775,-1.3709,-1.4172,-1.4377,-1.4624,-1.417,-1.3357,-1.3474,-1.2786,-1.1862,-1.2172,-1.2043,-1.1867,-1.2331,-1.3221,-1.4118,-1.4118,-1.493,-1.5891,-1.5891,-1.5577,-1.5047,-1.404,-1.3532,-1.3202,-1.289,-1.312,-1.3491,-1.3735,-1.4543,-1.5064,-1.4775,-1.4899,-1.5116,-1.5044,-1.4188,-1.3051,-1.1768,-1.2268,-1.2526,-1.1596,-1.3398,-1.4821,-1.4982,-1.5315,-1.5482,-1.5482,-1.4821,-1.4869,-1.5838,-1.3986,-1.2743,-1.2417,-1.1601,-1.0621,-0.9372,-1.1496,-1.2635,-1.2635,-1.1814,-1.1814,-1.2635,-1.1651,-1.1601,-1.0449,-1.1234,-1.2204,-1.3134,-1.366,-1.4002,-1.4218,-1.4282,-1.4268,-1.4292,-1.4491,-1.4702,-1.4859,-1.501,-1.5059,-1.4914,-1.4793,-1.4702,-1.466,-1.4552,-1.4479,-1.4479,-1.4479,-1.4431,-1.431,-1.4298,-1.4298,-1.4298,-1.4298,-1.425,-1.407,-1.407,-1.4022,-1.3871,-1.4016,-1.407,-1.407,-1.4202,-1.3757,-1.2678,-1.215,-1.156,-1.0974,-1.1326,-1.1375,-1.1219,-1.196,-1.27,-1.3431,-1.3871,-1.416,-1.4256,-1.3788,-1.3285,-1.2746,-1.171,-1.0938,-1.0545,-1.0793,-1.0681,-1.0766,-1.2307,-1.3214,-1.3838,-1.4555,-1.5305,-1.5891,-1.5737,-1.4982,-1.411,-1.3452,-1.3019,-1.258,-1.1823,-1.2219,-1.2614,-1.2059,-1.2913,-1.3706,-1.3597,-1.3566,-1.3806,-1.4569,-1.3747,-1.274,-1.21,-1.2472,-1.258,-1.2087,-1.3782,-1.4918,-1.4778,-1.5335,-1.564,-1.5493,-1.5303,-1.5351,-1.5891,-1.4911,-1.3771,-1.2472,-1.1923,-1.0785,-0.8937,-1.0566,-1.1433,-1.1437,-1.1656,-1.1709,-1.1543,-1.1044,-1.0715,-1.0447,-1.0509,-1.0564,-1.1552,-1.1855,-1.2068,-1.2681,-1.3224,-1.3676,-1.3948,-1.4051,-1.4183,-1.4461,-1.4727,-1.4835,-1.4642,-1.4612,-1.4533,-1.4328,-1.4298,-1.4298,-1.4298,-1.4298,-1.4298,-1.4298,-1.4298,-1.4298,-1.4298,-1.4298,-1.4202,-1.4022,-1.3727,-1.3485,-1.319,-1.3141,-1.3162,-1.3298,-1.3707,-1.3404,-1.24,-1.255,-1.2159,-1.1434,-1.2091,-1.236,-1.2301,-1.2165,-1.2511,-1.319,-1.319,-1.3329,-1.3414,-1.263,-1.2145,-1.1707,-1.0194,-0.941,-0.9232,-0.9411,-0.9399,-0.9622,-1.1868,-1.2823,-1.3319,-1.4596,-1.5311,-1.5624,-1.5422,-1.4546,-1.3511,-1.3019,-1.2635,-1.2091,-1.0945,-1.1328,-1.1764,-1.0891,-1.1775,-1.2718,-1.2718,-1.2805,-1.3187,-1.4252,-1.3297,-1.2417,-1.2417,-1.2417,-1.2436,-1.2597,-1.4017,-1.4977,-1.4914,-1.5566,-1.5742,-1.5209,-1.5121,-1.5087,-1.5024,-1.4745,-1.3766,-1.2032,-1.1973,-1.1075,-0.8991,-0.9909,-1.0346,-1.0303,-1.1316,-1.1352,-1.0507,-1.0507,-1.0058,-0.9677,-1.0255,-1.0668,-1.0691,-1.1303,-1.1915,-1.1958,-1.2391,-1.285,-1.3127,-1.3381,-1.3634,-1.39,-1.4165,-1.4334,-1.4322,-1.4322,-1.4316,-1.4298,-1.4298,-1.4298,-1.4298,-1.4298,-1.4298,-1.4298,-1.4298,-1.4298,-1.4298,-1.4298,-1.4298,-1.4298,-1.3318,-1.2635,-1.2387,-1.1463,-1.1226,-1.1694,-1.2472,-1.2466,-1.1689,-1.2692,-1.3121,-1.3085,-1.3329,-1.2905,-1.2024,-1.2252,-1.2004,-1.1321,-1.1321,-1.1365,-1.1365,-1.1317,-1.0681,-0.9752,-0.9657,-0.897,-0.8091,-0.8098,-0.8244,-0.8561,-0.9778,-1.0944,-1.2106,-1.3267,-1.4294,-1.5041,-1.5035,-1.4767,-1.4272,-1.3181,-1.2635,-1.2091,-1.0945,-1.0726,-1.0781,-1.0726,-1.1605,-1.2432,-1.2432,-1.3315,-1.4142,-1.4213,-1.3197,-1.2417,-1.2417,-1.2417,-1.2593,-1.3065,-1.4238,-1.5183,-1.562,-1.5985,-1.5658,-1.4288,-1.3432,-1.2841,-1.259,-1.1596,-1.0945,-1.0781,-1.0894,-1.043,-0.9197,-0.9398,-0.9401,-0.9253,-0.9465,-0.9541,-0.9483,-0.9483,-0.9425,-0.8521,-0.875,-0.895,-0.908,-0.9605,-1.0192,-1.0543,-1.1285,-1.2029,-1.2253,-1.2837,-1.3252,-1.3387,-1.3755,-1.4099,-1.4268,-1.4298,-1.4298,-1.4298,-1.4298,-1.4298,-1.4298,-1.4298,-1.4298,-1.4298,-1.4298,-1.4226,-1.4057,-1.4201,-1.3885,-1.2855,-1.2511,-1.1891,-1.0981,-1.0659,-1.0594,-1.0841,-1.1835,-1.1835,-1.0846,-1.1932,-1.2104,-1.1547,-1.1536,-1.1042,-1.0203,-1.0293,-1.0587,-1.0925,-1.0925,-1.1023,-1.1121,-1.044,-0.9953,-0.9509,-0.8825,-0.8333,-0.7988,-0.7988,-0.7925,-0.8204,-1.0276,-1.1117,-1.1754,-1.3837,-1.4694,-1.4821,-1.3894,-1.3565,-1.3181,-1.1819,-1.1383,-1.0996,-0.9853,-0.9853,-1.0069,-0.9841,-1.1156,-1.2195,-1.1433,-1.166,-1.1937,-1.1937,-1.1601,-1.1328,-1.1328,-1.2096,-1.2709,-1.2891,-1.4394,-1.5126,-1.4308,-1.5357,-1.5223,-1.3082,-1.3331,-1.3297,-1.2427,-1.2105,-1.1564,-1.0846,-1.0964,-1.0494,-0.9357,-0.9449,-0.9452,-0.93,-0.9452,-0.9527,-0.9527,-0.9527,-0.9527,-0.7901,-0.7901,-0.7943,-0.8117,-0.8512,-0.8951,-0.9402,-1.019,-1.093,-1.1279,-1.1916,-1.2464,-1.2644,-1.3079,-1.3513,-1.396,-1.4032,-1.4032,-1.4032,-1.4032,-1.4032,-1.4032,-1.4032,-1.4032,-1.4032,-1.4032,-1.396,-1.3791,-1.3643,-1.3131,-1.2152,-1.1467,-1.0533,-0.9211,-0.9402,-0.9422,-0.9199,-1.0496,-1.0598,-0.9614,-1.0681,-1.0885,-1.0353,-1.0412,-1.0,-0.9217,-0.9316,-0.9509,-0.985,-0.985,-0.9948,-1.0047,-0.9361,-0.9069,-0.897,-0.8283,-0.7988,-0.7995,-0.7945,-0.7815,-0.8062,-1.0163,-1.0659,-1.0824,-1.2956,-1.3554,-1.3286,-1.2367,-1.2144,-1.1819,-1.0453,-0.9794,-0.9299,-0.8533,-0.9247,-1.0069,-0.9838,-1.1319,-1.2309,-1.1055,-1.116,-1.1273,-1.0781,-1.039,-1.0295,-1.0625,-1.1325,-1.1937,-1.2393,-1.3719,-1.4207,-1.3258,-1.4311,-1.4245,-1.199,-1.2701,-1.2679,-1.1475,-1.1474,-1.1203,-1.0413,-1.0524,-1.0233,-0.9527,-0.9509,-0.948,-0.9489,-0.9596,-0.968,-0.968,-0.968,-0.962,0.0,0.0,0.0,-0.7901,-0.8093,-0.8345,-0.8626,-0.9101,-0.9636,-1.0142,-1.0707,-1.1238,-1.1775,-1.2089,-1.253,-1.3326,-1.3483,-1.3501,-1.3501,-1.3513,-1.3513,-1.3513,-1.3513,-1.3513,-1.3513,-1.3513,-1.3513,-1.3507,-1.2672,-1.217,-1.225,-1.0286,-0.8559,-0.7248,-0.77,-0.7601,-0.6829,-0.8393,-0.875,-0.7985,-0.9079,-0.9635,-0.9773,-1.0258,-1.0022,-0.9167,-0.946,-0.897,-0.7988,-0.7988,-0.7988,-0.7988,-0.7988,-0.7988,-0.7988,-0.7988,-0.7988,-0.7959,-0.7845,-0.7843,-0.8049,-0.9221,-0.933,-0.9242,-1.0498,-1.0711,-1.0506,-1.0453,-1.053,-1.0343,-0.914,-0.8039,-0.721,-0.721,-0.8968,-1.0672,-1.0672,-1.2032,-1.2797,-1.1378,-1.2037,-1.2313,-1.0844,-0.9761,-0.942,-1.0437,-1.0198,-1.029,-1.1499,-1.2069,-1.2445,-1.2637,-1.2951,-1.2563,-1.1079,-1.1244,-1.0879,-0.9504,-0.9384,-0.9388,-0.9388,-0.9537,-0.968,-0.9758,-0.9457,-0.941,-0.9555,-0.9713,-0.9758,-0.9761,-0.9822,-0.9636,-0.7875,0.0,0.0,0.0,0.0,0.0,-0.8099,-0.8525,-0.8975,-0.9113,-0.9727,-1.0334,-1.0671,-1.0948,-1.1327,-1.194,-1.2686,-1.323,-1.323,-1.3393,-1.3513,-1.3513,-1.3513,-1.3513,-1.3513,-1.3513,-1.3435,-1.3248,-1.3129,-1.2444,-1.0874,-0.8955,-0.765,-0.7133,-0.7166,-0.7075,-0.6821,-0.7984,-0.8092,-0.7162,-0.8432,-0.8718,-0.8204,-0.846,-0.8474,-0.8333,-0.8432,-0.8283,-0.7988,-0.7988,-0.7988,-0.7988,-0.7988,-0.7988,-0.7988,-0.7988,-0.7892,-0.7699,-0.7688,-0.7465,-0.7455,-0.8656,-0.8886,-0.8951,-1.0096,-1.0461,-1.0346,-0.9441,-0.9291,-0.914,-0.7983,-0.7601,-0.7438,-0.7265,-0.864,-0.9959,-0.9728,-1.0929,-1.1746,-1.0941,-1.0398,-0.9614,-0.8445,-0.8213,-0.8315,-0.8663,-0.9696,-1.0527,-1.0879,-1.1921,-1.2299,-1.1446,-1.2234,-1.1974,-0.9783,-1.0358,-1.041,-0.9449,-0.9245,-0.9301,-0.9547,-0.9447,-0.9421,-0.9457,-0.9156,-0.9045,-0.9181,-0.9164,-0.9278,-0.9457,-0.97,-0.9707,0.0,0.0,-0.7901,-0.7842,0.0,0.0,-0.7768,-0.8053,-0.8387,-0.8443,-0.8944,-0.9486,-0.9745,-1.0015,-1.0334,-1.0761,-1.1441,-1.2073,-1.256,-1.271,-1.285,-1.285,-1.285,-1.285,-1.285,-1.2952,-1.2952,-1.2795,-1.263,-1.1854,-1.0161,-0.8654,-0.7779,-0.7614,-0.7076,-0.682,-0.6836,-0.7436,-0.7469,-0.6925,-0.7715,-0.7891,-0.7509,-0.7655,-0.7804,-0.7897,-0.7961,-0.7988,-0.7988,-0.7988,-0.7988,-0.7988,-0.7988,-0.7988,-0.7988,-0.7892,-0.7746,-0.7556,-0.7412,-0.7143,-0.7023,-0.7743,-0.7898,-0.7923,-0.8612,-0.8945,-0.8908,-0.8215,-0.8099,-0.8039,-0.7376,-0.7324,-0.7379,-0.721,-0.8312,-0.9357,-0.9185,-0.9783,-1.0386,-1.0171,-0.957,-0.8811,-0.7718,-0.7763,-0.8014,-0.8209,-0.9255,-1.0025,-1.0017,-1.0864,-1.1209,-1.0486,-1.1027,-1.0929,-0.9516,-0.9926,-1.001,-0.9393,-0.9407,-0.9393,-0.934,-0.9294,-0.9303,-0.9245,-0.8885,-0.8737,-0.8804,-0.8915,-0.9122,-0.9364,-0.967,-0.9778,0.0,0.0,0.0,-0.7755,-0.7868,0.0,-0.757,-0.7728,-0.7985,-0.8046,-0.8349,-0.8698,-0.8963,-0.9215,-0.948,-0.9769,-1.0009,-1.0545,-1.1679,-1.182,-1.189,-1.192,-1.188,-1.188,-1.188,-1.2131,-1.227,-1.227,-1.1621,-1.0881,-1.0024,-0.9018,-0.843,-0.8247,-0.7246,-0.6756,-0.6883,-0.6869,-0.694,-0.7095,-0.7095,-0.7221,-0.7422,-0.7529,-0.7678,-0.7821,-0.7924,-0.7988,-0.7988,-0.7992,-0.7992,-0.7988,-0.7992,-0.7939,-0.7942,-0.7643,-0.7543,-0.7463,-0.7079,-0.6898,-0.6799,-0.675,-0.6698,-0.6638,-0.6733,-0.6847,-0.695,-0.6978,-0.7122,-0.721,-0.721,-0.721,-0.721,-0.721,-0.7983,-0.8699,-0.8699,-0.8712,-0.8778,-0.904,-0.9203,-0.8974,-0.7995,-0.8081,-0.8379,-0.8565,-0.9055,-0.9351,-0.9221,-0.9499,-0.9761,-0.97,-0.97,-0.9761,-0.9761,-0.9761,-0.964,-0.9396,-0.9579,-0.9457,-0.8976,-0.9095,-0.9155,-0.9097,-0.8703,-0.8526,-0.8634,-0.8937,-0.9181,-0.9489,-0.9648,-0.97,-0.7404,-0.7884,-0.8355,-0.7971,-0.8269,0.0,-0.7676,-0.7913,-0.8195,-0.7854,-0.7928,-0.8129,-0.8393,-0.8489,-0.8704,-0.9179,-0.93,-0.9775,-1.1087,-1.1423,-1.1645,-1.1856,-1.188,-1.188,-1.188,-1.1968,-1.1999,-1.1999,-1.1368,-1.0789,-1.0418,-0.9083,-0.8243,-0.7982,-0.7038,-0.6651,-0.6883,-0.6807,-0.6878,-0.7095,-0.7095,-0.7221,-0.7422,-0.7529,-0.7678,-0.7821,-0.7924,-0.7988,-0.7988,-0.7743,-0.7793,-0.7992,-0.7743,-0.7696,-0.7643,-0.7391,-0.7141,-0.6948,-0.6874,-0.6729,-0.6629,-0.6524,-0.6508,-0.6605,-0.6478,-0.6594,-0.6733,-0.6931,-0.7122,-0.721,-0.721,-0.721,-0.721,-0.721,-0.7376,-0.754,-0.754,-0.7567,-0.7638,-0.7692,-0.7936,-0.8136,-0.8122,-0.8613,-0.9032,-0.9118,-0.9482,-0.963,-0.9297,-0.938,-0.9335,-0.9098,-0.9278,-0.9396,-0.9396,-0.9396,-0.9457,-0.97,-0.9278,-0.9095,-0.9217,-0.8793,-0.8686,-0.8955,-0.9077,-0.8998,-0.8704,-0.9233,-0.9371,-0.9181,-0.9345,-0.9278,-0.7728,-0.8037,-0.8374,-0.8184,-0.827,0.0,0.0,-0.7864,-0.8027,-0.7998,-0.7938,-0.7994,-0.8331,-0.8296,-0.8309,-0.8639,-0.8758,-0.914,-1.0051,-1.0377,-1.0653,-1.1044,-1.0972,-1.0948,-1.108,-1.125,-1.1474,-1.1742,-1.1433,-1.1241,-1.1186,-0.9598,-0.866,-0.8614,-0.7154,-0.6549,-0.6883,-0.6776,-0.6848,-0.7095,-0.7095,-0.7221,-0.7419,-0.7451,-0.7604,-0.7814,-0.7892,-0.7872,-0.7793,-0.7646,-0.7593,-0.7587,-0.7441,-0.7391,-0.7391,-0.7092,-0.6892,-0.6795,-0.6642,-0.6581,-0.6468,-0.6406,-0.6468,-0.6608,-0.6495,-0.6657,-0.6828,-0.695,-0.7122,-0.721,-0.721,-0.721,-0.721,-0.721,-0.721,-0.721,-0.721,-0.7249,-0.7296,-0.7415,-0.7707,-0.8078,-0.8391,-0.8648,-0.8893,-0.9265,-0.9339,-0.9278,-0.9095,-0.9095,-0.9095,-0.9095,-0.9217,-0.9396,-0.9518,-0.9579,-0.9579,-0.9579,-0.9468,-0.9384,-0.9192,-0.9141,-0.9082,-0.9014,-0.9149,-0.9094,-0.8905,-0.9215,-0.9218,-0.8899,-0.9008,-0.9037,-0.8083,-0.8251,-0.8393,-0.8362,-0.827,-0.8052,0.0,0.0,0.0,-0.8052,-0.7967,-0.7919,-0.8258,-0.8136,-0.7982,-0.7987,-0.8113,-0.8397,-0.8861,-0.9025,-0.935,-1.0142,-0.9991,-0.9955,-1.0268,-1.0486,-1.0826,-1.1304,-1.1345,-1.1363,-1.1449,-0.992,-0.902,-0.894,-0.7238,-0.6461,-0.6839,-0.6763,-0.6848,-0.7095,-0.7125,-0.7234,-0.7329,-0.739,-0.7529,-0.7637,-0.7691,-0.7638,-0.7505,-0.7484,-0.7294,-0.7138,-0.7138,-0.7138,-0.7089,-0.6842,-0.6742,-0.6692,-0.6487,-0.6387,-0.6387,-0.6387,-0.6468,-0.6616,-0.6592,-0.6771,-0.698,-0.6956,-0.7103,-0.721,-0.721,-0.721,-0.721,-0.721,-0.721,-0.721,-0.721,-0.7269,-0.7342,-0.75,-0.7872,-0.827,-0.857,-0.8542,-0.868,-0.9191,-0.9078,-0.8903,-0.8866,-0.8909,-0.8952,-0.9133,-0.923,-0.9396,-0.97,-0.9761,-0.971,-0.9439,-0.9734,-0.9686,-0.9271,-0.9507,-0.9513,-0.9149,-0.9183,-0.9136,-0.9073,-0.9048,-0.895,-0.8698,-0.8782,-0.8793,-0.7836,-0.8438,-0.8933,-0.8359,-0.8647,-0.8711,-0.7474,0.0,-0.7867,-0.75,0.0,-0.7565,-0.7595,0.0,0.0,-0.6882,-0.7053,-0.7317,-0.7503,-0.7542,-0.8151,-0.9763,-0.9721,-0.9751,-1.0244,-1.0107,-1.0125,-1.0419,-1.0443,-1.0248,-0.9805,-0.9133,-0.844,-0.7734,-0.6778,-0.645,-0.6722,-0.6709,-0.6848,-0.7098,-0.7278,-0.7282,-0.7132,-0.7451,-0.7379,-0.7119,-0.7321,-0.734,-0.7164,-0.6945,-0.6895,-0.6842,-0.6842,-0.6842,-0.6792,-0.6539,-0.6437,-0.6437,-0.6387,-0.6387,-0.6387,-0.6387,-0.6468,-0.66,-0.6438,-0.6703,-0.6961,-0.6855,-0.6983,-0.721,-0.721,-0.721,-0.721,-0.721,-0.721,-0.721,-0.721,-0.7334,-0.7502,-0.7516,-0.7758,-0.8036,-0.8346,-0.8662,-0.8897,-0.9016,-0.9035,-0.8952,-0.875,-0.8854,-0.8907,-0.859,-0.9041,-0.9335,-0.9335,-0.964,-0.9818,-0.9891,-0.9732,-0.9672,-0.9729,-0.9497,-0.9306,-0.9291,-0.9346,-0.9216,-0.8892,-0.8843,-0.8736,-0.8631,-0.8494,-0.8305,-0.8363,-0.8627,-0.8797,-0.877,-0.8711,-0.8506,-0.8016,-0.7594,-0.7341,-0.7448,0.0,0.0,0.0,0.0,0.0,0.0,-0.6374,-0.6568,-0.6715,-0.6692,-0.7182,-0.8584,-0.8763,-0.8962,-0.9385,-0.9344,-0.9256,-0.922,-0.9259,-0.9108,-0.8648,-0.8116,-0.7748,-0.7518,-0.6721,-0.6439,-0.6698,-0.6702,-0.6807,-0.6977,-0.7258,-0.7334,-0.7171,-0.7217,-0.72,-0.7061,-0.7051,-0.6966,-0.6854,-0.684,-0.6692,-0.6589,-0.6589,-0.6589,-0.6539,-0.6437,-0.6387,-0.6387,-0.6387,-0.6387,-0.6387,-0.6387,-0.6468,-0.6597,-0.6422,-0.6695,-0.6959,-0.6836,-0.6972,-0.721,-0.721,-0.721,-0.7229,-0.7241,-0.7258,-0.7279,-0.735,-0.7502,-0.7625,-0.7625,-0.7758,-0.7933,-0.8058,-0.8241,-0.8381,-0.8626,-0.8573,-0.8511,-0.8623,-0.8711,-0.8804,-0.9115,-0.9314,-0.949,-0.9585,-0.9923,-1.0076,-0.9987,-1.0086,-1.0182,-1.0329,-0.9929,-0.9819,-1.0012,-0.9346,-0.9015,-0.9144,-0.8642,-0.8525,-0.8721,-0.8409,-0.8143,-0.8527,-0.8479,-0.8382,-0.8407,-0.8105,-0.7756,-0.7741,-0.7131,-0.6638,-0.6998,-0.6398,0.0,0.0,0.0,-0.5817,-0.56,0.0,-0.5954,-0.5965,-0.6016,-0.6407,-0.7406,-0.7793,-0.8016,-0.8184,-0.8182,-0.8135,-0.8033,-0.8046,-0.7894,-0.7522,-0.7168,-0.6981,-0.7025,-0.6516,-0.6359,-0.6698,-0.6702,-0.6778,-0.6923,-0.7182,-0.7198,-0.701,-0.6961,-0.6864,-0.6821,-0.6717,-0.6626,-0.6563,-0.664,-0.6562,-0.6387,-0.6387,-0.6387,-0.6387,-0.6387,-0.6387,-0.6387,-0.6387,-0.6387,-0.6387,-0.6387,-0.6468,-0.6603,-0.6462,-0.6719,-0.6967,-0.6877,-0.6997,-0.721,-0.721,-0.721,-0.724,-0.7307,-0.728,-0.7312,-0.7491,-0.7614,-0.7701,-0.7701,-0.7793,-0.7872,-0.7872,-0.7872,-0.8005,-0.8292,-0.8276,-0.8366,-0.8652,-0.8844,-0.9097,-0.9671,-0.9764,-0.982,-0.9958,-1.0151,-1.0249,-1.0112,-1.0283,-1.0474,-1.0714,-1.0221,-1.01,-1.0424,-0.9478,-0.9107,-0.9429,-0.8814,-0.8752,-0.9039,-0.8554,-0.8339,-0.7912,-0.7935,-0.7787,-0.673,-0.6567,-0.6484,-0.5932,-0.5848,-0.5884,-0.5779,-0.5735,-0.568,-0.5558,-0.5665,0.0,0.0,0.0,0.0,0.0,-0.5406,-0.5862,-0.6549,-0.6866,-0.6939,-0.6697,-0.6678,-0.676,-0.7032,-0.6808,-0.6556,-0.627,-0.6363,-0.6252,-0.5878,-0.5959,-0.6251,-0.6698,-0.6702,-0.6794,-0.6998,-0.7008,-0.6871,-0.6642,-0.6685,-0.6482,-0.6153,-0.6275,-0.6261,-0.615,-0.6273,-0.6339,-0.6387,-0.6387,-0.6387,-0.6387,-0.6387,-0.6387,-0.6387,-0.6387,-0.6387,-0.6387,-0.6387,-0.6468,-0.6619,-0.6616,-0.6787,-0.6983,-0.698,-0.7119,-0.721,-0.721,-0.721,-0.724,-0.7307,-0.728,-0.7312,-0.7491,-0.7614,-0.7701,-0.7701,-0.7793,-0.7872,-0.7872,-0.7872,-0.7974,-0.8092,-0.8465,-0.8785,-0.8909,-0.9506,-0.9961,-0.9961,-1.0162,-1.027,-1.0266,-1.0276,-1.0337,-1.047,-1.0297,-1.0386,-1.0721,-1.0054,-0.9854,-1.0183,-0.9851,-0.9649,-0.9715,-0.9514,-0.952,-0.9643,-0.9051,-0.893,-0.7115,-0.7035,-0.6912,-0.6755,-0.6585,-0.644,-0.6313,-0.5894,-0.5485,-0.5395,-0.4988,-0.4575,-0.4406,-0.4507,0.0,0.0,0.0,0.0,0.0,-0.4535,-0.4619,-0.4839,-0.5474,-0.5992,-0.6317,-0.634,-0.6202,-0.5901,-0.5914,-0.5686,-0.5098,-0.5485,-0.5612,-0.5332,-0.5752,-0.6123,-0.635,-0.6407,-0.6535,-0.6724,-0.6779,-0.6639,-0.6414,-0.6414,-0.625,-0.5986,-0.6111,-0.6142,-0.6102,-0.6298,-0.6401,-0.6387,-0.6387,-0.6387,-0.6387,-0.6387,-0.6387,-0.6387,-0.6387,-0.6387,-0.64,-0.6478,-0.6641,-0.6741,-0.6741,-0.6907,-0.7136,-0.7008,-0.7122,-0.721,-0.721,-0.721,-0.724,-0.7307,-0.7339,-0.7491,-0.7614,-0.7731,-0.7812,-0.7812,-0.7845,-0.7994,-0.8183,-0.8244,-0.8287,-0.8409,-0.8661,-0.8983,-0.9568,-0.9583,-0.9714,-0.9974,-0.9806,-0.9674,-0.958,-0.9912,-1.0224,-1.0633,-1.0561,-1.0588,-1.0721,-1.0259,-1.019,-1.0522,-0.9994,-0.9794,-1.006,-0.9477,-0.941,-0.9661,-0.9231,-0.9055,-0.6378,-0.6168,-0.6064,-0.598,-0.5836,-0.5739,-0.5789,-0.5389,-0.4986,-0.4886,-0.4505,-0.4153,-0.4044,-0.4088,0.0,0.0,0.0,0.0,0.0,-0.4052,-0.3996,-0.3996,-0.4546,-0.5066,-0.5449,-0.5555,-0.5445,-0.5034,-0.5138,-0.503,-0.4597,-0.4985,-0.5219,-0.5155,-0.5604,-0.5894,-0.6074,-0.6176,-0.6256,-0.644,-0.6532,-0.6437,-0.625,-0.625,-0.6157,-0.5972,-0.6051,-0.6111,-0.6162,-0.6314,-0.6399,-0.6387,-0.6387,-0.6387,-0.6387,-0.6387,-0.6387,-0.6387,-0.6387,-0.6387,-0.6406,-0.6581,-0.6673,-0.6747,-0.679,-0.694,-0.7125,-0.7058,-0.7196,-0.7368,-0.7378,-0.7487,-0.7578,-0.7601,-0.7659,-0.7727,-0.7793,-0.7818,-0.7823,-0.7861,-0.7994,-0.8119,-0.8369,-0.8491,-0.8594,-0.878,-0.8913,-0.9175,-0.9763,-0.9627,-0.9595,-0.9855,-0.9661,-0.9493,-0.9531,-0.9996,-1.0353,-1.0648,-1.0588,-1.0588,-1.0721,-1.0389,-1.0349,-1.0602,-1.0152,-0.9949,-1.0063,-0.9543,-0.9455,-0.9661,-0.9319,-0.9117]},{"header":{"parameterUnit":"m.s-1","parameterCategory":1,"la1":30.6,"la2":29.2853,"lo1":-89.7004,"lo2":-87.6739,"dy":0.0162,"dx":0.0183,"nx":112,"ny":82,"refTime":"2023-09-18T12:00:00:Z","depth":0,"parameterNumber":3,"parameterNumberName":"V-component_of_WINDS"},"data":[0.0,0.0,0.0,0.0,0.0,0.0,0.0,0.0,0.0,0.0,0.0,0.0,0.0,0.0,0.0,0.0,0.0,0.0,0.0,0.0,0.0,0.0,0.0,0.0,0.0,0.0,0.0,0.0,0.0,0.0,0.0,0.0,0.0,0.0,0.0,0.0,0.0,0.0,0.0,0.0,0.0,0.0,0.0,0.0,0.0,0.0,0.0,0.0,0.0,0.0,0.0,0.0,0.0,0.0,0.0,0.0,0.0,0.0,0.0,0.0,0.0,0.0,0.0,0.0,0.0,0.0,0.0,0.0,0.0,0.0,0.0,0.0,0.0,0.0,0.0,0.0,0.0,0.0,0.0,0.0,0.0,0.0,0.0,0.0,0.0,0.0,0.0,0.0,0.0,0.0,2.0097,2.173,2.4644,2.6125,2.526,2.5202,2.4617,2.3192,0.0,0.0,0.0,0.0,0.0,0.0,0.0,0.0,0.0,0.0,0.0,0.0,0.0,0.0,0.0,0.0,0.0,0.0,0.0,0.0,0.0,0.0,0.0,0.0,0.0,0.0,0.0,0.0,0.0,0.0,0.0,0.0,0.0,0.0,0.0,0.0,0.0,0.0,0.0,0.0,0.0,0.0,0.0,0.0,0.0,0.0,0.0,0.0,0.0,0.0,0.0,0.0,0.0,0.0,0.0,0.0,0.0,0.0,0.0,0.0,0.0,0.0,0.0,0.0,0.0,0.0,0.0,0.0,0.0,0.0,0.0,0.0,0.0,0.0,0.0,0.0,0.0,0.0,0.0,0.0,0.0,0.0,0.0,0.0,0.0,0.0,0.0,0.0,0.0,0.0,0.0,0.0,0.0,0.0,0.0,0.0,0.0,0.0,0.0,0.0,0.0,0.0,0.0,0.0,2.1633,2.3134,2.5126,2.627,2.613,2.5042,2.4277,2.4022,0.0,0.0,0.0,0.0,0.0,0.0,0.0,0.0,0.0,0.0,0.0,0.0,0.0,0.0,0.0,0.0,0.0,0.0,0.0,0.0,0.0,0.0,0.0,0.0,0.0,0.0,0.0,0.0,0.0,0.0,0.0,0.0,0.0,0.0,0.0,0.0,0.0,0.0,0.0,0.0,0.0,0.0,0.0,0.0,0.0,0.0,0.0,0.0,0.0,0.0,0.0,0.0,0.0,0.0,0.0,0.0,0.0,0.0,0.0,0.0,0.0,0.0,0.0,0.0,0.0,0.0,0.0,0.0,0.0,0.0,0.0,0.0,0.0,0.0,0.0,0.0,0.0,0.0,0.0,0.0,0.0,0.0,0.0,0.0,0.0,0.0,0.0,0.0,0.0,0.0,0.0,0.0,0.0,0.0,0.0,0.0,0.0,0.0,0.0,0.0,0.0,0.0,0.0,2.2111,2.2525,2.4097,2.5474,2.6282,2.6242,2.4961,2.4348,2.4826,2.2496,0.0,0.0,0.0,0.0,0.0,0.0,0.0,0.0,0.0,0.0,0.0,0.0,0.0,0.0,0.0,0.0,0.0,0.0,0.0,0.0,0.0,0.0,0.0,0.0,0.0,0.0,0.0,0.0,0.0,0.0,0.0,0.0,0.0,0.0,0.0,0.0,0.0,0.0,0.0,0.0,0.0,0.0,0.0,0.0,0.0,0.0,0.0,0.0,0.0,0.0,0.0,0.0,0.0,0.0,0.0,0.0,0.0,0.0,0.0,0.0,0.0,0.0,0.0,0.0,0.0,0.0,0.0,0.0,0.0,0.0,0.0,0.0,0.0,0.0,0.0,0.0,0.0,0.0,0.0,0.0,0.0,0.0,0.0,0.0,0.0,0.0,0.0,0.0,0.0,0.0,0.0,0.0,0.0,0.0,0.0,0.0,0.0,0.0,0.0,0.0,0.0,0.0,2.297,2.2955,2.4615,2.5463,2.5937,2.597,2.4644,2.4186,2.5069,2.2407,0.0,0.0,0.0,0.0,0.0,0.0,0.0,0.0,0.0,0.0,0.0,0.0,0.0,0.0,0.0,0.0,0.0,0.0,0.0,0.0,0.0,0.0,0.0,0.0,0.0,0.0,0.0,0.0,0.0,0.0,0.0,0.0,0.0,0.0,0.0,0.0,0.0,0.0,0.0,0.0,0.0,0.0,0.0,0.0,0.0,0.0,0.0,0.0,0.0,0.0,0.0,0.0,0.0,0.0,0.0,0.0,0.0,0.0,0.0,0.0,0.0,0.0,0.0,0.0,0.0,0.0,0.0,0.0,0.0,0.0,0.0,0.0,0.0,0.0,0.0,0.0,0.0,0.0,0.0,0.0,0.0,0.0,0.0,0.0,0.0,0.0,0.0,0.0,0.0,0.0,0.0,0.0,0.0,0.0,0.0,0.0,0.0,0.0,0.0,0.0,0.0,0.0,2.2715,2.2807,2.4601,2.4805,2.4936,2.5235,2.3869,2.3363,2.4238,2.2669,0.0,0.0,0.0,0.0,0.0,0.0,0.0,0.0,0.0,0.0,0.0,0.0,0.0,0.0,0.0,0.0,0.0,0.0,0.0,0.0,0.0,0.0,0.0,0.0,0.0,0.0,0.0,0.0,0.0,0.0,0.0,0.0,0.0,0.0,0.0,0.0,0.0,0.0,0.0,0.0,0.0,0.0,0.0,0.0,0.0,0.0,0.0,0.0,0.0,0.0,0.0,0.0,0.0,0.0,0.0,0.0,0.0,0.0,0.0,0.0,0.0,0.0,0.0,0.0,0.0,0.0,0.0,0.0,0.0,0.0,0.0,0.0,0.0,0.0,0.0,0.0,0.0,0.0,0.0,0.0,0.0,0.0,0.0,0.0,0.0,0.0,0.0,0.0,0.0,0.0,0.0,0.0,0.0,0.0,0.0,0.0,0.0,0.0,0.0,0.0,0.0,0.0,2.3439,2.3294,2.4599,2.4712,2.4627,2.446,2.3496,2.3295,2.4208,0.0,0.0,0.0,0.0,0.0,0.0,0.0,0.0,0.0,0.0,0.0,0.0,0.0,0.0,0.0,0.0,0.0,0.0,0.0,0.0,0.0,0.0,0.0,0.0,0.0,0.0,0.0,0.0,0.0,0.0,0.0,0.0,0.0,0.0,0.0,0.0,0.0,0.0,0.0,0.0,0.0,0.0,0.0,0.0,0.0,0.0,0.0,0.0,0.0,0.0,0.0,0.0,0.0,0.0,0.0,0.0,0.0,0.0,0.0,0.0,0.0,0.0,0.0,0.0,0.0,0.0,0.0,0.0,0.0,0.0,0.0,0.0,0.0,0.0,0.0,0.0,0.0,0.0,0.0,0.0,0.0,0.0,0.0,0.0,0.0,0.0,0.0,0.0,0.0,0.0,0.0,0.0,0.0,0.0,0.0,0.0,0.0,0.0,0.0,0.0,0.0,0.0,2.4699,2.3617,2.3256,2.4561,2.4697,2.4494,2.4,2.3311,2.3285,2.4219,0.0,0.0,0.0,0.0,0.0,0.0,0.0,0.0,0.0,0.0,0.0,0.0,0.0,0.0,0.0,0.0,0.0,0.0,0.0,0.0,0.0,0.0,0.0,0.0,0.0,0.0,0.0,0.0,0.0,0.0,0.0,0.0,0.0,0.0,0.0,0.0,0.0,0.0,0.0,0.0,0.0,0.0,0.0,0.0,0.0,0.0,0.0,0.0,0.0,0.0,0.0,0.0,0.0,0.0,0.0,0.0,0.0,0.0,0.0,0.0,0.0,0.0,0.0,0.0,0.0,0.0,0.0,0.0,0.0,0.0,0.0,0.0,0.0,0.0,0.0,0.0,0.0,0.0,0.0,0.0,0.0,0.0,0.0,0.0,0.0,0.0,0.0,0.0,0.0,0.0,0.0,0.0,0.0,0.0,0.0,0.0,0.0,0.0,0.0,0.0,0.0,0.0,2.4512,2.3004,2.2539,2.4497,2.4697,2.448,2.3935,2.3277,2.3272,0.0,0.0,0.0,0.0,0.0,0.0,0.0,0.0,0.0,0.0,0.0,0.0,0.0,0.0,0.0,0.0,0.0,0.0,0.0,0.0,0.0,0.0,0.0,0.0,0.0,0.0,0.0,0.0,0.0,0.0,0.0,0.0,0.0,0.0,0.0,0.0,0.0,0.0,0.0,0.0,0.0,0.0,0.0,0.0,0.0,0.0,0.0,0.0,0.0,0.0,0.0,0.0,0.0,0.0,0.0,0.0,0.0,0.0,0.0,0.0,0.0,0.0,0.0,0.0,0.0,0.0,0.0,0.0,0.0,0.0,0.0,0.0,0.0,0.0,0.0,0.0,0.0,0.0,0.0,0.0,0.0,0.0,0.0,0.0,0.0,0.0,0.0,0.0,0.0,0.0,0.0,0.0,0.0,0.0,0.0,0.0,0.0,0.0,0.0,0.0,0.0,0.0,0.0,2.4573,2.3031,2.2541,2.4485,2.47,2.426,2.3153,2.2928,2.2985,2.3334,0.0,0.0,0.0,0.0,0.0,0.0,0.0,0.0,0.0,0.0,0.0,0.0,0.0,0.0,0.0,0.0,0.0,0.0,0.0,0.0,0.0,0.0,0.0,0.0,0.0,0.0,0.0,0.0,0.0,0.0,0.0,0.0,0.0,0.0,0.0,0.0,0.0,0.0,0.0,0.0,0.0,0.0,0.0,0.0,0.0,0.0,0.0,0.0,0.0,0.0,0.0,0.0,0.0,0.0,0.0,0.0,0.0,0.0,0.0,0.0,0.0,0.0,0.0,0.0,0.0,0.0,0.0,0.0,0.0,0.0,0.0,0.0,0.0,0.0,0.0,0.0,0.0,0.0,0.0,0.0,0.0,0.0,0.0,0.0,0.0,0.0,0.0,0.0,0.0,0.0,0.0,0.0,0.0,0.0,0.0,0.0,0.0,0.0,0.0,0.0,0.0,0.0,2.4489,2.2983,2.251,2.4375,2.4369,2.38,2.2713,2.2436,2.2375,2.2467,0.0,0.0,0.0,0.0,0.0,0.0,0.0,0.0,0.0,0.0,0.0,0.0,0.0,0.0,0.0,0.0,0.0,0.0,0.0,0.0,0.0,0.0,0.0,0.0,0.0,0.0,0.0,0.0,0.0,0.0,0.0,0.0,0.0,0.0,0.0,0.0,0.0,0.0,0.0,0.0,0.0,0.0,0.0,0.0,0.0,0.0,0.0,0.0,0.0,0.0,0.0,0.0,0.0,0.0,0.0,0.0,0.0,0.0,0.0,0.0,0.0,0.0,0.0,0.0,0.0,0.0,0.0,0.0,0.0,0.0,0.0,0.0,0.0,0.0,0.0,0.0,0.0,0.0,0.0,0.0,0.0,0.0,0.0,0.0,0.0,0.0,0.0,0.0,0.0,0.0,0.0,0.0,0.0,0.0,0.0,0.0,0.0,0.0,0.0,0.0,0.0,0.0,2.4332,2.2979,2.2561,2.4258,2.3945,2.3321,2.2597,2.203,2.1717,2.1694,0.0,0.0,0.0,0.0,0.0,0.0,0.0,0.0,0.0,0.0,0.0,0.0,0.0,0.0,0.0,0.0,0.0,0.0,0.0,0.0,0.0,0.0,0.0,0.0,0.0,0.0,0.0,0.0,0.0,0.0,0.0,0.0,0.0,0.0,0.0,0.0,0.0,0.0,0.0,0.0,0.0,0.0,0.0,0.0,0.0,0.0,0.0,0.0,0.0,0.0,0.0,0.0,0.0,0.0,0.0,0.0,0.0,0.0,0.0,0.0,2.6082,2.5531,0.0,0.0,0.0,0.0,0.0,0.0,0.0,0.0,0.0,0.0,0.0,0.0,0.0,0.0,0.0,0.0,0.0,0.0,0.0,0.0,0.0,0.0,0.0,0.0,0.0,0.0,0.0,0.0,0.0,0.0,0.0,0.0,0.0,0.0,0.0,0.0,0.0,0.0,0.0,0.0,2.4399,2.347,2.3232,2.4492,2.4569,2.403,2.2834,2.263,2.2285,2.1655,2.1855,0.0,0.0,0.0,0.0,0.0,0.0,0.0,0.0,0.0,0.0,0.0,0.0,0.0,0.0,0.0,0.0,0.0,0.0,0.0,0.0,0.0,0.0,0.0,0.0,0.0,0.0,0.0,0.0,0.0,0.0,0.0,0.0,0.0,0.0,0.0,0.0,0.0,0.0,0.0,0.0,0.0,0.0,0.0,0.0,0.0,0.0,0.0,0.0,0.0,0.0,0.0,0.0,0.0,0.0,0.0,0.0,0.0,0.0,0.0,2.7679,2.6365,0.0,0.0,0.0,0.0,0.0,0.0,0.0,0.0,0.0,0.0,0.0,0.0,0.0,0.0,0.0,0.0,0.0,0.0,0.0,0.0,0.0,0.0,0.0,0.0,0.0,0.0,0.0,0.0,0.0,0.0,0.0,0.0,0.0,0.0,0.0,0.0,0.0,0.0,0.0,0.0,2.4286,2.3556,2.3363,2.4358,2.4236,2.3674,2.2658,2.2645,2.2203,2.1043,2.1797,0.0,0.0,0.0,0.0,0.0,0.0,0.0,0.0,0.0,0.0,0.0,0.0,0.0,0.0,0.0,0.0,0.0,0.0,0.0,0.0,0.0,0.0,0.0,0.0,0.0,0.0,0.0,0.0,0.0,0.0,0.0,0.0,0.0,0.0,0.0,0.0,0.0,0.0,0.0,0.0,0.0,0.0,0.0,0.0,0.0,0.0,0.0,0.0,0.0,0.0,0.0,0.0,0.0,3.4055,3.4914,3.5427,3.5444,3.5634,3.5686,3.0531,2.8549,2.8854,2.7692,0.0,0.0,0.0,0.0,0.0,0.0,0.0,0.0,0.0,0.0,0.0,0.0,0.0,0.0,0.0,0.0,0.0,0.0,0.0,0.0,0.0,0.0,2.7453,2.8152,2.8338,2.7981,2.6633,0.0,0.0,0.0,0.0,0.0,0.0,0.0,0.0,0.0,0.0,0.0,2.4165,2.363,2.3483,2.4174,2.383,2.33,2.2627,2.2614,2.2034,2.0604,2.1727,2.2242,0.0,0.0,0.0,0.0,0.0,0.0,0.0,0.0,0.0,0.0,0.0,0.0,0.0,0.0,0.0,0.0,0.0,0.0,0.0,0.0,0.0,0.0,0.0,0.0,0.0,0.0,0.0,0.0,0.0,0.0,0.0,0.0,2.6117,2.6012,0.0,0.0,0.0,0.0,0.0,0.0,0.0,0.0,0.0,0.0,0.0,0.0,0.0,3.2202,3.3894,3.5094,3.5429,3.4933,3.6759,3.7307,3.6735,3.622,3.6824,3.8146,3.5966,0.0,3.2099,2.9815,0.0,0.0,0.0,0.0,0.0,0.0,0.0,0.0,0.0,0.0,0.0,0.0,0.0,0.0,0.0,0.0,0.0,0.0,0.0,0.0,0.0,0.0,2.9998,2.9988,3.0079,3.0076,2.9733,2.8081,2.6595,2.6485,2.5928,2.5457,0.0,0.0,0.0,0.0,0.0,0.0,2.4238,2.4108,2.4146,2.4425,2.4545,2.4322,2.3655,2.3097,2.2361,2.1401,2.0905,2.0946,2.1593,2.2507,0.0,0.0,0.0,0.0,0.0,0.0,0.0,0.0,0.0,0.0,0.0,0.0,0.0,0.0,0.0,0.0,0.0,0.0,0.0,0.0,0.0,0.0,0.0,0.0,0.0,0.0,0.0,0.0,0.0,2.665,2.7285,2.6736,2.756,2.7768,0.0,0.0,0.0,0.0,0.0,0.0,0.0,0.0,0.0,3.3579,3.3728,3.4574,3.6267,3.7239,3.8014,3.8575,4.0021,4.0775,4.0868,4.0669,4.1092,4.1893,4.0707,3.9351,3.7728,3.4112,3.2101,3.1152,0.0,0.0,0.0,0.0,3.0463,3.0917,3.2,3.2053,3.1666,3.1739,0.0,0.0,0.0,0.0,0.0,0.0,0.0,3.0527,3.0458,3.1303,3.2252,3.2482,3.2327,3.2225,3.255,3.0774,2.8899,2.8109,2.7643,2.7066,2.6044,2.5516,0.0,0.0,0.0,2.4572,2.4238,2.4266,2.4356,2.4486,2.4678,2.4527,2.3856,2.3984,2.3559,2.2308,2.2363,2.2393,2.2327,2.3206,2.3879,0.0,0.0,0.0,0.0,0.0,0.0,0.0,0.0,0.0,0.0,0.0,0.0,0.0,0.0,0.0,0.0,0.0,0.0,0.0,0.0,0.0,0.0,0.0,0.0,0.0,0.0,0.0,0.0,2.7456,2.8362,2.7508,2.9252,2.9831,0.0,0.0,0.0,0.0,0.0,0.0,3.2945,3.3963,3.5314,3.714,3.7151,3.7945,3.9629,3.9845,4.055,4.1807,4.2456,4.3081,4.3689,4.3909,4.4106,4.4261,4.3657,4.3038,4.216,3.781,3.5346,3.4156,3.3077,3.2416,3.2225,3.3403,3.3909,3.4275,3.6065,3.6214,3.5501,3.4616,3.3637,3.2269,2.9454,0.0,0.0,0.0,0.0,3.2355,3.2751,3.3419,3.4147,3.4771,3.4405,3.407,3.4562,3.3241,3.1437,2.9771,2.9117,2.8391,2.7023,2.616,0.0,2.5142,2.5201,2.5184,2.494,2.5013,2.5025,2.487,2.5051,2.4876,2.4168,2.4549,2.4339,2.3197,2.3528,2.3506,2.2901,2.3727,2.4212,2.4248,0.0,0.0,0.0,0.0,0.0,0.0,0.0,0.0,0.0,0.0,0.0,0.0,0.0,0.0,0.0,0.0,0.0,0.0,0.0,0.0,0.0,0.0,0.0,0.0,0.0,0.0,0.0,0.0,0.0,2.8343,3.0956,0.0,0.0,0.0,0.0,3.3263,3.4765,3.6109,3.7147,3.8681,4.0399,4.2277,4.2758,4.3789,4.5459,4.419,4.3584,4.3656,4.3192,4.2996,4.3051,4.351,4.3728,4.3726,4.3828,4.3835,4.3512,3.9645,3.8016,3.7772,3.613,3.5972,3.6622,3.6264,3.6413,3.6746,3.6445,3.6207,3.6308,3.7745,3.7109,3.5601,3.4594,3.3694,0.0,0.0,3.281,3.4086,3.4088,3.4714,3.5516,3.6385,3.5962,3.5408,3.5433,3.4748,3.3459,3.1154,2.9411,2.8293,2.8127,0.0,2.6935,2.673,2.6805,2.6869,2.6767,2.6869,2.6667,2.5906,2.6,2.5816,2.5019,2.4391,2.4048,2.4048,2.3297,2.2855,2.2806,2.3694,2.4169,2.4118,2.5095,0.0,0.0,0.0,0.0,0.0,0.0,0.0,0.0,0.0,0.0,0.0,0.0,0.0,0.0,0.0,0.0,0.0,0.0,0.0,0.0,0.0,0.0,0.0,0.0,0.0,0.0,0.0,0.0,3.2693,3.5979,0.0,3.5031,3.538,3.6179,3.7253,3.7703,3.881,4.0885,4.1668,4.2699,4.407,4.4282,4.4579,4.5057,4.4035,4.3552,4.3534,4.2871,4.2554,4.2554,4.2711,4.2884,4.3069,4.323,4.3318,4.3225,4.1993,4.1048,4.0264,3.9117,3.8525,3.8402,3.8746,3.9339,3.9941,3.9771,3.9801,3.9647,3.8048,3.5888,3.3917,3.4172,3.4037,3.3959,3.4668,3.5696,3.6677,3.7071,3.7341,3.7566,3.7694,3.6822,3.5923,3.5799,3.4895,3.3821,3.2809,3.1489,3.0338,2.9662,2.8546,2.7651,2.7361,2.7086,2.6907,2.679,2.7036,2.6895,2.6053,2.6215,2.604,2.5193,2.4952,2.485,2.4865,2.4572,2.4404,2.4404,2.4725,2.4915,2.4945,2.529,2.5475,0.0,0.0,0.0,0.0,0.0,0.0,0.0,0.0,0.0,0.0,0.0,0.0,0.0,0.0,0.0,0.0,0.0,0.0,0.0,0.0,0.0,0.0,0.0,0.0,0.0,3.3198,3.5825,3.6131,3.9253,4.0634,3.875,3.8992,3.9661,4.0635,4.089,4.174,4.3468,4.4168,4.4785,4.5426,4.5365,4.5236,4.4999,4.3861,4.3302,4.3284,4.254,4.2184,4.2166,4.2267,4.2391,4.2593,4.2769,4.2864,4.2883,4.3087,4.273,4.1991,4.1499,4.0977,4.0604,4.127,4.1794,4.219,4.2281,4.2242,4.1749,3.9268,3.6965,3.5229,3.5459,3.5551,3.5809,3.6854,3.7556,3.8098,3.8496,3.8551,3.8494,3.8305,3.713,3.6035,3.5893,3.4783,3.3753,3.3563,3.27,3.1782,3.1091,2.9731,2.8743,2.8779,2.8107,2.7678,2.788,2.7989,2.7721,2.6929,2.7049,2.6759,2.5736,2.5804,2.572,2.529,2.5485,2.5515,2.5312,2.5572,2.563,2.5365,2.5393,2.5412,2.5473,0.0,0.0,0.0,0.0,0.0,0.0,0.0,0.0,0.0,0.0,0.0,0.0,0.0,0.0,0.0,0.0,0.0,0.0,0.0,0.0,0.0,0.0,0.0,3.1702,3.5065,3.771,3.8375,4.0495,4.1732,4.1328,4.2214,4.3005,4.3494,4.4382,4.4968,4.5045,4.6246,4.6794,4.656,4.6346,4.6101,4.5824,4.405,4.316,4.3142,4.232,4.1927,4.1948,4.2163,4.2287,4.2287,4.249,4.2589,4.2589,4.2805,4.2882,4.2901,4.3178,4.3285,4.332,4.374,4.3607,4.3284,4.354,4.3107,4.2313,4.148,4.0689,3.9872,3.8795,3.8478,3.843,3.8241,3.8192,3.8192,3.8192,3.8192,3.8192,3.8209,3.6997,3.5822,3.5804,3.457,3.3429,3.3393,3.2877,3.2415,3.2342,3.1037,3.0279,3.1007,2.9911,0.0,3.0178,2.9831,2.9251,2.8588,2.8533,2.7998,2.6625,2.6873,2.6552,2.5275,2.5799,2.5894,2.5315,2.6095,2.6144,2.5322,2.5356,2.5407,2.5406,0.0,0.0,0.0,0.0,0.0,0.0,0.0,0.0,0.0,0.0,0.0,0.0,0.0,0.0,0.0,0.0,0.0,0.0,0.0,0.0,0.0,3.3908,3.6236,3.612,3.8974,4.1389,4.2256,4.4429,4.5722,4.5483,4.5275,4.6006,4.8077,4.669,4.6631,4.8569,4.7522,4.7171,4.7707,4.7114,4.6567,4.6081,4.5064,4.4566,4.453,4.3188,4.2554,4.2537,4.2022,4.1801,4.1784,4.2019,4.2086,4.2124,4.2371,4.2452,4.2492,4.2863,4.3013,4.3032,4.3123,4.2741,4.2087,4.1784,4.1403,4.0846,3.9655,3.9311,3.9206,3.8323,3.7967,3.7845,3.7775,3.7775,3.7793,3.7951,3.7969,3.8021,3.8175,3.743,3.6508,3.5931,3.4989,3.4099,3.352,3.3241,3.3111,3.3096,3.1783,3.0984,3.1773,3.0214,2.9215,3.0045,2.9776,2.9392,2.9119,2.925,2.8707,2.7075,2.7037,2.6451,2.4929,2.5057,2.5103,2.4942,2.517,2.5241,2.5082,2.5229,2.5322,0.0,0.0,0.0,0.0,0.0,0.0,0.0,0.0,0.0,0.0,0.0,0.0,0.0,0.0,0.0,0.0,0.0,0.0,0.0,0.0,0.0,0.0,3.7682,4.0196,4.1454,4.3152,4.4602,4.5554,4.6743,4.7551,4.7766,4.6934,4.7238,4.9246,4.7724,4.7518,4.9329,4.8021,4.7577,4.8292,4.7341,4.6631,4.6196,4.5484,4.494,4.4589,4.3693,4.3272,4.3237,4.2464,4.2113,4.2096,4.1947,4.1895,4.1917,4.2187,4.2308,4.2328,0.0,0.0,0.0,0.0,4.2401,4.2027,4.1705,4.1524,4.1197,4.0074,3.9824,3.9782,3.8975,3.8418,3.8058,3.8058,3.7899,3.7739,3.7864,3.7951,3.8073,3.8175,3.7593,3.6868,3.6399,3.5421,3.457,3.4443,3.3864,0.0,3.3846,3.256,3.1805,3.2688,3.0878,2.9716,3.0607,2.9986,2.9436,2.9388,2.9551,2.8985,2.7324,2.7396,0.0,0.0,0.0,2.5216,2.5298,2.4981,0.0,0.0,0.0,2.594,2.6348,2.6602,0.0,0.0,2.7472,2.7036,0.0,0.0,0.0,0.0,0.0,0.0,0.0,0.0,0.0,0.0,0.0,0.0,0.0,0.0,0.0,0.0,4.1161,4.3333,4.6639,4.7086,4.7348,4.8089,4.7855,4.7976,4.8834,4.774,4.7488,4.8764,4.8242,4.8145,4.8876,4.824,0.0,0.0,0.0,4.67,4.6337,4.5694,4.4957,4.415,4.4079,4.4044,4.4009,4.3272,4.2886,4.2763,4.2225,4.1941,4.1874,4.2103,4.2225,4.2225,4.2287,4.2308,4.2308,4.2218,4.2266,4.2426,4.2336,0.0,0.0,4.1366,4.0962,4.0659,3.9836,3.9106,3.8499,3.8499,3.8167,3.7846,3.7864,3.8021,3.8175,3.8192,3.7647,3.7104,3.7013,3.5874,3.5041,3.555,3.4588,3.3882,3.4482,3.3266,3.2536,3.3561,3.1655,3.0467,3.1481,3.032,2.9461,2.9606,2.9683,0.0,2.7646,2.7886,2.726,2.5263,2.5589,2.5915,2.6098,2.5427,2.5804,2.7433,2.6775,2.6855,2.78,2.8316,2.8646,2.8747,2.6473,2.5772,0.0,0.0,0.0,0.0,0.0,0.0,0.0,0.0,0.0,0.0,0.0,0.0,0.0,0.0,0.0,4.1664,4.4136,4.6189,4.7543,4.873,4.9256,4.8735,4.8194,4.8455,4.9988,4.8898,4.9097,5.1514,5.0205,4.9907,5.1334,4.9877,4.9248,4.9761,4.8912,4.8035,4.7169,4.7029,4.6555,4.574,4.515,0.0,4.4834,4.4044,4.336,4.2798,4.2685,4.2268,4.167,4.1697,4.1736,4.178,4.2163,4.2308,4.2216,4.1573,4.1344,4.1294,4.0651,4.0437,4.0294,3.947,3.9124,3.8862,3.8045,3.7575,0.0,3.7335,3.7365,3.7447,3.7613,3.7811,3.7986,3.8175,3.8082,3.7792,3.714,3.6759,3.6216,3.5059,3.5098,3.517,3.4682,3.3266,3.2536,3.3561,3.1655,3.0467,3.1481,3.032,2.9624,3.0248,3.041,3.0061,2.9004,2.8463,2.7755,2.6747,2.6718,2.6739,2.6738,2.6635,2.6787,2.7245,2.711,2.7277,2.78,2.7698,2.7637,2.7625,2.7813,2.7987,0.0,0.0,0.0,0.0,0.0,0.0,0.0,0.0,0.0,0.0,0.0,3.6251,3.8065,0.0,4.2556,4.4415,4.6342,4.7838,4.8467,4.9197,4.949,4.9054,4.9194,4.9565,5.0135,4.9569,4.9687,5.0945,5.0567,5.0556,5.1262,5.0267,5.0016,5.0687,4.979,4.9054,4.8564,4.8538,4.7959,4.6818,4.6835,4.6432,4.5659,4.5238,4.4431,4.3325,4.2973,4.2342,4.1604,4.1604,4.1604,4.1626,4.1866,4.1952,4.1899,4.151,4.1413,4.1443,4.1034,4.091,4.0768,4.0004,3.9653,3.9367,3.8554,3.7945,3.7549,3.7549,3.7443,3.7316,3.7428,3.7667,3.7934,3.8039,3.8141,3.81,3.7701,3.7285,3.6886,3.6472,3.6091,3.5786,3.5802,3.4806,3.421,3.4812,3.3191,3.2122,3.2711,3.1514,3.0581,3.0545,3.0727,3.0291,2.8911,2.8119,2.7502,2.7028,2.7089,2.7045,2.6801,2.6897,2.7186,2.7697,2.7724,2.811,2.8855,2.8547,2.8447,2.8504,2.8268,2.8175,0.0,0.0,0.0,0.0,0.0,0.0,0.0,3.4006,3.5283,3.7415,3.8858,4.0261,4.2005,4.381,4.5452,4.6638,4.8051,4.9041,4.9155,4.9405,4.9509,4.9219,5.0033,5.0477,5.007,4.9912,4.982,4.9793,5.033,5.0673,5.067,5.0409,5.053,5.1184,5.0374,4.9864,4.9706,4.9706,4.895,4.7397,4.8064,4.7538,4.5986,4.5986,4.5126,4.3641,4.2886,4.2289,4.1832,4.1657,4.1604,4.1604,4.1604,4.1582,4.1542,4.1446,4.1573,4.1813,4.1672,4.1619,4.1531,4.0933,4.0546,4.0151,3.9498,3.8866,3.8339,3.8339,3.804,3.7757,3.7757,3.8021,3.8295,3.8295,3.8328,3.8358,3.8358,3.7759,3.7375,3.7865,3.7051,3.6433,3.6969,3.666,3.6272,3.6127,3.4731,3.3831,3.4192,3.2765,3.1563,3.1109,3.0984,3.0208,2.8437,2.7902,2.7501,2.7149,2.7472,2.7493,2.719,2.7224,2.761,2.8358,2.8396,2.8867,2.9794,2.9484,2.9499,2.9767,2.8577,2.8037,2.7343,2.8514,3.0401,3.3083,3.3291,3.4281,0.0,4.0516,4.0416,4.2043,4.3331,4.4197,4.4213,4.5978,4.7383,4.7337,4.9323,5.0441,4.9218,5.0215,5.057,4.9204,4.9596,5.0112,5.0406,4.9959,4.9846,5.036,5.0249,5.0484,5.1173,5.0964,5.0839,5.0945,5.083,5.0399,4.9723,4.9706,4.895,4.7397,4.7485,4.6713,4.522,4.522,4.4378,4.2886,4.2078,4.2096,4.2622,4.1903,4.1604,4.1604,4.1604,4.1538,4.1361,4.0828,4.1047,4.1543,4.0875,4.0668,4.0651,4.0563,4.0028,3.9427,3.9319,3.9231,3.9182,3.9182,3.9256,3.933,3.933,3.9507,3.9681,3.9681,3.9279,3.8906,3.8906,3.847,3.7883,3.7267,3.7575,3.7785,3.7351,3.7783,3.7713,3.6321,3.4731,3.4032,3.4952,3.3013,3.1829,3.266,3.1477,3.0012,2.8418,2.8877,2.8877,2.8016,2.8559,2.8881,2.8827,2.8663,2.8718,2.8989,2.8833,2.8975,2.9466,2.9235,2.9485,3.0123,2.9439,2.9132,3.1637,3.228,3.3044,3.5707,3.7054,3.8534,4.1533,4.2785,4.3452,4.4017,4.5152,4.5953,4.5706,4.722,4.8453,4.836,5.011,5.1052,4.982,5.0195,5.0135,4.8914,4.8947,4.9161,4.9321,4.8727,4.858,4.9174,4.9624,4.9952,5.0117,5.0529,5.0729,5.0729,5.0729,5.0616,5.0382,5.0382,4.9592,4.8064,4.8503,4.745,4.5115,4.5554,4.4611,4.2613,4.174,4.1863,4.2613,4.1826,4.1818,4.2254,4.178,4.156,4.148,4.1143,4.123,4.144,4.1125,4.1064,4.106,4.0643,4.0274,3.9901,3.9445,3.9284,3.9284,3.9284,3.9367,3.9429,3.9429,3.9575,3.9733,3.9733,3.9624,3.9565,3.9678,3.9518,3.9301,3.908,3.9209,3.9156,3.8465,3.8693,3.8578,3.748,3.6578,3.6117,3.6391,3.481,3.3456,3.2945,3.1834,3.0865,3.0224,3.0468,3.0494,3.0109,3.0402,3.0545,3.0387,3.0356,3.0148,2.9689,3.0094,3.0184,2.9919,3.0224,3.0546,3.0821,3.0582,3.0206,3.3831,3.4711,3.5627,3.7988,4.0222,4.2036,4.2934,4.4565,4.5766,4.5416,4.6321,4.6993,4.6458,4.7558,4.8534,4.8615,5.0271,5.121,5.0235,5.0233,4.9819,4.8442,4.7661,4.7327,4.753,4.7442,4.7611,4.826,4.8916,4.937,4.9607,5.0195,5.0575,5.0585,5.0585,5.0702,5.0891,5.0891,4.9978,4.8222,4.8995,4.7748,4.4782,4.5109,4.4535,4.3156,4.2091,4.2277,4.3226,4.2415,4.2374,4.2745,4.2166,4.1775,4.1538,4.1448,4.1426,4.1448,4.1448,4.1515,4.1516,4.0972,4.0887,4.0828,4.0155,4.0021,4.0067,3.9958,3.9937,3.9937,3.9937,4.0042,4.015,4.015,4.0152,4.0192,4.0331,4.0229,4.0181,4.0456,4.0384,4.013,3.9643,3.978,3.973,3.914,3.8715,3.826,3.7711,3.6552,3.5165,3.3537,3.2649,3.209,3.1789,3.1569,3.1415,3.1366,3.1452,3.1421,3.1217,3.1309,3.1028,3.0372,3.0976,3.1034,3.0479,3.0971,3.1326,3.1545,3.1367,3.11,3.2004,3.4502,3.7821,3.9969,4.2243,4.4238,4.5399,4.6772,4.7567,4.6658,4.731,4.7678,4.6349,4.6786,4.742,4.7629,4.9633,5.0962,5.0223,5.0564,5.003,4.7713,4.5431,4.4343,4.5133,4.6438,4.7491,4.8242,4.8198,4.8796,5.0293,5.0397,5.0481,5.0585,5.0585,5.0702,5.0891,5.0891,4.9714,4.7432,4.8187,4.6923,4.3904,4.3219,4.3623,4.4747,4.336,4.3617,4.4957,4.4167,4.343,4.2816,4.2758,4.2198,4.1403,4.1403,4.1493,4.1604,4.1604,4.1604,4.1604,4.1569,4.1839,4.2077,4.1648,4.1803,4.2021,4.1648,4.1534,4.1534,4.1534,4.1534,4.1534,4.1534,4.1163,4.0763,4.0784,4.0324,4.0028,4.042,4.0492,4.0563,4.0713,4.1175,4.1456,4.1237,4.0698,3.9876,3.8609,3.776,3.6592,3.4918,3.4251,3.3526,3.2559,3.1764,3.1217,3.1025,3.1012,3.1012,3.0998,3.1012,3.1012,3.0962,3.0998,3.1012,3.0976,3.0998,3.1415,3.2158,3.1568,3.1696,3.5608,3.7783,3.9763,4.2443,4.4406,4.5877,4.6798,4.7673,4.7771,4.5892,4.5589,4.5194,4.3669,4.4065,4.4992,4.6042,4.8449,5.013,4.9868,5.0459,5.0013,4.7678,4.6695,4.5923,4.5168,4.4959,4.5588,4.73,4.7928,4.8553,4.929,5.0493,5.092,5.0499,5.0924,5.1116,5.0891,5.0891,4.996,4.8117,4.6753,4.5565,4.4515,4.3674,4.358,4.4082,4.3569,4.3943,4.4914,4.4102,4.3991,4.422,4.3202,4.2594,4.2274,4.173,4.156,4.1582,4.1493,4.1538,4.1604,4.1604,4.1856,4.2133,4.1719,4.1878,4.2113,4.1719,4.1604,4.1604,4.1604,4.1604,4.1604,4.1604,4.1455,4.1435,4.1841,4.1767,4.1803,4.2376,4.2394,4.214,4.168,4.1858,4.193,4.1497,4.0737,3.9605,3.7931,3.7346,3.669,3.5587,3.5299,3.4841,3.3967,3.3659,3.323,3.2632,3.2596,3.2596,3.2596,3.2596,3.2343,3.1799,3.2325,3.2325,3.1799,3.2325,3.2723,3.2995,3.2912,3.2684,3.7713,3.9699,4.1355,4.4332,4.5967,4.6881,4.7021,4.7362,4.6886,4.4251,4.3524,4.2919,4.148,4.1114,4.1852,4.4308,4.6122,4.7713,4.9082,4.9486,4.9188,4.7941,4.7064,4.652,4.6362,4.5502,4.5641,4.7344,4.8154,4.8916,4.9648,5.0489,5.0899,5.0787,5.0996,5.1043,5.0891,5.0891,5.0101,4.8521,4.6318,4.5306,4.5246,4.4405,4.4178,4.4495,4.4202,4.4541,4.5261,4.4747,4.4725,4.492,4.3986,4.3465,4.3131,4.2605,4.2412,4.2319,4.1686,4.1538,4.1604,4.1604,4.1856,4.2133,4.1719,4.1878,4.2154,4.1878,4.1809,4.1852,4.2005,4.2029,4.2029,4.2029,4.2029,4.2133,4.2521,4.2617,4.279,4.3355,4.3356,4.3103,4.259,4.2514,4.2306,4.1696,4.1098,4.0194,3.8781,3.8158,3.7665,3.7142,3.658,3.6019,3.5494,3.5009,3.4491,3.3964,3.3669,3.3509,3.3509,3.3437,3.3284,3.3067,3.3343,3.3372,3.3136,3.3439,3.3563,3.3549,3.3698,3.341,3.8329,4.0318,4.2668,4.5644,4.6865,4.7149,4.6277,4.6027,4.505,4.1934,4.1298,4.0925,3.9707,3.8148,3.8394,4.2423,4.3033,4.4266,4.8021,4.8029,4.7906,4.8583,4.6783,4.6309,4.8503,4.7962,4.7744,4.8435,4.8926,4.9801,5.1211,5.0546,5.0553,5.1483,5.0804,5.0589,5.0891,5.0855,5.0101,4.8644,4.693,4.6102,4.6032,4.5341,4.5393,4.5963,4.5271,4.5358,4.5998,4.5998,4.5603,4.5005,4.5115,4.4671,4.3986,4.3974,4.3933,4.3722,4.2286,4.1736,4.1701,4.1776,4.2012,4.2195,4.1797,4.1934,4.2218,4.2216,4.2198,4.23,4.2696,4.281,4.281,4.281,4.281,4.281,4.281,4.2829,4.2941,4.3336,4.3423,4.3423,4.3423,4.3122,4.2668,4.196,4.1851,4.1614,4.095,4.0014,3.9387,3.9387,3.8009,3.7049,3.6995,3.5766,3.5005,3.495,3.4196,3.3771,3.3771,3.3538,3.3785,3.4531,3.3935,3.3988,3.4754,3.4174,3.3855,3.3807,3.3855,3.3855,4.1327,4.3103,4.4544,4.6969,4.7301,4.6836,4.6057,4.478,4.3046,4.0398,3.9074,3.7791,3.5579,3.6634,3.8368,4.0049,4.3127,4.6267,4.9012,5.0224,5.0908,5.1101,5.0583,5.0259,5.0311,5.06,5.0817,5.0917,5.0401,5.0424,5.1246,5.1667,5.1743,5.1517,5.1309,5.113,5.0891,5.032,4.9776,4.9266,4.8216,4.7438,4.6879,4.6687,4.644,4.6147,4.5954,4.5972,4.6147,4.6147,4.6251,4.634,4.5818,4.544,4.5146,4.4897,4.4575,4.4276,4.4217,4.3653,4.3088,4.4058,4.3788,4.3068,4.2959,4.2788,4.258,4.2279,4.2198,4.23,4.2696,4.281,4.281,4.281,4.281,4.281,4.281,4.3051,4.3265,4.3388,4.3644,4.3777,4.3523,4.3266,4.2978,4.2555,4.2574,4.2141,4.078,3.9893,3.9387,3.9387,3.8499,3.7647,3.7049,3.6662,3.6204,3.5608,3.4954,3.457,3.4513,3.4041,3.3844,3.4009,3.3835,3.3863,3.4064,3.3899,3.382,3.3807,3.382,3.382,4.2754,4.4373,4.5467,4.6725,4.6852,4.6077,4.3668,4.2155,4.0296,3.6956,3.554,3.4461,3.3056,3.4053,3.5776,3.7935,4.1341,4.4746,4.7748,4.9802,5.1242,5.1899,5.1986,5.2119,5.2365,5.247,5.2748,5.3241,5.2177,5.1766,5.2356,5.22,5.2114,5.212,5.1457,5.1029,5.0891,5.0434,5.0004,4.9573,4.9082,4.847,4.7743,4.7359,4.7025,4.6688,4.6305,4.6097,4.6122,4.6332,4.656,4.6786,4.6649,4.6535,4.6442,4.6269,4.6044,4.5875,4.635,4.5843,4.5012,4.524,4.4834,4.4162,4.3774,4.3523,4.3244,4.2843,4.2734,4.2829,4.3212,4.3336,4.3336,4.3336,4.3336,4.3336,4.3336,4.3491,4.366,4.366,4.386,4.3873,4.3523,4.3354,4.3142,4.2674,4.2845,4.2686,4.1687,4.0741,4.0101,4.0015,3.8979,3.8074,3.7575,3.7291,3.676,3.5849,3.5154,3.4641,3.4341,3.3876,3.384,3.4307,3.4039,3.4065,3.4402,3.4526,3.438,3.3991,3.4399,3.438,4.3525,4.4847,4.5899,4.5962,4.5977,4.4943,4.0855,3.9192,3.7341,3.3247,3.1918,3.1455,3.1372,3.1429,3.2669,3.6269,3.8992,4.2008,4.5951,4.8345,5.0346,5.2119,5.2302,5.2892,5.4331,5.3875,5.3975,5.5124,5.4005,5.3463,5.3918,5.266,5.2161,5.2752,5.1382,5.0729,5.0891,5.0891,5.0566,4.9864,4.9731,4.9328,4.8618,4.7866,4.7592,4.7611,4.6793,4.6477,4.6558,4.6855,4.701,4.7124,4.7651,4.7765,4.7692,4.7863,4.7806,4.7736,4.821,4.7885,4.7095,4.6096,4.5636,4.5325,4.4612,4.4338,4.4159,4.3703,4.3571,4.3638,4.3929,4.4005,4.4005,4.4005,4.4005,4.3989,4.3923,4.3923,4.3939,4.3989,4.4005,4.3876,4.3474,4.3406,4.3195,4.2637,4.2939,4.316,4.2995,4.1861,4.1026,4.0771,3.9331,3.8336,3.8157,3.7685,3.7002,3.6134,3.5211,3.4502,3.4018,3.3607,3.385,3.4876,3.4328,3.4375,3.5082,3.5293,3.5002,3.4216,3.502,3.4983,4.5196,4.5816,4.6322,4.6673,4.5452,4.3568,4.1628,3.8424,3.5221,3.2943,3.1353,3.0102,2.9158,3.1237,3.3739,3.5706,3.9059,4.2991,4.746,4.9012,5.0733,5.3576,5.391,5.4279,5.5209,5.5191,5.5133,5.5212,5.5108,5.4962,5.4813,5.3965,5.3044,5.2018,5.1265,5.0846,5.0891,5.0891,5.082,5.068,5.068,5.0259,4.9486,4.9346,4.9164,4.8978,4.8811,4.8959,4.9275,4.8692,4.8675,4.9021,4.9122,4.87,4.8148,4.9194,4.8934,4.8076,4.855,4.8658,4.8544,4.8343,4.7381,4.633,4.6507,4.6103,4.5425,4.4672,4.4469,4.441,4.4077,4.4005,4.4005,4.4005,4.4005,4.3908,4.3577,4.3491,4.361,4.3939,4.4005,4.3876,4.3474,4.3406,4.3248,4.281,4.3087,4.3336,4.3319,4.2014,4.0958,4.0598,3.9264,3.8287,3.7969,3.786,3.7733,3.7554,3.6163,3.5388,3.5508,3.4403,3.3963,3.4328,3.4222,3.4216,3.4365,3.442,3.4358,3.4197,3.4358,3.4358,4.5584,4.6384,4.6864,4.6299,4.5091,4.3083,3.959,3.6425,3.346,3.0595,2.9358,2.8644,2.8132,3.0359,3.2809,3.4353,3.7198,4.0814,4.5466,4.7134,4.9188,5.2699,5.3822,5.463,5.5437,5.5507,5.5431,5.5229,5.5401,5.5371,5.5126,5.4343,5.3417,5.2351,5.1859,5.1696,5.1891,5.1484,5.1326,5.147,5.1066,5.0697,5.032,5.0134,4.9987,4.9865,4.9718,4.9771,4.9996,4.9846,4.9925,5.0163,5.0395,5.0193,4.9824,5.0027,4.9695,4.9104,4.8934,4.8874,4.8909,4.8909,4.8091,4.7073,4.6864,4.6239,4.5409,4.4578,4.4338,4.4278,4.4051,4.4005,4.4005,4.4005,4.4005,4.3939,4.3761,4.371,4.3777,4.3955,4.4005,4.3939,4.3744,4.371,4.3577,4.3177,4.3457,4.3644,4.3423,4.2562,4.1709,4.0974,3.9557,3.8541,3.8303,3.8252,3.8056,3.7557,3.681,3.6285,3.6062,3.544,3.5029,3.4884,3.4878,3.4878,3.4878,3.5293,3.5287,3.4897,3.5324,3.5287,4.5255,4.6362,4.7149,4.5844,4.4708,4.2607,3.7793,3.4896,3.2179,2.8669,2.7782,2.763,2.7686,2.9351,3.1265,3.2985,3.5092,3.8131,4.2745,4.4863,4.7337,5.1084,5.3032,5.4366,5.5174,5.542,5.5431,5.5277,5.5401,5.5431,5.5259,5.4454,5.3691,5.3064,5.2809,5.2684,5.2688,5.224,5.2032,5.205,5.1494,5.1193,5.1201,5.0941,5.0862,5.0964,5.0768,5.0714,5.0824,5.1024,5.1109,5.1128,5.151,5.1435,5.1063,5.0618,5.019,4.9763,4.9132,4.8909,4.8909,4.8909,4.8481,4.7813,4.6995,4.6308,4.5602,4.4562,4.4283,4.4228,4.4029,4.3989,4.4005,4.4005,4.4135,4.4228,4.4042,4.4153,4.4228,4.4042,4.4005,4.4005,4.4005,4.4005,4.3892,4.3577,4.3793,4.3892,4.3577,4.3106,4.2492,4.1721,4.0126,3.9058,3.8826,3.8664,3.8232,3.7502,3.7252,3.693,3.6468,3.6281,3.6053,3.5757,3.577,3.577,3.577,3.6216,3.6216,3.577,3.6235,3.6197,4.4136,4.5385,4.6812,4.6117,4.4028,4.1418,3.8641,3.5161,3.1774,2.9299,2.821,2.7701,2.7701,2.8473,2.986,3.2125,3.3863,3.6531,4.1165,4.3781,4.6379,4.9521,5.1936,5.3576,5.4349,5.5086,5.5478,5.5478,5.5478,5.5478,5.5478,5.4694,5.4116,5.3814,5.3838,5.3351,5.2356,5.3072,5.3049,5.2268,5.2196,5.2183,5.2183,5.2157,5.239,5.2862,5.2831,5.3062,5.3401,5.2697,5.2419,5.2419,5.2475,5.1565,5.032,5.1026,5.032,4.9002,4.8927,4.8909,4.8909,4.8909,4.8853,4.8649,4.7831,4.7534,4.7163,4.5602,4.5175,4.4973,4.4133,4.3942,4.4005,4.4005,4.4599,4.4952,4.4172,4.4618,4.4952,4.4153,4.4005,4.4005,4.4005,4.4005,4.3989,4.3939,4.3989,4.3989,4.3939,4.3265,4.276,4.2671,4.1051,3.986,3.954,3.885,3.8378,3.8307,3.7433,3.7044,3.7283,3.6593,3.6311,3.6575,3.6588,3.6588,3.6588,3.5937,3.5956,3.6569,3.5919,3.5956,4.3872,4.5406,4.6384,4.5739,4.3947,4.1332,3.7621,3.4495,3.1598,2.8754,2.7912,2.7701,2.7701,2.8351,2.9509,3.137,0.0,0.0,3.8164,3.9638,4.2061,4.7011,4.9662,5.1926,5.4086,5.5033,5.5507,5.5507,5.5507,5.5507,5.5507,5.5034,5.4661,5.4385,5.4207,5.3885,5.3452,5.335,5.3212,5.3018,5.2534,5.2281,5.2322,5.2634,5.2889,5.3117,5.3404,5.3621,5.3775,5.346,5.333,5.333,5.333,5.2624,5.1584,5.1454,5.0673,4.9615,4.9076,4.8909,4.8909,4.8909,4.8574,4.8036,4.7218,4.6977,4.6735,4.5621,4.5287,4.5212,4.4846,4.4363,4.4246,4.5249,4.5008,4.4562,4.4729,4.5045,4.5194,4.4841,4.5175,4.5491,4.5491,4.5101,4.4785,4.4785,4.4339,4.4005,4.4005,4.3726,4.3426,4.3199,4.1872,4.0752,4.0132,3.9785,3.9379,3.8848,3.8453,3.8284,3.8418,3.8118,3.7785,3.7429,3.7411,3.7411,3.7411,3.7108,3.7113,3.7411,3.7076,3.7113,4.1996,4.4078,4.5448,4.4934,4.3066,4.0379,3.6646,3.3512,3.0668,2.821,2.7526,2.7438,2.7648,2.8157,2.9053,0.0,0.0,3.1879,3.6057,3.7233,3.9463,4.4266,4.7099,4.9785,5.2664,5.4507,5.5507,5.5507,5.5507,5.5566,5.5735,5.5324,5.4979,5.4701,5.462,5.4421,5.407,5.3799,5.3653,5.358,5.3018,5.2744,5.2766,5.3141,5.3322,5.3343,5.3659,5.3664,5.346,5.3701,5.3664,5.346,5.346,5.2958,5.2159,5.1323,5.0506,4.9726,4.9113,4.8909,4.8872,4.863,4.8166,4.7516,4.6457,4.6141,4.5974,4.5138,4.5066,4.518,4.4971,4.4621,4.4623,4.5862,4.5435,4.4915,4.5509,4.5844,4.5937,4.5695,4.6104,4.6494,4.6494,4.603,4.5565,4.5342,4.4785,4.4283,4.4023,4.4005,4.3892,4.361,4.2826,4.195,4.1011,4.0496,4.0115,3.9863,3.9361,3.9212,3.9472,3.9231,3.8822,3.8265,3.8247,3.8247,3.8247,3.8024,3.8024,3.8247,3.8005,3.8024,3.7774,4.0823,4.3891,4.3685,4.1013,3.7991,3.6201,3.223,2.8702,2.7877,2.7122,2.6827,2.7561,2.7701,2.8245,2.986,3.072,0.0,3.5371,3.781,3.9884,4.1464,4.4354,4.7144,4.9504,5.3243,5.5507,5.5507,5.5507,5.5735,5.6257,5.5526,5.4979,5.4701,5.5208,5.4941,5.3812,5.4592,5.4573,5.3793,5.3793,5.3775,5.3775,5.3775,5.3775,5.3775,5.3813,5.3348,5.2679,5.3478,5.333,5.2605,5.2605,5.2122,5.1305,5.0432,4.9596,4.8909,4.8909,4.8909,4.8779,4.798,4.7701,4.7404,4.5788,4.5305,4.5119,4.4265,4.4536,4.4932,4.4212,4.4554,4.5117,4.5289,4.59,4.6475,4.6494,4.7107,4.7441,4.6643,4.6494,4.6494,4.6494,4.6494,4.6215,4.5417,4.5287,4.4971,4.4116,4.4005,4.4005,4.3986,4.3986,4.3492,4.2283,4.0728,4.0302,4.1501,4.0011,3.9491,4.036,3.9547,3.9101,3.9082,3.9082,3.9082,3.9082,3.8284,3.8302,3.9064,3.8265,3.8321,3.3648,3.5611,3.717,3.6663,3.5339,3.3619,3.1548,2.9527,2.7701,2.6402,2.6384,2.6669,2.6911,2.7368,2.8561,3.1247,3.1861,3.309,3.618,3.8181,4.027,4.2851,4.7801,5.1681,5.3489,5.4788,5.5507,5.5507,5.5833,5.6108,5.6284,5.5717,5.5343,5.525,5.4818,5.4352,5.3793,5.4611,5.4871,5.463,5.463,5.463,5.4611,5.4054,5.3813,5.3813,5.3813,5.3348,5.2661,5.3478,5.333,5.2605,5.2605,5.2104,5.1286,5.0432,4.9596,4.8909,4.8909,4.8537,4.8036,4.7776,4.6958,4.5955,4.5454,4.5677,4.5955,4.5119,4.5456,4.5997,4.5769,4.5883,4.6349,4.7497,4.7107,4.6643,4.72,4.7516,4.7627,4.7367,4.7757,4.8147,4.8147,4.7683,4.7051,4.6234,4.5639,4.4989,4.4116,4.4005,4.3892,4.3627,4.3594,4.3312,4.2665,4.2143,4.1782,4.1609,4.1089,4.068,4.0416,4.0141,3.9714,3.9101,3.9101,3.9101,3.9101,3.8841,3.8841,3.9082,3.8841,3.8859,3.0293,3.2123,3.3283,3.298,3.1882,3.052,2.9197,2.7613,2.6223,2.5542,2.5805,2.623,2.6528,2.721,2.8544,3.1107,3.1774,3.309,3.632,3.8229,4.0652,4.4343,4.924,5.2804,5.4068,5.4998,5.5578,5.5793,5.5814,5.6027,5.6428,5.5541,5.5104,5.5315,5.4483,5.3963,5.3813,5.4314,5.4556,5.4556,5.4556,5.4556,5.4537,5.4035,5.3813,5.3813,5.3813,5.3348,0.0,5.3478,5.333,5.2605,5.2605,5.2104,5.1286,5.0432,4.9596,4.8909,4.8909,4.8574,4.8054,4.7441,4.6141,4.4859,4.5194,4.5417,4.5509,4.5342,4.5881,4.6494,4.6494,4.6735,4.7218,4.8203,4.7683,4.7163,4.798,4.8147,4.8147,4.8147,4.8556,4.8909,4.8909,4.8481,4.7887,4.707,4.6271,4.5565,4.5008,4.4395,4.4037,4.4122,4.3812,4.3506,4.3265,4.2841,4.2548,4.2519,4.1943,4.1497,4.1311,4.101,4.0587,4.0048,4.003,3.9881,3.9584,3.925,3.9101,3.9101,3.9435,3.9584,0.0,2.9812,3.1463,3.1516,2.9909,2.8338,2.8461,2.6276,0.0,2.5103,2.5292,2.5622,2.6535,2.7285,2.8355,3.0203,3.1119,3.2785,3.6219,3.8536,4.1556,4.6003,4.9284,5.1481,5.2157,5.4224,5.5733,5.6222,5.5562,5.5566,5.6552,5.5133,5.4501,5.4982,5.4221,5.3813,5.3813,5.3868,5.3887,5.3887,5.3887,5.3887,5.3887,5.3831,5.3813,5.3813,5.3813,5.3348,5.2661,5.3478,5.333,5.2587,5.2549,5.2067,5.1286,5.0358,4.954,4.8909,4.8909,4.8872,4.8556,4.694,4.5324,4.4153,4.5026,4.4729,4.4265,4.5138,4.5955,4.6568,4.6513,4.7144,4.7757,4.7646,4.7701,4.798,4.8667,4.8872,4.8909,4.8909,4.8909,4.8909,4.8909,4.8909,4.863,4.7813,4.7051,4.655,4.6513,4.5082,4.4395,4.5212,4.4525,4.4005,4.4005,4.2961,4.2802,4.3934,4.2593,4.2073,4.276,4.2073,4.1664,4.159,4.159,4.1219,4.0476,3.9658,3.9287,3.9305,4.0104,4.049,2.4506,0.0,2.5914,2.5368,2.4822,2.4419,0.0,2.3897,2.3435,2.3598,2.4254,2.5427,2.7531,2.8129,2.9638,3.372,3.5051,3.6472,3.9085,4.3206,4.6915,4.9504,5.2334,5.418,5.4358,5.5248,5.5875,5.5985,5.5632,5.5524,5.5768,5.5157,5.4865,5.5,5.4221,5.3813,5.3813,5.4407,5.4723,5.4723,5.4723,5.4723,5.4704,5.4091,5.3813,5.3813,5.3813,5.3348,5.2661,5.3478,5.333,5.2549,5.1918,5.1565,5.1212,4.9726,4.9057,4.8909,4.8909,4.85,4.772,4.6104,4.4859,4.4153,4.5026,4.5157,4.5157,4.5992,4.6791,4.7274,4.6661,4.7553,4.8314,4.707,4.772,4.85,4.8073,4.8481,4.8909,4.8909,4.8909,4.8909,4.8909,4.8909,4.863,4.7813,4.7534,4.72,4.6587,4.5621,4.5064,4.5268,4.4525,4.4005,4.4005,4.3741,4.3704,4.3986,4.3652,4.3243,4.2816,4.2612,4.2222,4.1609,4.159,4.1497,4.1311,4.1107,4.1014,4.1014,4.1219,4.1311,2.3517,2.4162,2.4756,2.4355,2.4193,2.4198,2.4312,2.3703,2.3232,2.3689,2.4508,2.579,2.7875,2.8719,3.0432,3.4525,3.5867,3.7863,4.2012,4.573,4.905,5.1772,5.3762,5.5071,5.543,5.5721,5.5843,5.572,5.5208,5.5015,5.5265,5.4752,5.4463,5.4463,5.4035,5.3813,5.3813,5.424,5.4463,5.4463,5.4463,5.4463,5.4444,5.3998,5.3813,5.3775,5.3423,5.2995,5.2605,5.2679,5.2438,5.2011,5.1565,5.1156,5.0692,4.98,4.9224,4.8909,4.8909,4.8129,4.7014,4.6122,4.5008,4.4228,4.5472,4.5844,4.6011,4.6828,4.7367,4.7683,4.7627,4.798,4.8221,4.772,4.798,4.8333,4.8259,4.8593,4.8909,4.8909,4.8909,4.8909,4.8909,4.8909,4.876,4.8314,4.7943,4.7683,4.7608,4.6252,4.5435,4.5807,4.4729,4.4005,4.4005,4.4005,4.4005,4.4005,4.4005,4.3801,4.3373,4.3355,4.315,4.2705,4.2333,4.2147,4.2147,4.1776,4.159,4.1609,4.198,4.2147,2.3848,2.4887,2.5871,2.553,2.5513,2.5662,2.5938,0.0,0.0,2.5022,2.5799,2.6817,2.8573,2.9766,3.1482,3.4608,3.6197,3.9155,4.5172,4.7647,4.9969,5.2956,5.4315,5.5178,5.5595,5.5722,5.5686,5.5434,5.4629,5.4283,5.4629,5.3998,5.3627,5.3627,5.3627,5.3683,5.3813,5.3813,5.3813,5.3813,5.3813,5.3813,5.3813,5.3683,5.3683,5.3775,5.2958,5.2605,5.2549,5.1862,5.1509,5.1398,5.1249,5.0748,5.0098,4.9968,4.9503,4.8909,4.8909,4.7924,4.6661,4.6531,4.5547,4.4655,4.6067,4.6587,4.6847,4.7664,4.7887,4.8017,4.8574,4.8296,4.7961,4.8277,4.8017,4.7813,4.8259,4.8537,4.8723,4.8723,4.8816,4.8909,4.8909,4.8909,4.8909,4.8909,4.8314,4.8129,4.8816,4.7014,4.5918,4.6605,4.5194,4.4191,4.4191,4.4079,4.4005,4.4005,4.4005,4.4005,4.4005,4.4005,4.4005,4.4005,4.3336,4.2983,4.2983,4.2296,4.1962,4.198,4.2667,4.2983,2.5273,2.6556,2.7073,2.5154,2.5548,2.6503,2.6835,2.6691,2.679,0.0,2.8311,2.9227,3.1579,3.284,3.4377,3.697,4.0396,4.4395,4.911,5.1216,5.2312,5.2454,5.4811,5.5898,5.4657,5.4891,5.512,5.5087,5.4309,5.3606,5.3014,5.2847,5.2791,5.2791,5.2791,5.3107,5.3794,5.3813,5.3813,5.3813,5.3813,5.3813,5.3775,5.3088,5.3162,5.3775,5.2958,5.2605,5.2587,5.2475,5.2011,5.1323,5.0599,5.0228,5.0023,4.9355,4.902,4.8909,4.8909,4.8296,4.7404,4.6717,4.6327,4.616,4.642,4.6977,4.7683,4.85,4.8723,4.8593,4.8036,4.8296,4.824,4.6308,4.6791,4.7367,4.6122,4.6921,4.7887,4.7887,4.8426,4.8909,4.8909,4.8909,4.8909,4.8909,4.8797,4.876,4.889,4.798,4.7386,4.7497,4.6067,4.5101,4.5101,4.4413,4.4005,4.4005,4.4005,4.4005,4.4005,4.4005,4.4005,4.4005,4.3875,4.3819,4.3819,4.3689,4.3633,4.3633,4.3763,4.3819,2.4473,2.5961,2.7055,2.5994,2.7238,2.8624,2.831,2.8079,2.8339,2.9611,3.0484,3.1605,3.3642,3.519,3.7299,4.0643,4.3893,4.7003,4.9936,5.0988,5.1851,5.2978,5.432,5.4995,5.4702,5.4865,5.4834,5.4388,5.3608,5.2995,5.2624,5.2197,5.1955,5.1955,5.1955,5.2345,5.3144,5.3144,5.3367,5.3794,5.3367,5.3144,5.3125,5.2327,5.2159,5.2457,5.1621,5.1249,5.1231,5.0785,5.0376,5.0005,4.9615,4.9447,4.941,4.9039,4.8909,4.8909,4.8909,4.837,4.7646,4.7274,4.6847,4.6587,4.7014,4.7404,4.7868,4.8667,4.8909,4.8723,4.7906,4.798,4.798,4.6865,4.7163,4.7627,4.7311,4.7831,4.8351,4.8351,4.8649,4.8909,4.8909,4.8909,4.8909,4.8909,4.8909,4.8909,4.8909,4.8203,4.7701,4.7701,4.6643,4.5955,4.5955,4.5584,4.4952,4.4061,4.4005,4.4005,4.4005,4.4005,4.4005,4.4005,4.4005,4.4005,4.4005,4.4005,4.4005,4.4005,4.4005,4.4079,2.4026,2.5478,2.6938,2.7157,2.872,3.0255,3.0427,3.0333,3.0695,3.2452,3.3728,3.4821,3.5841,3.7692,4.0383,4.4488,4.6903,4.8909,5.0711,5.1138,5.1881,5.3608,5.398,5.4258,5.4686,5.4556,5.4184,5.3571,5.2772,5.2234,5.2029,5.1454,5.1119,5.1101,5.1101,5.1491,5.2308,5.2363,5.2772,5.3515,5.2902,5.2512,5.2289,5.1472,5.1212,5.1361,5.0488,5.0098,5.006,4.9447,4.9076,4.8909,4.8909,4.8909,4.8909,4.8909,4.8909,4.8909,4.8909,4.85,4.7943,4.7757,4.7404,4.7144,4.7571,4.7831,4.811,4.8723,4.896,4.8863,4.8164,4.798,4.7924,4.7738,4.7701,4.7813,4.8259,4.85,4.863,4.863,4.8779,4.8909,4.8909,4.8909,4.8909,4.8909,4.8909,4.8909,4.8909,4.837,4.798,4.798,4.7256,4.6698,4.6513,4.6327,4.5658,4.4395,4.4116,4.4005,4.4005,4.4005,4.4005,4.4005,4.4005,4.4005,4.4005,4.4064,4.4075,4.4109,4.4166,4.4265,2.551,2.6531,2.7374,2.8178,2.8896,3.0223,3.3472,3.4442,3.5395,3.7965,3.9222,3.9626,3.8939,4.0795,4.3782,4.7887,4.9373,5.0841,5.32,5.4184,5.4444,5.3868,5.4463,5.4648,5.3961,5.3218,5.2754,5.2698,5.1936,5.1138,5.032,5.0283,5.0265,5.0209,5.019,5.0618,5.1472,5.1734,5.2146,5.2698,5.2624,5.2215,5.1454,5.0599,5.0636,5.1361,5.0488,5.0098,5.0098,5.0042,4.9577,4.8909,4.8909,4.8909,4.8909,4.8909,4.8909,4.8909,4.8909,4.8872,4.8686,4.7943,4.8166,4.8612,4.7906,4.8221,4.8834,4.889,4.9127,4.9286,4.8902,4.8816,4.863,4.7887,4.7701,4.7516,4.6828,4.7256,4.7794,4.7794,4.8389,4.8909,4.8909,4.8909,4.8909,4.8909,4.8909,4.8909,4.8909,4.8853,4.8816,4.8816,4.8091,4.7311,4.655,4.5807,4.5324,4.5212,4.4451,4.4005,4.4005,4.4005,4.4005,4.4005,4.4005,4.4005,4.4005,4.425,4.4374,4.4388,4.4624,4.4612,2.4224,2.6072,2.7941,2.8241,3.022,3.2406,3.359,3.5789,3.8113,3.9963,4.2004,4.3336,4.302,4.328,4.4562,4.7646,4.928,5.0822,5.2791,5.3757,5.4147,5.385,5.3627,5.3385,5.3088,5.2327,5.1844,5.1844,5.1063,5.045,5.0135,4.9652,4.9373,4.9355,4.9355,4.9763,5.058,5.0908,5.1157,5.1359,5.1536,5.1444,5.1105,5.0293,4.9997,5.0144,4.9807,4.956,4.9355,4.9355,4.9169,4.8909,4.8909,4.8909,4.8909,4.8909,4.8909,4.8909,4.8909,4.8909,4.8853,4.8556,4.8649,4.8834,4.8537,4.8801,4.9209,4.9209,4.9423,4.9451,4.8612,4.8933,4.9194,4.8187,4.8365,4.8749,4.8737,4.8983,4.9187,4.9187,4.9447,4.9503,4.9002,4.8909,4.8909,4.8909,4.8909,4.8909,4.8909,4.8909,4.8909,4.8909,4.863,4.8314,4.8017,4.7256,4.6791,4.6791,4.5045,4.4005,4.4005,4.4005,4.4005,4.4005,4.4005,4.4005,4.4005,4.4091,4.4236,4.4397,4.4506,4.4676,2.3424,2.55,2.7758,2.8023,3.1026,3.416,3.4999,3.7626,4.0451,4.2398,4.4341,4.5677,4.5677,4.5194,4.5509,4.772,4.9224,5.0692,5.2364,5.2865,5.3051,5.3051,5.2568,5.2215,5.2215,5.1472,5.0989,5.0989,5.0209,4.9726,4.9726,4.9206,4.8909,4.8909,4.8909,4.9221,4.9864,5.0191,5.0387,5.0472,5.0778,5.0817,5.0585,4.9771,4.9282,4.9118,4.9032,4.8861,4.8652,4.857,4.8519,4.8556,4.8797,4.8909,4.8909,4.8909,4.8909,4.8909,4.8909,4.8909,4.8909,4.8909,4.8959,4.9044,4.8925,4.9144,4.9384,4.9273,4.9454,4.9476,4.8724,4.9091,4.9476,4.869,4.889,4.9401,4.9983,5.0098,5.019,5.0469,5.0506,5.0246,4.9429,4.928,4.9187,4.8946,4.8909,4.8909,4.8909,4.8909,4.8909,4.8909,4.8909,4.8909,4.8909,4.8166,4.7701,4.7701,4.5862,4.4674,4.4413,4.4153,4.4005,4.4005,4.4005,4.4005,4.4005,4.4094,4.4246,4.4519,4.4612,4.4849,2.3591,2.4987,2.6633,2.7585,3.106,3.5089,3.8377,4.042,4.2575,4.5862,4.6531,4.6513,4.6513,4.6513,4.7033,4.8649,4.9577,5.0673,5.2345,5.1899,5.1398,5.1398,5.1398,5.1398,5.1398,5.0599,5.0098,5.0098,4.9355,4.8909,4.8909,4.889,4.889,4.889,4.889,4.9042,4.938,4.9651,4.993,5.0176,5.0525,5.0358,4.9779,4.8899,4.8501,4.8475,4.8219,4.8089,4.8074,4.7814,4.7701,4.7776,4.8574,4.889,4.8909,4.8909,4.8909,4.8909,4.8909,4.8909,4.8909,4.8909,4.9127,4.9352,4.8993,4.9144,4.9337,4.8993,4.9144,4.9396,4.9396,4.9415,4.9399,4.9399,4.9162,4.9132,4.9949,5.0135,5.0395,5.1249,5.1416,5.1138,5.0265,5.0116,4.9837,4.9039,4.8927,4.8909,4.8909,4.889,4.8909,4.8909,4.8909,4.8909,4.8909,4.8166,4.7701,4.7701,4.6958,4.6141,4.5342,4.4488,4.4023,4.4005,4.4023,4.4023,4.4005,4.4279,4.4552,4.4819,4.5082,4.522,2.4076,2.553,2.7337,2.9215,3.2922,3.6863,3.9768,4.24,4.5287,4.915,4.902,4.8184,4.8184,4.7256,4.7033,4.8649,4.9113,4.9837,5.1528,5.1546,5.1398,5.1398,5.0859,5.0488,5.0488,4.9745,4.9262,4.9262,4.9039,4.8909,4.8909,4.837,4.8054,4.8054,4.7516,4.725,4.7364,4.8414,4.8681,4.8169,4.9262,4.9701,4.951,4.9261,4.8704,4.7929,4.7649,4.7554,4.7531,4.7245,4.7357,4.772,4.7961,4.8407,4.8909,4.8909,4.8909,4.8909,4.8909,4.9044,4.9209,4.8995,4.9127,4.9352,4.8993,4.9144,4.9384,4.9289,4.9469,4.9679,4.9679,4.9958,5.0244,5.0244,5.0164,5.0409,5.1601,5.1862,5.1936,5.2197,5.1788,5.1323,5.1063,5.0506,5.0228,5.0599,5.0344,4.9894,4.9313,4.9257,4.916,4.8926,4.8909,4.8909,4.8909,4.8686,4.8537,4.8537,4.7794,4.6977,4.6178,4.59,4.5491,4.4934,4.5472,4.5175,4.4005,4.4709,4.5148,4.5353,4.5434,4.6013,2.4194,2.5938,2.8054,3.038,3.4173,3.8327,4.2089,4.5149,4.7906,5.0376,5.0098,4.9317,4.8964,4.785,4.7404,4.8686,4.8909,4.9355,5.0711,5.0618,5.0413,5.0413,4.9949,4.9633,4.9633,4.9187,4.8779,4.8444,4.8426,4.8277,4.7961,4.7497,4.7218,4.7218,4.6754,4.6541,4.6666,4.7617,4.7859,4.7464,4.8429,4.8721,4.8413,4.8413,4.8039,4.7371,4.7064,4.6822,4.6636,4.6826,4.704,4.7256,4.7571,4.8184,4.8909,4.8909,4.8704,4.8481,4.8797,4.8822,4.8747,4.8866,4.9127,4.9352,4.8993,4.9144,4.9384,4.9241,4.9315,4.9521,4.9826,4.9915,5.0046,5.0494,5.075,5.1235,5.2345,5.2605,5.2605,5.2605,5.2215,5.1788,5.1454,5.0971,5.0727,5.1054,5.0622,5.0079,4.9471,4.9399,4.9273,4.8943,4.8909,4.8909,4.8909,4.8909,4.8909,4.8909,4.8444,4.8029,4.7674,4.6911,4.6271,4.5788,4.6252,4.5992,4.4989,4.5509,4.5889,4.6115,4.6115,4.6631,2.4189,2.618,2.8633,3.126,3.5256,3.9819,4.4711,4.7978,5.0023,5.0079,5.0153,4.9949,4.9169,4.8351,4.8073,4.889,4.889,4.9113,4.9986,4.9355,4.8797,4.8797,4.8797,4.876,4.8686,4.8686,4.8389,4.7646,4.759,4.7274,4.6531,4.642,4.6382,4.6382,4.6308,4.6395,4.6626,4.6979,4.7251,4.7433,4.7788,4.7548,4.6778,4.6865,4.6837,4.6742,4.6421,4.5992,4.5547,4.634,4.6554,4.6475,4.7274,4.8091,4.8797,4.8872,4.8389,4.7813,4.863,4.8387,4.7865,4.8649,4.9127,4.9352,4.8993,4.911,4.9305,4.8995,4.8909,4.9076,4.9836,4.9555,4.9325,5.0368,5.0955,5.1546,5.2438,5.2549,5.2494,5.2494,5.2512,5.2289,5.1639,5.1472,5.1225,5.0716,5.0226,4.9802,4.9488,4.9411,4.9289,4.8959,4.8926,4.8926,4.8926,4.8909,4.8909,4.8909,4.8943,4.9077,4.9399,4.7676,4.6696,4.6655,4.6696,4.6643,4.6494,4.6601,4.6762,4.6971,4.7001,4.7179,2.5047,2.6374,2.8304,3.2408,3.815,4.3248,4.4956,4.7316,4.9355,4.9986,5.0116,5.006,4.9875,4.9187,4.8909,4.9707,4.8779,4.8463,4.9912,4.8872,4.7961,4.7961,4.7961,4.7701,4.707,4.7014,4.694,4.6773,4.6754,4.668,4.6513,4.59,4.5565,4.5565,4.4896,4.4556,4.4615,4.5575,4.5846,4.5435,4.6402,4.6522,4.5893,4.6586,4.6407,4.556,4.5489,4.515,4.4665,4.4853,4.517,4.5639,4.6438,4.7256,4.8036,4.8667,4.8389,4.7813,4.863,4.8518,4.8116,4.8697,4.9127,4.9352,4.8993,4.8942,4.8993,4.8926,4.8909,4.9015,4.9431,4.9888,5.0314,5.0607,5.052,5.0874,5.2607,5.2283,5.1676,5.173,5.1729,5.1878,5.2325,5.1897,5.1361,5.0982,5.0828,5.051,4.9866,4.9612,4.9396,4.9162,4.91,4.9068,4.9068,4.8962,4.8909,4.8909,4.9144,4.9318,4.9399,4.8742,4.8189,4.7769,4.817,4.7757,4.6494,4.7345,4.7676,4.7539,4.7735,4.8243,2.4691,2.6441,2.9249,3.4763,3.9987,4.3981,4.4783,4.6413,4.7868,4.8296,4.9002,4.941,4.902,4.8927,4.8909,4.8946,4.8259,4.7868,4.8314,4.7646,4.7125,4.7125,4.7125,4.6958,4.6531,4.6494,4.6345,4.5955,4.5918,4.5732,4.5324,4.4915,4.4674,4.4674,4.4246,4.4005,4.4005,4.471,4.4917,4.4612,4.5468,4.5783,4.5614,4.6067,4.5889,4.5201,4.5201,4.4896,4.4397,4.4397,4.4774,4.5342,4.5751,4.642,4.7179,4.7735,4.741,4.6884,4.8082,4.7816,4.7065,4.8023,4.8433,4.8565,4.8384,4.8593,4.8909,4.8909,4.9025,4.9295,4.9881,5.0074,5.0357,5.1324,5.1575,5.1714,5.2286,5.2242,5.1877,5.1128,5.1276,5.1556,5.1594,5.1453,5.1296,5.1114,5.0875,5.0539,5.0012,4.9707,4.9454,4.9228,4.9133,4.9101,4.9101,4.8979,4.8909,4.8909,4.9061,4.9302,4.9569,4.9283,4.9062,4.8923,4.9059,4.8733,4.789,4.8282,4.8488,4.8525,4.8646,4.9021,2.4126,2.6764,3.0731,3.6809,4.0727,4.3336,4.4268,4.5409,4.6252,4.6104,4.7367,4.8277,4.7627,4.8036,4.8277,4.7608,4.7386,4.7107,4.6568,4.6382,4.629,4.629,4.629,4.6234,4.6085,4.6067,4.5788,4.5119,4.5082,4.4748,4.4042,4.4005,4.4005,4.4005,4.4005,4.4005,4.4005,4.4221,4.436,4.4416,4.4896,4.5243,4.5457,4.5466,4.539,4.5201,4.5096,4.4812,4.4402,4.436,4.4621,4.5082,4.5231,4.5744,4.64,4.6757,4.6369,4.59,4.7427,4.6957,4.5895,4.7199,4.7686,4.7767,4.7767,4.831,4.8909,4.8909,4.9104,4.9517,5.0293,5.0048,5.001,5.1662,5.2431,5.2575,5.1668,5.1884,5.185,5.0484,5.0858,5.1194,5.054,5.0824,5.1108,5.0995,5.0567,5.0206,5.0019,4.9721,4.9457,4.9228,4.9133,4.9101,4.9101,4.903,4.8959,4.8909,4.901,4.928,4.979,4.9627,4.967,4.9949,4.9627,4.9472,4.9472,4.9236,4.9236,4.9472,4.9533,4.9627,2.4633,2.8,3.219,3.6146,3.9549,4.2231,4.3335,4.4541,4.5249,4.4488,4.5658,4.6791,4.668,4.6754,4.6791,4.668,4.6085,4.5825,4.642,4.59,4.5454,4.5454,4.5454,4.5157,4.4413,4.4339,4.4283,4.4191,4.4172,4.4116,4.4005,4.4005,4.4005,4.4005,4.4005,4.4005,4.4005,4.4051,4.4181,4.4397,4.4701,4.4861,4.4896,4.4973,4.5074,4.5161,4.4714,4.4465,4.4369,4.4151,4.4107,4.4246,4.5008,4.546,4.5827,4.6607,4.6497,4.6076,4.7065,4.6775,4.6094,4.7044,4.7673,4.8047,4.8047,4.8455,4.8909,4.8909,4.903,4.9216,4.9574,4.9634,4.9702,5.0066,5.0733,5.1242,5.1036,5.0303,4.966,4.9482,5.0097,5.0623,5.0584,5.0729,5.0691,5.0222,4.9901,4.9776,4.9981,4.9569,4.9244,4.9195,4.9133,4.9101,4.9101,4.9244,4.9209,4.8926,4.9386,4.9721,4.9803,5.0,5.0237,5.0565,5.0044,4.9749,4.9749,4.993,4.993,4.9749,4.9968,5.0,2.5226,2.7459,3.0206,3.3556,3.6658,3.9403,4.1292,4.2838,4.3912,4.3986,4.4599,4.5249,4.5732,4.6197,4.6345,4.59,4.5528,4.5249,4.5119,4.4785,4.4562,4.4562,4.4562,4.4413,4.4042,4.4005,4.4005,4.4005,4.4005,4.402,4.4119,4.4119,4.4135,4.4162,4.4116,4.4119,4.4119,4.4036,4.4136,4.4397,4.4565,4.4701,4.4849,4.4801,4.4789,4.4788,4.4636,4.4472,4.4277,4.4162,4.407,4.4039,4.4576,4.4851,4.5007,4.5691,4.5782,4.5673,4.6518,4.6263,4.5722,4.6747,4.7249,4.7477,4.7794,4.8358,4.8909,4.8979,4.9195,4.9411,4.9554,4.967,4.9762,4.9968,5.0174,5.0358,5.0474,5.0383,5.0274,5.0304,5.0191,5.0207,5.06,5.0425,5.0165,4.9922,4.979,4.9762,4.9865,4.9909,4.9765,4.9297,4.9577,4.9604,4.9139,4.9096,4.9061,4.8909,4.9155,4.9446,4.979,4.9904,5.0202,5.0683,5.0249,5.0019,5.0038,5.0488,5.0717,5.0755,5.0866,5.0956,2.5143,2.634,2.7974,3.0795,3.3594,3.6329,3.8883,4.0698,4.2092,4.2927,4.3243,4.3652,4.4506,4.5324,4.5658,4.5064,4.4971,4.4729,4.4098,4.4005,4.4005,4.4005,4.4005,4.4005,4.4005,4.4005,4.4005,4.4005,4.4005,4.4036,4.4135,4.4207,4.4281,4.435,4.4364,4.4256,4.4011,4.364,4.3673,4.4151,4.4129,4.4218,4.4411,4.454,4.4568,4.4544,4.4621,4.4546,4.435,4.435,4.4288,4.4221,4.4411,4.4546,4.4663,4.5052,4.5243,4.5379,4.6,4.5943,4.5757,4.6518,4.7033,4.7423,4.774,4.8377,4.8995,4.91,4.9305,4.9558,4.967,4.9749,4.9884,5.0147,5.0062,4.9962,5.0159,5.0501,5.0775,5.0775,5.0189,4.9868,5.0325,5.0061,4.9803,4.9803,4.9803,4.9879,5.006,5.0331,5.0359,4.995,5.0323,5.0309,4.9554,4.9459,4.9347,4.9141,4.9185,4.9427,4.9878,5.0113,5.0479,5.0991,5.0979,5.0853,5.0642,5.1306,5.1738,5.1936,5.1936,5.2045,2.3875,2.4989,2.6655,2.8594,3.095,3.3532,3.6263,3.8135,3.9547,4.0401,4.1181,4.1962,4.2779,4.3596,4.4116,4.4079,4.4079,4.4061,4.4005,4.4005,4.4005,4.4005,4.4005,4.4005,4.4005,4.4005,4.4005,4.4005,4.4005,4.4005,4.4005,4.425,4.443,4.4479,4.4726,4.4404,4.3454,4.2444,4.2425,4.3435,4.3193,4.3085,4.3137,4.3941,4.4454,4.468,4.4557,4.4604,4.4782,4.4782,4.4751,4.4751,4.4763,4.4919,4.515,4.5191,4.5352,4.5596,4.5635,4.6164,4.6762,4.6502,4.7405,4.8553,4.8248,4.8646,4.9197,4.9179,4.926,4.9365,4.9627,4.9749,4.9884,5.0147,5.0195,5.0183,5.0195,5.0019,4.986,4.986,4.9692,4.9524,4.9565,4.9683,4.9803,4.9803,4.9803,5.0041,5.0747,5.0695,5.0848,5.1491,5.1481,5.1214,5.066,5.0793,5.0563,4.98,4.9981,5.0147,5.0183,5.0978,5.1553,5.1827,5.2624,5.2644,5.1817,5.2672,5.3095,5.3105,5.3105,5.3115,2.4229,2.4624,2.5362,2.6557,2.8297,3.0243,3.2328,3.486,3.7021,3.7851,3.951,4.0936,4.12,4.2333,4.3392,4.3912,4.4005,4.4005,4.4005,4.4005,4.4005,4.4005,4.4005,4.4005,4.4005,4.4005,4.3782,4.3262,4.3708,4.3871,4.3573,4.3632,4.3805,4.4042,4.3559,4.3092,4.2688,4.2139,4.2139,4.2707,4.3024,4.3281,4.3473,4.4405,4.4912,4.509,4.503,4.4962,4.4861,4.4861,4.4837,4.4812,4.4996,4.5126,4.5222,4.54,4.5513,4.5594,4.5594,4.5823,4.6231,4.6835,4.7445,4.8036,4.8657,4.9017,4.9244,4.9472,4.9544,4.9627,4.9949,5.005,5.0116,5.0393,5.0393,5.0331,5.0336,5.0061,4.9838,5.0019,5.0006,4.9961,4.9961,5.0,5.0062,5.0062,5.0385,5.0737,5.0993,5.1685,5.2107,5.2033,5.2263,5.2017,5.1045,5.086,5.0505,4.9841,5.0423,5.085,5.1028,5.1861,5.2457,5.2731,5.3587,5.3606,5.2741,5.3606,5.403,5.403,5.403,5.403,2.45,2.45,2.463,2.5169,2.6293,2.765,2.9043,3.1478,3.3763,3.4841,3.6811,3.8502,3.9059,4.0253,4.159,4.2965,4.3188,4.3188,4.3188,4.3188,4.3188,4.3188,4.3188,4.3188,4.3188,4.3188,4.2965,4.2445,4.2943,4.3287,4.3267,4.3171,4.3248,4.3568,4.2628,4.2283,4.2592,4.1707,4.154,4.206,4.2446,4.2858,4.3331,4.422,4.4876,4.5302,4.5282,4.5222,4.5129,4.5129,4.5107,4.5085,4.5253,4.5332,4.5352,4.5522,4.5594,4.5633,4.5939,4.608,4.6315,4.7559,4.7831,4.7834,4.8777,4.9081,4.9154,4.9373,4.9629,4.9949,5.0252,5.0385,5.0479,5.0653,5.0508,5.0331,5.0317,5.0024,4.983,5.0123,5.008,5.0075,5.0183,5.0505,5.0604,5.0256,5.1084,5.1706,5.1619,5.2575,5.3255,5.3177,5.3409,5.3164,5.2195,5.1906,5.157,5.097,5.1491,5.187,5.2054,5.2909,5.3582,5.403,5.4628,5.4811,5.4512,5.4771,5.4895,5.4895,5.4895,5.4906,0.0,0.0,0.0,2.45,2.5094,2.5875,2.6646,2.8114,2.9768,3.1329,3.2953,3.4587,3.624,3.7206,3.8562,4.1014,4.1497,4.1553,4.1553,4.159,4.159,4.159,4.159,4.159,4.159,4.159,4.159,4.1571,4.1773,4.2267,4.3077,4.2845,4.2785,4.3026,4.2055,4.2033,4.3115,4.1025,4.0511,4.1564,4.1379,4.1734,4.2544,4.3354,4.429,4.5312,4.5232,4.5352,4.5594,4.5594,4.5594,4.5594,4.5594,4.5594,4.5594,4.5594,4.5594,4.5719,4.657,4.6868,4.715,4.8566,4.8565,4.8105,4.8606,4.8819,4.8904,4.8915,4.9538,5.0275,5.0547,5.0754,5.0898,5.0898,5.0538,5.0206,5.0206,4.9878,4.9707,5.0031,4.9897,4.9849,5.0209,5.1107,5.1449,5.0455,5.1858,5.2935,5.2685,5.3339,5.4175,5.5012,5.5,5.4689,5.4152,5.4058,5.3774,5.322,5.3222,5.3241,5.3241,5.4087,5.4895,5.5695,5.5766,5.623,5.7097,5.6158,5.5695,5.5714,5.5703,5.5716,2.4508,0.0,0.0,0.0,0.0,0.0,2.5113,2.6433,2.7724,2.8152,3.0047,3.1924,3.2964,3.3819,3.499,3.6885,3.9189,4.0717,4.0717,4.1219,4.159,4.159,4.159,4.159,4.159,4.159,4.1349,4.0773,4.1324,4.1678,4.1671,4.1905,4.1786,4.1243,4.0385,4.0381,4.1316,3.9912,3.9771,4.0881,4.1216,4.1915,4.2954,4.378,4.4632,4.5513,4.5495,4.5522,4.5594,4.5594,4.5594,4.5594,4.5594,4.5594,4.5594,4.5594,4.5631,4.5704,4.5943,4.6475,4.7069,4.728,4.7655,4.8001,4.8012,4.8434,4.8938,4.914,4.9825,5.0547,5.0763,5.0861,5.0905,5.089,5.0615,5.0353,5.0338,5.0071,4.9886,5.0128,5.0264,5.0638,5.15,5.1854,5.2134,5.2473,5.3285,5.3844,5.3774,5.4332,5.4909,5.5332,5.5183,5.4861,5.444,5.4234,5.3867,5.325,5.3801,5.4128,5.4145,5.4975,5.5554,5.5766,5.5836,5.6309,5.7158,5.627,5.5816,5.5766,5.5724,5.5406,0.0,0.0,2.45,2.4498,0.0,0.0,2.4542,2.5251,2.6005,2.6377,2.7837,2.9304,3.0103,3.0939,3.1924,3.3243,3.5343,3.7294,3.8655,3.9263,3.9547,3.9547,3.9547,3.9547,3.9547,3.9863,3.9863,3.938,4.0211,4.0671,4.0563,4.0931,4.0729,3.9865,3.9131,3.9176,4.0046,3.9402,3.9575,4.0565,4.088,4.1562,4.2585,4.3412,4.4259,4.5075,4.5441,4.5594,4.5594,4.5594,4.5594,4.5594,4.5594,4.5594,4.5594,4.5631,4.5676,4.5767,4.6147,4.6407,4.6642,4.7221,4.7512,4.7666,4.7924,4.8558,4.926,4.9419,5.0072,5.0754,5.0874,5.0901,5.0893,5.0898,5.069,5.0488,5.048,5.0327,5.0206,5.027,5.0706,5.128,5.2028,5.2732,5.3228,5.3337,5.4216,5.4754,5.4378,5.4932,5.5401,5.5562,5.5437,5.5258,5.5023,5.4891,5.4677,5.4311,5.4744,5.5024,5.5073,5.5536,5.597,5.6376,5.6097,5.6358,5.7197,5.6686,5.6396,5.6336,5.5908,5.5453,0.0,0.0,0.0,2.469,2.4859,0.0,2.4665,2.4698,2.4945,2.5519,2.6181,2.6869,2.7687,2.8467,2.9285,3.0177,3.092,3.2574,3.5943,3.6513,3.6593,3.6686,3.6699,3.6699,3.6699,3.7336,3.7764,3.7764,3.8764,3.9404,3.947,3.9852,3.9661,3.8801,3.8166,3.8315,3.9284,3.9207,3.9611,4.0496,4.0496,4.095,4.1827,4.2701,4.3547,4.4355,4.5229,4.5594,4.5594,4.5614,4.5614,4.5594,4.5614,4.5603,4.5622,4.5673,4.569,4.5822,4.6673,4.6503,4.6182,4.7649,4.7657,4.7231,4.7908,4.872,4.9455,4.9649,5.0279,5.0898,5.0898,5.0898,5.0898,5.0898,5.0763,5.0625,5.0625,5.0702,5.075,5.0625,5.1211,5.1886,5.2322,5.3672,5.4437,5.3696,5.4843,5.5507,5.4736,5.5283,5.5714,5.5724,5.5724,5.5714,5.5714,5.5714,5.5735,5.5776,5.5745,5.5766,5.5885,5.5846,5.6212,5.7033,5.6541,5.6627,5.7342,5.7236,5.7158,5.7088,5.615,5.5724,2.6586,2.716,2.7223,2.587,2.7045,0.0,2.5205,2.5581,2.6189,2.5006,2.486,2.5206,2.6024,2.6321,2.6888,2.8356,2.8728,3.0196,3.4123,3.5287,3.5974,3.6625,3.6699,3.6699,3.6699,3.6835,3.6928,3.6928,3.7922,3.8254,3.7566,3.8574,3.8782,3.7959,3.7291,3.7719,3.9284,3.8604,3.9008,4.0496,4.0496,4.095,4.1827,4.2701,4.3547,4.4355,4.5229,4.5594,4.5594,4.5657,4.5648,4.5614,4.5657,4.5684,4.5673,4.5695,4.5735,4.5804,4.5993,4.6409,4.6798,4.6419,4.6677,4.6999,4.6464,4.6922,4.7908,4.932,5.0279,5.0898,5.0898,5.0898,5.0898,5.0898,5.0874,5.083,5.083,5.1399,5.1882,5.1854,5.1936,5.2478,5.3943,5.4381,5.4708,5.5229,5.5544,5.5677,5.5555,5.568,5.5787,5.5865,5.5816,5.5776,5.5776,5.5776,5.5766,5.5724,5.5816,5.5846,5.5826,5.5914,5.603,5.6146,5.7313,5.8037,5.824,5.7486,5.7147,5.7158,5.6221,5.5816,2.7063,2.7461,2.7605,2.7193,2.7371,0.0,0.0,2.5821,2.5751,2.5759,2.5082,2.488,2.6126,2.6014,2.6153,2.7401,2.7568,2.8553,3.1399,3.2177,3.2908,3.4116,3.3893,3.3819,3.4228,3.5014,3.5845,3.6682,3.725,3.7349,3.6876,3.728,3.7509,3.75,3.6592,3.7142,3.9284,3.843,3.8834,4.0496,4.0496,4.095,4.1808,4.2258,4.3124,4.4316,4.4759,4.5218,4.5648,4.5693,4.5682,4.5643,4.5687,4.5695,4.5695,4.5743,4.5773,4.5807,4.581,4.6095,4.6387,4.5942,4.6387,4.7018,4.6581,4.7366,4.8585,4.9455,5.0279,5.0898,5.0898,5.0898,5.0898,5.0898,5.0898,5.0898,5.0898,5.1583,5.2326,5.2763,5.3155,5.3653,5.4514,5.4988,5.5364,5.5739,5.5806,5.5816,5.5846,5.5846,5.5846,5.5846,5.5826,5.5776,5.5756,5.5745,5.5745,5.5745,5.62,5.6452,5.6444,5.6907,5.6936,5.6512,5.7361,5.7824,5.7854,5.737,5.7389,5.7815,5.6474,5.5875,2.7733,2.7968,2.811,2.8343,2.7698,2.6968,0.0,0.0,0.0,2.6336,2.5462,2.4925,2.6292,2.6003,2.5805,2.6539,2.6746,2.7251,2.8539,2.8733,2.9429,3.1329,3.0864,3.0753,3.1719,3.288,3.4206,3.5715,3.5845,3.5901,3.6037,3.5921,3.6178,3.6881,3.5978,3.6642,3.9034,3.8354,3.8834,4.0496,4.0669,4.1027,4.1566,4.1912,4.2701,4.3871,4.4179,4.4743,4.5459,4.564,4.573,4.5715,4.5715,4.5715,4.5723,4.5781,4.5795,4.5803,4.5793,4.5807,4.5807,4.5807,4.6387,4.7076,4.6902,4.8179,4.9668,4.9494,5.0144,5.0898,5.0898,5.0898,5.0898,5.0898,5.0898,5.0898,5.0898,5.1718,5.2655,5.3362,5.4295,5.4928,5.4882,5.5499,5.5991,5.6048,5.6126,5.6213,5.6377,5.6252,5.6126,5.6077,5.5903,5.5776,5.5724,5.5714,5.5782,5.6027,5.665,5.7114,5.7321,5.7976,5.8014,5.7361,5.7573,5.7679,5.7689,5.7535,5.7728,5.8201,5.6647,5.5914,3.003,3.1082,3.1025,2.8913,2.9908,3.0255,2.5957,0.0,2.6453,2.5217,0.0,2.4646,2.4841,0.0,0.0,2.5028,2.5649,2.6164,2.6274,2.6303,2.7407,3.0384,3.0028,3.0121,3.1645,3.134,3.1396,3.2307,3.2381,3.275,3.3639,3.4535,3.5153,3.5435,3.5491,3.6346,3.8123,3.8046,3.8834,4.0516,4.1277,4.1296,4.0708,4.2258,4.2667,4.2256,4.3747,4.4457,4.4604,4.5449,4.5792,4.5781,4.5781,4.5781,4.5788,4.5805,4.58,4.58,4.5807,4.5807,4.5807,4.5807,4.6387,4.696,4.6174,4.7695,4.9533,4.8778,4.9687,5.0898,5.0898,5.0898,5.0898,5.0898,5.0898,5.0898,5.0898,5.2182,5.3382,5.3478,5.4766,5.5851,5.5844,5.5875,5.6175,5.6927,5.7043,5.7332,5.8114,5.7526,5.7043,5.7052,5.629,5.5787,5.5787,5.5735,5.6041,5.6821,5.7007,5.7414,5.8137,5.8314,5.8344,5.8248,5.901,5.9446,5.9495,5.8732,5.8018,5.7322,5.6415,5.5989,3.0414,3.0847,3.0678,3.0584,3.0255,2.9542,2.7955,2.704,2.6583,2.6857,0.0,0.0,0.0,0.0,0.0,0.0,2.5927,2.61,2.6083,2.5645,2.612,2.8297,2.7792,2.7892,2.9541,2.9411,2.9582,3.0512,3.101,3.1503,3.1996,3.3483,3.4592,3.5182,3.5403,3.6288,3.7988,3.8007,3.8604,3.9823,4.1162,4.1862,4.2009,4.2279,4.2738,4.3354,4.3594,4.3983,4.4534,4.5425,4.5803,4.5798,4.5798,4.5798,4.5805,4.58,4.5807,4.5807,4.5807,4.5807,4.5807,4.5807,4.6387,4.6941,4.6058,4.7637,4.9513,4.8643,4.961,5.0898,5.0898,5.0898,5.1033,5.1525,5.1641,5.1796,5.2298,5.3382,5.4252,5.4252,5.52,5.6003,5.6005,5.5979,5.6076,5.6454,5.6936,5.738,5.7699,5.7429,5.7197,5.7149,5.68,5.6335,5.5784,5.6637,5.7146,5.7003,5.7937,5.8872,5.9719,5.9331,5.9072,5.904,5.901,5.9003,5.8983,5.8703,5.8345,5.7921,5.7119,5.7039,3.049,3.0706,3.0611,3.1374,3.0383,2.9202,2.9146,2.7952,2.7129,2.8066,2.6906,0.0,0.0,0.0,2.6238,2.6065,0.0,2.6447,2.5964,2.5551,2.5698,2.6707,2.6413,2.653,2.752,2.7622,2.8023,2.8965,2.9387,2.9853,3.0452,3.2,3.3379,3.4527,3.4944,3.6065,3.7988,3.8007,3.8688,4.0031,4.1254,4.2163,4.2749,4.2163,4.2437,4.3373,4.3014,4.3364,4.4242,4.51,4.5604,4.5807,4.5807,4.5807,4.5807,4.5807,4.5807,4.5807,4.5807,4.5807,4.5807,4.5807,4.6387,4.698,4.6348,4.7811,4.9571,4.8933,4.9784,5.0898,5.0898,5.0898,5.1111,5.1989,5.221,5.2442,5.3304,5.4175,5.4793,5.4793,5.5451,5.6012,5.6012,5.6012,5.6072,5.6326,5.7079,5.7697,5.7892,5.7883,5.7844,5.779,5.7576,5.7151,5.6472,5.7569,5.8127,5.7715,5.9072,6.0169,6.0762,6.0272,5.9956,5.9881,5.9424,5.9166,5.9116,5.8974,5.9003,5.9157,5.8104,5.7958,3.0595,3.1678,3.1975,3.0517,3.0732,3.067,2.8211,2.8269,2.86,2.7784,2.7574,2.7306,2.6573,2.6371,0.0,0.0,0.0,0.0,0.0,2.5847,2.6308,2.6145,2.679,2.6953,2.6249,2.6173,2.6495,2.7312,2.6684,2.7049,2.8878,2.9777,3.1076,3.2917,3.3795,3.5449,3.7988,3.8007,3.928,4.1821,4.1879,4.1901,4.1938,4.1912,4.1509,4.0867,4.1679,4.253,4.3414,4.4284,4.5104,4.5807,4.5807,4.5807,4.5807,4.5807,4.5807,4.5807,4.5807,4.5807,4.5807,4.5807,4.6387,4.7096,4.7076,4.8295,4.9687,4.9668,5.026,5.0898,5.0898,5.0898,5.1111,5.1989,5.221,5.2442,5.3304,5.4175,5.4793,5.4793,5.5451,5.6012,5.6012,5.6012,5.6293,5.7125,5.7939,5.8781,5.9611,5.9598,5.9524,5.9524,5.8756,5.8242,5.8223,5.828,5.8627,5.9377,6.0319,6.0839,6.08,6.0894,6.0927,6.0853,6.0908,6.092,6.091,6.0071,6.011,6.0882,5.9234,5.8443,3.0971,3.1089,3.1016,3.161,3.1147,3.0459,3.0187,2.9973,2.9594,2.8756,2.8651,2.8285,2.6868,2.6574,0.0,0.0,0.0,0.0,0.0,2.5558,2.5702,2.5641,2.5753,2.5697,2.5338,2.5312,2.5467,2.5818,2.6136,2.6606,2.7341,2.9236,3.0841,3.2079,3.3474,3.5174,3.7196,3.7781,3.8789,4.0183,4.1342,4.1919,4.1974,4.1974,4.1821,4.1603,4.2473,4.3021,4.3421,4.4813,4.5548,4.5807,4.5807,4.5807,4.5807,4.5807,4.5807,4.5807,4.5807,4.5807,4.5904,4.6464,4.725,4.7966,4.7966,4.9146,5.0376,4.9861,5.0279,5.0898,5.0898,5.0898,5.1111,5.1989,5.2635,5.3304,5.4175,5.5006,5.5586,5.5586,5.5818,5.5995,5.6007,5.5998,5.6288,5.7119,5.795,5.879,5.9568,5.9665,5.9644,5.9601,5.9391,5.8997,5.8419,5.8839,5.9499,6.03,6.067,6.0823,6.08,6.09,6.0891,6.0835,6.0944,6.0976,6.0933,6.069,6.0701,6.0997,6.0412,6.0142,3.0832,3.0834,3.0835,3.1687,3.1296,3.0778,3.1047,3.096,3.0612,2.9797,2.9699,2.9317,2.7892,2.7352,0.0,0.0,0.0,0.0,0.0,2.5402,2.541,2.541,2.5298,2.5179,2.5099,2.5056,2.508,2.5165,2.5682,2.6181,2.6578,2.8453,3.0177,3.1653,3.3044,3.4758,3.6787,3.7661,3.8677,3.9815,4.1244,4.2128,4.2452,4.2452,4.2466,4.2492,4.3053,4.3479,4.3846,4.4929,4.5529,4.5807,4.5807,4.5807,4.5807,4.5807,4.5807,4.5807,4.5807,4.5807,4.5942,4.6825,4.7482,4.8005,4.8314,4.9378,5.0299,4.944,5.0012,5.0816,5.0499,5.0858,5.1476,5.2026,5.2826,5.3705,5.4583,5.5191,5.5664,5.5935,5.5995,5.5996,5.5999,5.5981,5.6242,5.7043,5.7912,5.876,5.9537,5.9935,6.0157,6.0096,6.0147,5.9936,5.9337,5.9736,6.025,6.0773,6.0823,6.0823,6.08,6.0858,6.1023,6.1297,6.1076,6.109,6.1368,6.1115,6.099,6.0997,6.0991,6.1002]}]]